Wetterdaten: Dienstag, 26.05.2020
Datum Zeit Temp. 2m Temp +5 cm Feuchte A. Luftdruck Regen Wind Richtung Richtung Sonnenschein UV Solar Taupunkt Windchill Windben
26.05.2020 00:00 7,3 C 3,9 C 90 % 1035,6 hPa 0,0 l/m 0,0 km/h (0 Bft) N 0 0 min 0,0 UV-I 0 W/m 5,8 C 7,3 C 0,0 km/h (0 Bft)
26.05.2020 00:01 7,3 C 3,9 C 90 % 1035,6 hPa 0,0 l/m 0,0 km/h (0 Bft) N 0 0 min 0,0 UV-I 0 W/m 5,8 C 7,3 C 0,0 km/h (0 Bft)
26.05.2020 00:02 7,3 C 3,9 C 90 % 1035,6 hPa 0,0 l/m 0,0 km/h (0 Bft) N-NW 337 0 min 0,0 UV-I 0 W/m 5,8 C 7,3 C 1,6 km/h (1 Bft)
26.05.2020 00:03 7,3 C 3,9 C 91 % 1035,6 hPa 0,0 l/m 0,0 km/h (0 Bft) N-NW 337 0 min 0,0 UV-I 0 W/m 5,9 C 7,3 C 1,6 km/h (1 Bft)
26.05.2020 00:04 7,3 C 3,9 C 90 % 1035,6 hPa 0,0 l/m 0,0 km/h (0 Bft) N-NW 337 0 min 0,0 UV-I 0 W/m 5,8 C 7,3 C 1,6 km/h (1 Bft)
26.05.2020 00:05 7,3 C 4,4 C 91 % 1035,6 hPa 0,0 l/m 0,0 km/h (0 Bft) N-NW 337 0 min 0,0 UV-I 0 W/m 5,9 C 7,3 C 1,6 km/h (1 Bft)
26.05.2020 00:06 7,3 C 4,4 C 91 % 1035,6 hPa 0,0 l/m 0,0 km/h (0 Bft) N-NW 337 0 min 0,0 UV-I 0 W/m 5,9 C 7,3 C 1,6 km/h (1 Bft)
26.05.2020 00:07 7,3 C 4,4 C 91 % 1035,6 hPa 0,0 l/m 0,0 km/h (0 Bft) N 0 0 min 0,0 UV-I 0 W/m 5,9 C 7,3 C 0,0 km/h (0 Bft)
26.05.2020 00:08 7,3 C 4,4 C 91 % 1035,6 hPa 0,0 l/m 0,0 km/h (0 Bft) N-NW 337 0 min 0,0 UV-I 0 W/m 5,9 C 7,3 C 1,6 km/h (1 Bft)
26.05.2020 00:09 7,3 C 4,4 C 90 % 1035,7 hPa 0,0 l/m 0,0 km/h (0 Bft) N 0 0 min 0,0 UV-I 0 W/m 5,8 C 7,3 C 0,0 km/h (0 Bft)
26.05.2020 00:10 7,2 C 4,4 C 90 % 1035,6 hPa 0,0 l/m 0,0 km/h (0 Bft) N 0 0 min 0,0 UV-I 0 W/m 5,7 C 7,2 C 0,0 km/h (0 Bft)
26.05.2020 00:11 7,2 C 4,4 C 90 % 1035,7 hPa 0,0 l/m 0,0 km/h (0 Bft) N 0 0 min 0,0 UV-I 0 W/m 5,7 C 7,2 C 0,0 km/h (0 Bft)
26.05.2020 00:12 7,2 C 4,4 C 90 % 1035,6 hPa 0,0 l/m 0,0 km/h (0 Bft) N 0 0 min 0,0 UV-I 0 W/m 5,7 C 7,2 C 0,0 km/h (0 Bft)
26.05.2020 00:13 7,2 C 4,4 C 91 % 1035,6 hPa 0,0 l/m 0,0 km/h (0 Bft) N 0 0 min 0,0 UV-I 0 W/m 5,8 C 7,2 C 0,0 km/h (0 Bft)
26.05.2020 00:14 7,2 C 3,9 C 91 % 1035,7 hPa 0,0 l/m 0,0 km/h (0 Bft) N 0 0 min 0,0 UV-I 0 W/m 5,8 C 7,2 C 0,0 km/h (0 Bft)
26.05.2020 00:15 7,1 C 3,9 C 90 % 1035,6 hPa 0,0 l/m 0,0 km/h (0 Bft) N 0 0 min 0,0 UV-I 0 W/m 5,6 C 7,1 C 0,0 km/h (0 Bft)
26.05.2020 00:16 7,1 C 4,4 C 90 % 1035,7 hPa 0,0 l/m 0,0 km/h (0 Bft) N 0 0 min 0,0 UV-I 0 W/m 5,6 C 7,1 C 0,0 km/h (0 Bft)
26.05.2020 00:17 7,0 C 4,4 C 91 % 1035,7 hPa 0,0 l/m 0,0 km/h (0 Bft) N 0 0 min 0,0 UV-I 0 W/m 5,6 C 7,0 C 0,0 km/h (0 Bft)
26.05.2020 00:18 7,0 C 4,4 C 91 % 1035,7 hPa 0,0 l/m 0,0 km/h (0 Bft) N 0 0 min 0,0 UV-I 0 W/m 5,6 C 7,0 C 0,0 km/h (0 Bft)
26.05.2020 00:19 7,0 C 3,9 C 91 % 1035,6 hPa 0,0 l/m 0,0 km/h (0 Bft) N 0 0 min 0,0 UV-I 0 W/m 5,6 C 7,0 C 0,0 km/h (0 Bft)
26.05.2020 00:20 6,9 C 3,9 C 91 % 1035,7 hPa 0,0 l/m 0,0 km/h (0 Bft) N 0 0 min 0,0 UV-I 0 W/m 5,5 C 6,9 C 0,0 km/h (0 Bft)
26.05.2020 00:21 6,9 C 3,9 C 91 % 1035,7 hPa 0,0 l/m 0,0 km/h (0 Bft) N 0 0 min 0,0 UV-I 0 W/m 5,5 C 6,9 C 0,0 km/h (0 Bft)
26.05.2020 00:22 6,9 C 3,9 C 91 % 1035,6 hPa 0,0 l/m 0,0 km/h (0 Bft) N 0 0 min 0,0 UV-I 0 W/m 5,5 C 6,9 C 0,0 km/h (0 Bft)
26.05.2020 00:23 6,8 C 3,9 C 90 % 1035,7 hPa 0,0 l/m 0,0 km/h (0 Bft) N 0 0 min 0,0 UV-I 0 W/m 5,3 C 6,8 C 0,0 km/h (0 Bft)
26.05.2020 00:24 6,8 C 3,9 C 91 % 1035,6 hPa 0,0 l/m 0,0 km/h (0 Bft) N 0 0 min 0,0 UV-I 0 W/m 5,4 C 6,8 C 0,0 km/h (0 Bft)
26.05.2020 00:25 6,8 C 3,9 C 91 % 1035,6 hPa 0,0 l/m 0,0 km/h (0 Bft) N 0 0 min 0,0 UV-I 0 W/m 5,4 C 6,8 C 0,0 km/h (0 Bft)
26.05.2020 00:26 6,7 C 3,9 C 91 % 1035,6 hPa 0,0 l/m 0,0 km/h (0 Bft) N-NW 337 0 min 0,0 UV-I 0 W/m 5,3 C 6,7 C 1,6 km/h (1 Bft)
26.05.2020 00:27 6,8 C 3,9 C 91 % 1035,6 hPa 0,0 l/m 1,6 km/h (1 Bft) N-NW 337 0 min 0,0 UV-I 0 W/m 5,4 C 6,8 C 1,6 km/h (1 Bft)
26.05.2020 00:28 6,8 C 3,9 C 91 % 1035,7 hPa 0,0 l/m 1,6 km/h (1 Bft) N-NW 337 0 min 0,0 UV-I 0 W/m 5,4 C 6,8 C 1,6 km/h (1 Bft)
26.05.2020 00:29 6,9 C 3,9 C 92 % 1035,7 hPa 0,0 l/m 1,6 km/h (1 Bft) N-NW 337 0 min 0,0 UV-I 0 W/m 5,7 C 6,9 C 3,2 km/h (1 Bft)
26.05.2020 00:30 6,9 C 3,9 C 92 % 1035,7 hPa 0,0 l/m 3,2 km/h (1 Bft) N-NW 337 0 min 0,0 UV-I 0 W/m 5,7 C 6,9 C 3,2 km/h (1 Bft)
26.05.2020 00:31 7,0 C 4,4 C 92 % 1035,6 hPa 0,0 l/m 3,2 km/h (1 Bft) N-NW 337 0 min 0,0 UV-I 0 W/m 5,8 C 7,0 C 4,8 km/h (1 Bft)
26.05.2020 00:32 7,1 C 5,0 C 92 % 1035,6 hPa 0,0 l/m 3,2 km/h (1 Bft) N-NW 337 0 min 0,0 UV-I 0 W/m 5,9 C 7,1 C 4,8 km/h (1 Bft)
26.05.2020 00:33 7,2 C 5,0 C 92 % 1035,6 hPa 0,0 l/m 3,2 km/h (1 Bft) N-NW 337 0 min 0,0 UV-I 0 W/m 6,0 C 7,2 C 4,8 km/h (1 Bft)
26.05.2020 00:34 7,1 C 4,4 C 91 % 1035,5 hPa 0,0 l/m 3,2 km/h (1 Bft) N-NW 337 0 min 0,0 UV-I 0 W/m 5,7 C 7,1 C 3,2 km/h (1 Bft)
26.05.2020 00:35 7,1 C 3,9 C 91 % 1035,6 hPa 0,0 l/m 1,6 km/h (1 Bft) N-NW 337 0 min 0,0 UV-I 0 W/m 5,7 C 7,1 C 3,2 km/h (1 Bft)
26.05.2020 00:36 6,9 C 3,9 C 91 % 1035,6 hPa 0,0 l/m 1,6 km/h (1 Bft) N-NW 337 0 min 0,0 UV-I 0 W/m 5,5 C 6,9 C 1,6 km/h (1 Bft)
26.05.2020 00:37 6,9 C 3,9 C 91 % 1035,6 hPa 0,0 l/m 1,6 km/h (1 Bft) N-NW 337 0 min 0,0 UV-I 0 W/m 5,5 C 6,9 C 1,6 km/h (1 Bft)
26.05.2020 00:38 7,0 C 3,9 C 91 % 1035,6 hPa 0,0 l/m 0,0 km/h (0 Bft) N-NW 337 0 min 0,0 UV-I 0 W/m 5,6 C 7,0 C 1,6 km/h (1 Bft)
26.05.2020 00:39 7,0 C 3,9 C 91 % 1035,6 hPa 0,0 l/m 0,0 km/h (0 Bft) N-NW 337 0 min 0,0 UV-I 0 W/m 5,6 C 7,0 C 1,6 km/h (1 Bft)
26.05.2020 00:40 7,0 C 3,9 C 91 % 1035,7 hPa 0,0 l/m 0,0 km/h (0 Bft) N 0 0 min 0,0 UV-I 0 W/m 5,6 C 7,0 C 0,0 km/h (0 Bft)
26.05.2020 00:41 6,9 C 3,9 C 91 % 1035,6 hPa 0,0 l/m 0,0 km/h (0 Bft) N 0 0 min 0,0 UV-I 0 W/m 5,5 C 6,9 C 0,0 km/h (0 Bft)
26.05.2020 00:42 6,8 C 3,9 C 91 % 1035,6 hPa 0,0 l/m 0,0 km/h (0 Bft) N 0 0 min 0,0 UV-I 0 W/m 5,4 C 6,8 C 0,0 km/h (0 Bft)
26.05.2020 00:43 6,7 C 3,9 C 91 % 1035,7 hPa 0,0 l/m 0,0 km/h (0 Bft) N 0 0 min 0,0 UV-I 0 W/m 5,3 C 6,7 C 0,0 km/h (0 Bft)
26.05.2020 00:44 6,7 C 3,9 C 91 % 1035,7 hPa 0,0 l/m 0,0 km/h (0 Bft) N 0 0 min 0,0 UV-I 0 W/m 5,3 C 6,7 C 0,0 km/h (0 Bft)
26.05.2020 00:45 6,6 C 3,9 C 91 % 1035,7 hPa 0,0 l/m 0,0 km/h (0 Bft) N 0 0 min 0,0 UV-I 0 W/m 5,2 C 6,6 C 0,0 km/h (0 Bft)
26.05.2020 00:46 6,4 C 3,9 C 90 % 1035,8 hPa 0,0 l/m 0,0 km/h (0 Bft) N 0 0 min 0,0 UV-I 0 W/m 4,9 C 6,4 C 0,0 km/h (0 Bft)
26.05.2020 00:47 6,4 C 3,9 C 91 % 1035,7 hPa 0,0 l/m 0,0 km/h (0 Bft) N 0 0 min 0,0 UV-I 0 W/m 5,0 C 6,4 C 0,0 km/h (0 Bft)
26.05.2020 00:48 6,3 C 3,3 C 91 % 1035,7 hPa 0,0 l/m 0,0 km/h (0 Bft) N 0 0 min 0,0 UV-I 0 W/m 4,9 C 6,3 C 0,0 km/h (0 Bft)
26.05.2020 00:49 6,3 C 3,3 C 91 % 1035,6 hPa 0,0 l/m 0,0 km/h (0 Bft) N 0 0 min 0,0 UV-I 0 W/m 4,9 C 6,3 C 0,0 km/h (0 Bft)
26.05.2020 00:50 6,3 C 3,3 C 91 % 1035,7 hPa 0,0 l/m 0,0 km/h (0 Bft) N 0 0 min 0,0 UV-I 0 W/m 4,9 C 6,3 C 0,0 km/h (0 Bft)
26.05.2020 00:51 6,2 C 3,3 C 91 % 1035,7 hPa 0,0 l/m 0,0 km/h (0 Bft) N-NW 337 0 min 0,0 UV-I 0 W/m 4,8 C 6,2 C 1,6 km/h (1 Bft)
26.05.2020 00:52 6,2 C 3,3 C 91 % 1035,7 hPa 0,0 l/m 1,6 km/h (1 Bft) N-NW 337 0 min 0,0 UV-I 0 W/m 4,8 C 6,2 C 1,6 km/h (1 Bft)
26.05.2020 00:53 6,2 C 3,3 C 92 % 1035,7 hPa 0,0 l/m 1,6 km/h (1 Bft) N-NW 337 0 min 0,0 UV-I 0 W/m 5,0 C 6,2 C 1,6 km/h (1 Bft)
26.05.2020 00:54 6,2 C 3,3 C 92 % 1035,6 hPa 0,0 l/m 1,6 km/h (1 Bft) N-NW 337 0 min 0,0 UV-I 0 W/m 5,0 C 6,2 C 3,2 km/h (1 Bft)
26.05.2020 00:55 6,2 C 3,3 C 92 % 1035,7 hPa 0,0 l/m 0,0 km/h (0 Bft) N-NW 337 0 min 0,0 UV-I 0 W/m 5,0 C 6,2 C 1,6 km/h (1 Bft)
26.05.2020 00:56 6,2 C 3,3 C 92 % 1035,6 hPa 0,0 l/m 0,0 km/h (0 Bft) N 0 0 min 0,0 UV-I 0 W/m 5,0 C 6,2 C 0,0 km/h (0 Bft)
26.05.2020 00:57 6,2 C 3,3 C 92 % 1035,7 hPa 0,0 l/m 0,0 km/h (0 Bft) N 0 0 min 0,0 UV-I 0 W/m 5,0 C 6,2 C 0,0 km/h (0 Bft)
26.05.2020 00:58 6,3 C 3,3 C 92 % 1035,7 hPa 0,0 l/m 0,0 km/h (0 Bft) N 0 0 min 0,0 UV-I 0 W/m 5,1 C 6,3 C 0,0 km/h (0 Bft)
26.05.2020 00:59 6,3 C 3,3 C 92 % 1035,6 hPa 0,0 l/m 0,0 km/h (0 Bft) N 0 0 min 0,0 UV-I 0 W/m 5,1 C 6,3 C 0,0 km/h (0 Bft)
26.05.2020 01:00 6,3 C 3,3 C 92 % 1035,6 hPa 0,0 l/m 0,0 km/h (0 Bft) N 0 0 min 0,0 UV-I 0 W/m 5,1 C 6,3 C 0,0 km/h (0 Bft)
26.05.2020 01:01 6,3 C 3,3 C 92 % 1035,6 hPa 0,0 l/m 0,0 km/h (0 Bft) N 0 0 min 0,0 UV-I 0 W/m 5,1 C 6,3 C 0,0 km/h (0 Bft)
26.05.2020 01:02 6,4 C 3,3 C 92 % 1035,6 hPa 0,0 l/m 0,0 km/h (0 Bft) N 0 0 min 0,0 UV-I 0 W/m 5,2 C 6,4 C 0,0 km/h (0 Bft)
26.05.2020 01:03 6,4 C 3,3 C 92 % 1035,6 hPa 0,0 l/m 0,0 km/h (0 Bft) N 0 0 min 0,0 UV-I 0 W/m 5,2 C 6,4 C 0,0 km/h (0 Bft)
26.05.2020 01:04 6,5 C 3,3 C 92 % 1035,6 hPa 0,0 l/m 0,0 km/h (0 Bft) N 0 0 min 0,0 UV-I 0 W/m 5,3 C 6,5 C 0,0 km/h (0 Bft)
26.05.2020 01:05 6,6 C 3,3 C 92 % 1035,6 hPa 0,0 l/m 0,0 km/h (0 Bft) N 0 0 min 0,0 UV-I 0 W/m 5,4 C 6,6 C 0,0 km/h (0 Bft)
26.05.2020 01:06 6,6 C 3,3 C 92 % 1035,6 hPa 0,0 l/m 0,0 km/h (0 Bft) N 0 0 min 0,0 UV-I 0 W/m 5,4 C 6,6 C 0,0 km/h (0 Bft)
26.05.2020 01:07 6,6 C 3,3 C 92 % 1035,6 hPa 0,0 l/m 0,0 km/h (0 Bft) N 0 0 min 0,0 UV-I 0 W/m 5,4 C 6,6 C 0,0 km/h (0 Bft)
26.05.2020 01:08 6,6 C 3,3 C 92 % 1035,7 hPa 0,0 l/m 0,0 km/h (0 Bft) N 0 0 min 0,0 UV-I 0 W/m 5,4 C 6,6 C 0,0 km/h (0 Bft)
26.05.2020 01:09 6,6 C 3,3 C 92 % 1035,6 hPa 0,0 l/m 0,0 km/h (0 Bft) N 0 0 min 0,0 UV-I 0 W/m 5,4 C 6,6 C 0,0 km/h (0 Bft)
26.05.2020 01:10 6,6 C 3,3 C 92 % 1035,6 hPa 0,0 l/m 0,0 km/h (0 Bft) N 0 0 min 0,0 UV-I 0 W/m 5,4 C 6,6 C 0,0 km/h (0 Bft)
26.05.2020 01:11 6,6 C 3,3 C 92 % 1035,6 hPa 0,0 l/m 0,0 km/h (0 Bft) N 0 0 min 0,0 UV-I 0 W/m 5,4 C 6,6 C 0,0 km/h (0 Bft)
26.05.2020 01:12 6,6 C 3,3 C 92 % 1035,6 hPa 0,0 l/m 0,0 km/h (0 Bft) N 0 0 min 0,0 UV-I 0 W/m 5,4 C 6,6 C 0,0 km/h (0 Bft)
26.05.2020 01:13 6,6 C 3,3 C 92 % 1035,6 hPa 0,0 l/m 0,0 km/h (0 Bft) N 0 0 min 0,0 UV-I 0 W/m 5,4 C 6,6 C 0,0 km/h (0 Bft)
26.05.2020 01:14 6,5 C 3,3 C 92 % 1035,6 hPa 0,0 l/m 0,0 km/h (0 Bft) N 0 0 min 0,0 UV-I 0 W/m 5,3 C 6,5 C 0,0 km/h (0 Bft)
26.05.2020 01:15 6,4 C 3,3 C 92 % 1035,6 hPa 0,0 l/m 0,0 km/h (0 Bft) N 0 0 min 0,0 UV-I 0 W/m 5,2 C 6,4 C 0,0 km/h (0 Bft)
26.05.2020 01:16 6,3 C 3,3 C 92 % 1035,6 hPa 0,0 l/m 0,0 km/h (0 Bft) N 0 0 min 0,0 UV-I 0 W/m 5,1 C 6,3 C 0,0 km/h (0 Bft)
26.05.2020 01:17 6,3 C 3,3 C 92 % 1035,6 hPa 0,0 l/m 0,0 km/h (0 Bft) N 0 0 min 0,0 UV-I 0 W/m 5,1 C 6,3 C 0,0 km/h (0 Bft)
26.05.2020 01:18 6,3 C 3,3 C 92 % 1035,6 hPa 0,0 l/m 0,0 km/h (0 Bft) N 0 0 min 0,0 UV-I 0 W/m 5,1 C 6,3 C 0,0 km/h (0 Bft)
26.05.2020 01:19 6,3 C 3,3 C 92 % 1035,6 hPa 0,0 l/m 0,0 km/h (0 Bft) N-NW 337 0 min 0,0 UV-I 0 W/m 5,1 C 6,3 C 1,6 km/h (1 Bft)
26.05.2020 01:20 6,3 C 3,3 C 92 % 1035,5 hPa 0,0 l/m 0,0 km/h (0 Bft) N-NW 337 0 min 0,0 UV-I 0 W/m 5,1 C 6,3 C 1,6 km/h (1 Bft)
26.05.2020 01:21 6,3 C 3,3 C 92 % 1035,5 hPa 0,0 l/m 0,0 km/h (0 Bft) N-NW 337 0 min 0,0 UV-I 0 W/m 5,1 C 6,3 C 1,6 km/h (1 Bft)
26.05.2020 01:22 6,2 C 3,3 C 92 % 1035,6 hPa 0,0 l/m 0,0 km/h (0 Bft) N 0 0 min 0,0 UV-I 0 W/m 5,0 C 6,2 C 0,0 km/h (0 Bft)
26.05.2020 01:23 6,1 C 3,3 C 92 % 1035,6 hPa 0,0 l/m 0,0 km/h (0 Bft) N-NW 337 0 min 0,0 UV-I 0 W/m 4,9 C 6,1 C 1,6 km/h (1 Bft)
26.05.2020 01:24 5,9 C 3,3 C 92 % 1035,6 hPa 0,0 l/m 0,0 km/h (0 Bft) N 0 0 min 0,0 UV-I 0 W/m 4,7 C 5,9 C 0,0 km/h (0 Bft)
26.05.2020 01:25 5,9 C 2,8 C 92 % 1035,6 hPa 0,0 l/m 1,6 km/h (1 Bft) N-NW 337 0 min 0,0 UV-I 0 W/m 4,7 C 5,9 C 1,6 km/h (1 Bft)
26.05.2020 01:26 5,9 C 3,3 C 92 % 1035,6 hPa 0,0 l/m 1,6 km/h (1 Bft) N-NW 337 0 min 0,0 UV-I 0 W/m 4,7 C 5,9 C 1,6 km/h (1 Bft)
26.05.2020 01:27 5,9 C 2,8 C 93 % 1035,5 hPa 0,0 l/m 1,6 km/h (1 Bft) N-NW 337 0 min 0,0 UV-I 0 W/m 4,9 C 5,9 C 1,6 km/h (1 Bft)
26.05.2020 01:28 6,0 C 2,8 C 93 % 1035,6 hPa 0,0 l/m 1,6 km/h (1 Bft) N-NW 337 0 min 0,0 UV-I 0 W/m 5,0 C 6,0 C 1,6 km/h (1 Bft)
26.05.2020 01:29 5,9 C 2,8 C 92 % 1035,6 hPa 0,0 l/m 0,0 km/h (0 Bft) N-NW 337 0 min 0,0 UV-I 0 W/m 4,7 C 5,9 C 1,6 km/h (1 Bft)
26.05.2020 01:30 6,0 C 2,8 C 92 % 1035,6 hPa 0,0 l/m 0,0 km/h (0 Bft) N 0 0 min 0,0 UV-I 0 W/m 4,8 C 6,0 C 0,0 km/h (0 Bft)
26.05.2020 01:31 5,9 C 2,8 C 92 % 1035,6 hPa 0,0 l/m 1,6 km/h (1 Bft) N-NW 337 0 min 0,0 UV-I 0 W/m 4,7 C 5,9 C 1,6 km/h (1 Bft)
26.05.2020 01:32 5,9 C 2,8 C 92 % 1035,6 hPa 0,0 l/m 0,0 km/h (0 Bft) N-NW 337 0 min 0,0 UV-I 0 W/m 4,7 C 5,9 C 1,6 km/h (1 Bft)
26.05.2020 01:33 5,8 C 2,8 C 92 % 1035,6 hPa 0,0 l/m 0,0 km/h (0 Bft) N-NW 337 0 min 0,0 UV-I 0 W/m 4,6 C 5,8 C 1,6 km/h (1 Bft)
26.05.2020 01:34 5,8 C 2,8 C 92 % 1035,6 hPa 0,0 l/m 1,6 km/h (1 Bft) N-NW 337 0 min 0,0 UV-I 0 W/m 4,6 C 5,8 C 1,6 km/h (1 Bft)
26.05.2020 01:35 5,8 C 2,8 C 92 % 1035,6 hPa 0,0 l/m 1,6 km/h (1 Bft) N-NW 337 0 min 0,0 UV-I 0 W/m 4,6 C 5,8 C 1,6 km/h (1 Bft)
26.05.2020 01:36 5,8 C 2,8 C 92 % 1035,5 hPa 0,0 l/m 1,6 km/h (1 Bft) N-NW 337 0 min 0,0 UV-I 0 W/m 4,6 C 5,8 C 1,6 km/h (1 Bft)
26.05.2020 01:37 5,8 C 2,8 C 92 % 1035,5 hPa 0,0 l/m 1,6 km/h (1 Bft) N-NW 337 0 min 0,0 UV-I 0 W/m 4,6 C 5,8 C 1,6 km/h (1 Bft)
26.05.2020 01:38 5,8 C 2,8 C 92 % 1035,5 hPa 0,0 l/m 1,6 km/h (1 Bft) N-NW 337 0 min 0,0 UV-I 0 W/m 4,6 C 5,8 C 3,2 km/h (1 Bft)
26.05.2020 01:39 5,7 C 2,8 C 92 % 1035,6 hPa 0,0 l/m 1,6 km/h (1 Bft) N-NW 337 0 min 0,0 UV-I 0 W/m 4,5 C 5,7 C 3,2 km/h (1 Bft)
26.05.2020 01:40 5,7 C 2,8 C 92 % 1035,6 hPa 0,0 l/m 1,6 km/h (1 Bft) N-NW 337 0 min 0,0 UV-I 0 W/m 4,5 C 5,7 C 1,6 km/h (1 Bft)
26.05.2020 01:41 5,7 C 2,8 C 92 % 1035,6 hPa 0,0 l/m 0,0 km/h (0 Bft) N-NW 337 0 min 0,0 UV-I 0 W/m 4,5 C 5,7 C 1,6 km/h (1 Bft)
26.05.2020 01:42 5,6 C 2,8 C 92 % 1035,5 hPa 0,0 l/m 0,0 km/h (0 Bft) N-NW 337 0 min 0,0 UV-I 0 W/m 4,4 C 5,6 C 1,6 km/h (1 Bft)
26.05.2020 01:43 5,6 C 2,8 C 92 % 1035,6 hPa 0,0 l/m 0,0 km/h (0 Bft) N-NW 337 0 min 0,0 UV-I 0 W/m 4,4 C 5,6 C 1,6 km/h (1 Bft)
26.05.2020 01:44 5,6 C 2,8 C 92 % 1035,6 hPa 0,0 l/m 0,0 km/h (0 Bft) N 0 0 min 0,0 UV-I 0 W/m 4,4 C 5,6 C 0,0 km/h (0 Bft)
26.05.2020 01:45 5,6 C 2,8 C 92 % 1035,6 hPa 0,0 l/m 0,0 km/h (0 Bft) N-NW 337 0 min 0,0 UV-I 0 W/m 4,4 C 5,6 C 1,6 km/h (1 Bft)
26.05.2020 01:46 5,6 C 2,8 C 92 % 1035,6 hPa 0,0 l/m 0,0 km/h (0 Bft) N-NW 337 0 min 0,0 UV-I 0 W/m 4,4 C 5,6 C 1,6 km/h (1 Bft)
26.05.2020 01:47 5,6 C 2,8 C 92 % 1035,6 hPa 0,0 l/m 0,0 km/h (0 Bft) N 0 0 min 0,0 UV-I 0 W/m 4,4 C 5,6 C 0,0 km/h (0 Bft)
26.05.2020 01:48 5,5 C 2,8 C 92 % 1035,6 hPa 0,0 l/m 0,0 km/h (0 Bft) N 0 0 min 0,0 UV-I 0 W/m 4,3 C 5,5 C 0,0 km/h (0 Bft)
26.05.2020 01:49 5,5 C 2,8 C 92 % 1035,5 hPa 0,0 l/m 0,0 km/h (0 Bft) N-NW 337 0 min 0,0 UV-I 0 W/m 4,3 C 5,5 C 1,6 km/h (1 Bft)
26.05.2020 01:50 5,4 C 2,8 C 92 % 1035,6 hPa 0,0 l/m 0,0 km/h (0 Bft) N-NW 337 0 min 0,0 UV-I 0 W/m 4,2 C 5,4 C 1,6 km/h (1 Bft)
26.05.2020 01:51 5,4 C 2,8 C 92 % 1035,6 hPa 0,0 l/m 0,0 km/h (0 Bft) N 0 0 min 0,0 UV-I 0 W/m 4,2 C 5,4 C 0,0 km/h (0 Bft)
26.05.2020 01:52 5,3 C 2,8 C 92 % 1035,6 hPa 0,0 l/m 0,0 km/h (0 Bft) N 0 0 min 0,0 UV-I 0 W/m 4,1 C 5,3 C 0,0 km/h (0 Bft)
26.05.2020 01:53 5,4 C 2,2 C 92 % 1035,6 hPa 0,0 l/m 0,0 km/h (0 Bft) N 0 0 min 0,0 UV-I 0 W/m 4,2 C 5,4 C 0,0 km/h (0 Bft)
26.05.2020 01:54 5,4 C 2,2 C 93 % 1035,6 hPa 0,0 l/m 0,0 km/h (0 Bft) N 0 0 min 0,0 UV-I 0 W/m 4,4 C 5,4 C 0,0 km/h (0 Bft)
26.05.2020 01:55 5,4 C 2,2 C 93 % 1035,5 hPa 0,0 l/m 0,0 km/h (0 Bft) N 0 0 min 0,0 UV-I 0 W/m 4,4 C 5,4 C 0,0 km/h (0 Bft)
26.05.2020 01:56 5,4 C 2,2 C 93 % 1035,6 hPa 0,0 l/m 0,0 km/h (0 Bft) N 0 0 min 0,0 UV-I 0 W/m 4,4 C 5,4 C 0,0 km/h (0 Bft)
26.05.2020 01:57 5,5 C 2,2 C 93 % 1035,6 hPa 0,0 l/m 0,0 km/h (0 Bft) N 0 0 min 0,0 UV-I 0 W/m 4,5 C 5,5 C 0,0 km/h (0 Bft)
26.05.2020 01:58 5,5 C 2,2 C 93 % 1035,6 hPa 0,0 l/m 0,0 km/h (0 Bft) N 0 0 min 0,0 UV-I 0 W/m 4,5 C 5,5 C 0,0 km/h (0 Bft)
26.05.2020 01:59 5,6 C 2,2 C 93 % 1035,6 hPa 0,0 l/m 0,0 km/h (0 Bft) N 0 0 min 0,0 UV-I 0 W/m 4,6 C 5,6 C 0,0 km/h (0 Bft)
26.05.2020 02:00 5,6 C 2,8 C 93 % 1035,5 hPa 0,0 l/m 0,0 km/h (0 Bft) N-NW 337 0 min 0,0 UV-I 0 W/m 4,6 C 5,6 C 1,6 km/h (1 Bft)
26.05.2020 02:01 5,6 C 2,8 C 93 % 1035,5 hPa 0,0 l/m 0,0 km/h (0 Bft) N 0 0 min 0,0 UV-I 0 W/m 4,6 C 5,6 C 0,0 km/h (0 Bft)
26.05.2020 02:02 5,6 C 2,8 C 93 % 1035,6 hPa 0,0 l/m 0,0 km/h (0 Bft) N 0 0 min 0,0 UV-I 0 W/m 4,6 C 5,6 C 0,0 km/h (0 Bft)
26.05.2020 02:03 5,6 C 2,8 C 93 % 1035,6 hPa 0,0 l/m 0,0 km/h (0 Bft) N-NW 337 0 min 0,0 UV-I 0 W/m 4,6 C 5,6 C 1,6 km/h (1 Bft)
26.05.2020 02:04 5,7 C 2,8 C 93 % 1035,6 hPa 0,0 l/m 1,6 km/h (1 Bft) N-NW 337 0 min 0,0 UV-I 0 W/m 4,7 C 5,7 C 3,2 km/h (1 Bft)
26.05.2020 02:05 5,8 C 2,8 C 93 % 1035,6 hPa 0,0 l/m 1,6 km/h (1 Bft) N-NW 337 0 min 0,0 UV-I 0 W/m 4,8 C 5,8 C 3,2 km/h (1 Bft)
26.05.2020 02:06 5,8 C 2,8 C 93 % 1035,7 hPa 0,0 l/m 1,6 km/h (1 Bft) N-NW 337 0 min 0,0 UV-I 0 W/m 4,8 C 5,8 C 1,6 km/h (1 Bft)
26.05.2020 02:07 5,8 C 2,8 C 93 % 1035,5 hPa 0,0 l/m 0,0 km/h (0 Bft) N-NW 337 0 min 0,0 UV-I 0 W/m 4,8 C 5,8 C 1,6 km/h (1 Bft)
26.05.2020 02:08 5,9 C 2,2 C 93 % 1035,6 hPa 0,0 l/m 0,0 km/h (0 Bft) N-NW 337 0 min 0,0 UV-I 0 W/m 4,9 C 5,9 C 1,6 km/h (1 Bft)
26.05.2020 02:09 5,8 C 2,2 C 93 % 1035,7 hPa 0,0 l/m 0,0 km/h (0 Bft) N-NW 337 0 min 0,0 UV-I 0 W/m 4,8 C 5,8 C 1,6 km/h (1 Bft)
26.05.2020 02:10 5,7 C 2,8 C 93 % 1035,6 hPa 0,0 l/m 0,0 km/h (0 Bft) N 0 0 min 0,0 UV-I 0 W/m 4,7 C 5,7 C 0,0 km/h (0 Bft)
26.05.2020 02:11 5,6 C 2,2 C 92 % 1035,6 hPa 0,0 l/m 0,0 km/h (0 Bft) N 0 0 min 0,0 UV-I 0 W/m 4,4 C 5,6 C 0,0 km/h (0 Bft)
26.05.2020 02:12 5,5 C 2,2 C 92 % 1035,6 hPa 0,0 l/m 0,0 km/h (0 Bft) N 0 0 min 0,0 UV-I 0 W/m 4,3 C 5,5 C 0,0 km/h (0 Bft)
26.05.2020 02:13 5,4 C 2,2 C 92 % 1035,6 hPa 0,0 l/m 0,0 km/h (0 Bft) N 0 0 min 0,0 UV-I 0 W/m 4,2 C 5,4 C 0,0 km/h (0 Bft)
26.05.2020 02:14 5,4 C 2,2 C 92 % 1035,6 hPa 0,0 l/m 0,0 km/h (0 Bft) N 0 0 min 0,0 UV-I 0 W/m 4,2 C 5,4 C 0,0 km/h (0 Bft)
26.05.2020 02:15 5,3 C 2,2 C 92 % 1035,6 hPa 0,0 l/m 0,0 km/h (0 Bft) N 0 0 min 0,0 UV-I 0 W/m 4,1 C 5,3 C 0,0 km/h (0 Bft)
26.05.2020 02:16 5,3 C 2,2 C 92 % 1035,7 hPa 0,0 l/m 0,0 km/h (0 Bft) N 0 0 min 0,0 UV-I 0 W/m 4,1 C 5,3 C 0,0 km/h (0 Bft)
26.05.2020 02:17 5,2 C 2,2 C 92 % 1035,6 hPa 0,0 l/m 0,0 km/h (0 Bft) N 0 0 min 0,0 UV-I 0 W/m 4,0 C 5,2 C 0,0 km/h (0 Bft)
26.05.2020 02:18 5,2 C 2,2 C 92 % 1035,5 hPa 0,0 l/m 0,0 km/h (0 Bft) N 0 0 min 0,0 UV-I 0 W/m 4,0 C 5,2 C 0,0 km/h (0 Bft)
26.05.2020 02:19 5,2 C 2,8 C 93 % 1035,6 hPa 0,0 l/m 0,0 km/h (0 Bft) N 0 0 min 0,0 UV-I 0 W/m 4,2 C 5,2 C 0,0 km/h (0 Bft)
26.05.2020 02:20 5,2 C 2,8 C 93 % 1035,6 hPa 0,0 l/m 0,0 km/h (0 Bft) N 0 0 min 0,0 UV-I 0 W/m 4,2 C 5,2 C 0,0 km/h (0 Bft)
26.05.2020 02:21 5,2 C 2,2 C 93 % 1035,6 hPa 0,0 l/m 1,6 km/h (1 Bft) N-NW 337 0 min 0,0 UV-I 0 W/m 4,2 C 5,2 C 1,6 km/h (1 Bft)
26.05.2020 02:22 5,2 C 2,2 C 93 % 1035,6 hPa 0,0 l/m 0,0 km/h (0 Bft) N-NW 337 0 min 0,0 UV-I 0 W/m 4,2 C 5,2 C 1,6 km/h (1 Bft)
26.05.2020 02:23 5,2 C 2,2 C 93 % 1035,6 hPa 0,0 l/m 0,0 km/h (0 Bft) N-NW 337 0 min 0,0 UV-I 0 W/m 4,2 C 5,2 C 1,6 km/h (1 Bft)
26.05.2020 02:24 5,2 C 2,2 C 93 % 1035,6 hPa 0,0 l/m 0,0 km/h (0 Bft) N 0 0 min 0,0 UV-I 0 W/m 4,2 C 5,2 C 0,0 km/h (0 Bft)
26.05.2020 02:25 5,2 C 2,2 C 93 % 1035,6 hPa 0,0 l/m 0,0 km/h (0 Bft) N 0 0 min 0,0 UV-I 0 W/m 4,2 C 5,2 C 0,0 km/h (0 Bft)
26.05.2020 02:26 5,2 C 2,2 C 93 % 1035,6 hPa 0,0 l/m 0,0 km/h (0 Bft) N 0 0 min 0,0 UV-I 0 W/m 4,2 C 5,2 C 0,0 km/h (0 Bft)
26.05.2020 02:27 5,3 C 2,2 C 93 % 1035,6 hPa 0,0 l/m 0,0 km/h (0 Bft) N 0 0 min 0,0 UV-I 0 W/m 4,3 C 5,3 C 0,0 km/h (0 Bft)
26.05.2020 02:28 5,3 C 1,7 C 93 % 1035,6 hPa 0,0 l/m 0,0 km/h (0 Bft) N-NW 337 0 min 0,0 UV-I 0 W/m 4,3 C 5,3 C 1,6 km/h (1 Bft)
26.05.2020 02:29 5,3 C 1,7 C 93 % 1035,6 hPa 0,0 l/m 0,0 km/h (0 Bft) N-NW 337 0 min 0,0 UV-I 0 W/m 4,3 C 5,3 C 1,6 km/h (1 Bft)
26.05.2020 02:30 5,3 C 1,7 C 93 % 1035,7 hPa 0,0 l/m 0,0 km/h (0 Bft) N-NW 337 0 min 0,0 UV-I 0 W/m 4,3 C 5,3 C 1,6 km/h (1 Bft)
26.05.2020 02:31 5,3 C 1,7 C 93 % 1035,6 hPa 0,0 l/m 1,6 km/h (1 Bft) N-NW 337 0 min 0,0 UV-I 0 W/m 4,3 C 5,3 C 3,2 km/h (1 Bft)
26.05.2020 02:32 5,3 C 2,2 C 93 % 1035,6 hPa 0,0 l/m 1,6 km/h (1 Bft) N-NW 337 0 min 0,0 UV-I 0 W/m 4,3 C 5,3 C 3,2 km/h (1 Bft)
26.05.2020 02:33 5,4 C 2,2 C 93 % 1035,7 hPa 0,0 l/m 1,6 km/h (1 Bft) N-NW 337 0 min 0,0 UV-I 0 W/m 4,4 C 5,4 C 3,2 km/h (1 Bft)
26.05.2020 02:34 5,4 C 2,2 C 93 % 1035,6 hPa 0,0 l/m 1,6 km/h (1 Bft) N-NW 337 0 min 0,0 UV-I 0 W/m 4,4 C 5,4 C 1,6 km/h (1 Bft)
26.05.2020 02:35 5,4 C 2,2 C 93 % 1035,6 hPa 0,0 l/m 0,0 km/h (0 Bft) N-NW 337 0 min 0,0 UV-I 0 W/m 4,4 C 5,4 C 1,6 km/h (1 Bft)
26.05.2020 02:36 5,4 C 2,2 C 93 % 1035,6 hPa 0,0 l/m 0,0 km/h (0 Bft) N 0 0 min 0,0 UV-I 0 W/m 4,4 C 5,4 C 0,0 km/h (0 Bft)
26.05.2020 02:37 5,3 C 2,2 C 93 % 1035,6 hPa 0,0 l/m 0,0 km/h (0 Bft) N 0 0 min 0,0 UV-I 0 W/m 4,3 C 5,3 C 0,0 km/h (0 Bft)
26.05.2020 02:38 5,1 C 2,2 C 92 % 1035,7 hPa 0,0 l/m 0,0 km/h (0 Bft) N 0 0 min 0,0 UV-I 0 W/m 3,9 C 5,1 C 0,0 km/h (0 Bft)
26.05.2020 02:39 4,9 C 2,2 C 92 % 1035,6 hPa 0,0 l/m 0,0 km/h (0 Bft) N 0 0 min 0,0 UV-I 0 W/m 3,7 C 4,9 C 0,0 km/h (0 Bft)
26.05.2020 02:40 4,7 C 2,2 C 92 % 1035,6 hPa 0,0 l/m 0,0 km/h (0 Bft) N 0 0 min 0,0 UV-I 0 W/m 3,5 C 4,7 C 0,0 km/h (0 Bft)
26.05.2020 02:41 4,6 C 2,2 C 92 % 1035,7 hPa 0,0 l/m 0,0 km/h (0 Bft) N 0 0 min 0,0 UV-I 0 W/m 3,4 C 4,6 C 0,0 km/h (0 Bft)
26.05.2020 02:42 4,6 C 2,2 C 92 % 1035,7 hPa 0,0 l/m 0,0 km/h (0 Bft) N 0 0 min 0,0 UV-I 0 W/m 3,4 C 4,6 C 0,0 km/h (0 Bft)
26.05.2020 02:43 4,5 C 2,2 C 93 % 1035,7 hPa 0,0 l/m 0,0 km/h (0 Bft) N 0 0 min 0,0 UV-I 0 W/m 3,5 C 4,5 C 0,0 km/h (0 Bft)
26.05.2020 02:44 4,5 C 2,2 C 93 % 1035,7 hPa 0,0 l/m 0,0 km/h (0 Bft) N 0 0 min 0,0 UV-I 0 W/m 3,5 C 4,5 C 0,0 km/h (0 Bft)
26.05.2020 02:45 4,5 C 1,7 C 93 % 1035,7 hPa 0,0 l/m 0,0 km/h (0 Bft) N 0 0 min 0,0 UV-I 0 W/m 3,5 C 4,5 C 0,0 km/h (0 Bft)
26.05.2020 02:46 4,5 C 1,7 C 93 % 1035,7 hPa 0,0 l/m 0,0 km/h (0 Bft) N 0 0 min 0,0 UV-I 0 W/m 3,5 C 4,5 C 0,0 km/h (0 Bft)
26.05.2020 02:47 4,4 C 1,7 C 93 % 1035,8 hPa 0,0 l/m 0,0 km/h (0 Bft) N 0 0 min 0,0 UV-I 0 W/m 3,4 C 4,4 C 0,0 km/h (0 Bft)
26.05.2020 02:48 4,5 C 1,7 C 93 % 1035,8 hPa 0,0 l/m 0,0 km/h (0 Bft) N 0 0 min 0,0 UV-I 0 W/m 3,5 C 4,5 C 0,0 km/h (0 Bft)
26.05.2020 02:49 4,5 C 1,7 C 93 % 1035,7 hPa 0,0 l/m 0,0 km/h (0 Bft) N 0 0 min 0,0 UV-I 0 W/m 3,5 C 4,5 C 0,0 km/h (0 Bft)
26.05.2020 02:50 4,4 C 1,7 C 93 % 1035,7 hPa 0,0 l/m 0,0 km/h (0 Bft) N 0 0 min 0,0 UV-I 0 W/m 3,4 C 4,4 C 0,0 km/h (0 Bft)
26.05.2020 02:51 4,5 C 1,7 C 93 % 1035,8 hPa 0,0 l/m 0,0 km/h (0 Bft) N 0 0 min 0,0 UV-I 0 W/m 3,5 C 4,5 C 0,0 km/h (0 Bft)
26.05.2020 02:52 4,6 C 1,7 C 93 % 1035,8 hPa 0,0 l/m 0,0 km/h (0 Bft) N 0 0 min 0,0 UV-I 0 W/m 3,6 C 4,6 C 0,0 km/h (0 Bft)
26.05.2020 02:53 4,6 C 1,7 C 93 % 1035,8 hPa 0,0 l/m 0,0 km/h (0 Bft) N 0 0 min 0,0 UV-I 0 W/m 3,6 C 4,6 C 0,0 km/h (0 Bft)
26.05.2020 02:54 4,6 C 1,7 C 93 % 1035,8 hPa 0,0 l/m 0,0 km/h (0 Bft) N 0 0 min 0,0 UV-I 0 W/m 3,6 C 4,6 C 0,0 km/h (0 Bft)
26.05.2020 02:55 4,7 C 2,2 C 94 % 1035,8 hPa 0,0 l/m 0,0 km/h (0 Bft) N 0 0 min 0,0 UV-I 0 W/m 3,8 C 4,7 C 0,0 km/h (0 Bft)
26.05.2020 02:56 4,8 C 2,2 C 94 % 1035,8 hPa 0,0 l/m 0,0 km/h (0 Bft) N 0 0 min 0,0 UV-I 0 W/m 3,9 C 4,8 C 0,0 km/h (0 Bft)
26.05.2020 02:57 4,8 C 1,7 C 94 % 1035,9 hPa 0,0 l/m 0,0 km/h (0 Bft) N 0 0 min 0,0 UV-I 0 W/m 3,9 C 4,8 C 0,0 km/h (0 Bft)
26.05.2020 02:58 4,9 C 1,7 C 94 % 1035,7 hPa 0,0 l/m 0,0 km/h (0 Bft) N 0 0 min 0,0 UV-I 0 W/m 4,0 C 4,9 C 0,0 km/h (0 Bft)
26.05.2020 02:59 4,9 C 1,7 C 94 % 1035,8 hPa 0,0 l/m 0,0 km/h (0 Bft) N 0 0 min 0,0 UV-I 0 W/m 4,0 C 4,9 C 0,0 km/h (0 Bft)
26.05.2020 03:00 4,9 C 1,7 C 93 % 1035,7 hPa 0,0 l/m 0,0 km/h (0 Bft) N 0 0 min 0,0 UV-I 0 W/m 3,9 C 4,9 C 0,0 km/h (0 Bft)
26.05.2020 03:01 4,9 C 1,7 C 94 % 1035,9 hPa 0,0 l/m 0,0 km/h (0 Bft) N 0 0 min 0,0 UV-I 0 W/m 4,0 C 4,9 C 0,0 km/h (0 Bft)
26.05.2020 03:02 4,8 C 1,7 C 94 % 1035,8 hPa 0,0 l/m 0,0 km/h (0 Bft) N 0 0 min 0,0 UV-I 0 W/m 3,9 C 4,8 C 0,0 km/h (0 Bft)
26.05.2020 03:03 4,8 C 1,7 C 93 % 1035,8 hPa 0,0 l/m 0,0 km/h (0 Bft) N 0 0 min 0,0 UV-I 0 W/m 3,8 C 4,8 C 0,0 km/h (0 Bft)
26.05.2020 03:04 4,8 C 1,7 C 93 % 1035,7 hPa 0,0 l/m 0,0 km/h (0 Bft) N 0 0 min 0,0 UV-I 0 W/m 3,8 C 4,8 C 0,0 km/h (0 Bft)
26.05.2020 03:05 4,7 C 1,7 C 93 % 1035,7 hPa 0,0 l/m 0,0 km/h (0 Bft) N 0 0 min 0,0 UV-I 0 W/m 3,7 C 4,7 C 0,0 km/h (0 Bft)
26.05.2020 03:06 4,7 C 1,7 C 93 % 1035,7 hPa 0,0 l/m 0,0 km/h (0 Bft) N 0 0 min 0,0 UV-I 0 W/m 3,7 C 4,7 C 0,0 km/h (0 Bft)
26.05.2020 03:07 4,7 C 1,7 C 93 % 1035,8 hPa 0,0 l/m 0,0 km/h (0 Bft) N 0 0 min 0,0 UV-I 0 W/m 3,7 C 4,7 C 0,0 km/h (0 Bft)
26.05.2020 03:08 4,7 C 1,7 C 93 % 1035,8 hPa 0,0 l/m 0,0 km/h (0 Bft) N 0 0 min 0,0 UV-I 0 W/m 3,7 C 4,7 C 0,0 km/h (0 Bft)
26.05.2020 03:09 4,6 C 1,7 C 93 % 1035,7 hPa 0,0 l/m 0,0 km/h (0 Bft) N 0 0 min 0,0 UV-I 0 W/m 3,6 C 4,6 C 0,0 km/h (0 Bft)
26.05.2020 03:10 4,6 C 1,7 C 93 % 1035,8 hPa 0,0 l/m 0,0 km/h (0 Bft) N 0 0 min 0,0 UV-I 0 W/m 3,6 C 4,6 C 0,0 km/h (0 Bft)
26.05.2020 03:11 4,7 C 1,7 C 94 % 1035,7 hPa 0,0 l/m 0,0 km/h (0 Bft) N 0 0 min 0,0 UV-I 0 W/m 3,8 C 4,7 C 0,0 km/h (0 Bft)
26.05.2020 03:12 4,7 C 1,7 C 94 % 1035,8 hPa 0,0 l/m 0,0 km/h (0 Bft) N 0 0 min 0,0 UV-I 0 W/m 3,8 C 4,7 C 0,0 km/h (0 Bft)
26.05.2020 03:13 4,7 C 1,7 C 94 % 1035,7 hPa 0,0 l/m 0,0 km/h (0 Bft) N 0 0 min 0,0 UV-I 0 W/m 3,8 C 4,7 C 0,0 km/h (0 Bft)
26.05.2020 03:14 4,7 C 1,7 C 94 % 1035,8 hPa 0,0 l/m 0,0 km/h (0 Bft) N 0 0 min 0,0 UV-I 0 W/m 3,8 C 4,7 C 0,0 km/h (0 Bft)
26.05.2020 03:15 4,6 C 1,7 C 94 % 1035,7 hPa 0,0 l/m 0,0 km/h (0 Bft) N 0 0 min 0,0 UV-I 0 W/m 3,7 C 4,6 C 0,0 km/h (0 Bft)
26.05.2020 03:16 4,6 C 1,7 C 94 % 1035,7 hPa 0,0 l/m 0,0 km/h (0 Bft) N 0 0 min 0,0 UV-I 0 W/m 3,7 C 4,6 C 0,0 km/h (0 Bft)
26.05.2020 03:17 4,6 C 1,7 C 94 % 1035,7 hPa 0,0 l/m 0,0 km/h (0 Bft) N 0 0 min 0,0 UV-I 0 W/m 3,7 C 4,6 C 0,0 km/h (0 Bft)
26.05.2020 03:18 4,6 C 1,7 C 93 % 1035,7 hPa 0,0 l/m 0,0 km/h (0 Bft) N 0 0 min 0,0 UV-I 0 W/m 3,6 C 4,6 C 0,0 km/h (0 Bft)
26.05.2020 03:19 4,4 C 1,7 C 93 % 1035,8 hPa 0,0 l/m 0,0 km/h (0 Bft) N 0 0 min 0,0 UV-I 0 W/m 3,4 C 4,4 C 0,0 km/h (0 Bft)
26.05.2020 03:20 4,4 C 1,7 C 93 % 1035,8 hPa 0,0 l/m 0,0 km/h (0 Bft) N 0 0 min 0,0 UV-I 0 W/m 3,4 C 4,4 C 0,0 km/h (0 Bft)
26.05.2020 03:21 4,4 C 1,7 C 93 % 1035,7 hPa 0,0 l/m 0,0 km/h (0 Bft) N 0 0 min 0,0 UV-I 0 W/m 3,4 C 4,4 C 0,0 km/h (0 Bft)
26.05.2020 03:22 4,3 C 1,7 C 93 % 1035,8 hPa 0,0 l/m 0,0 km/h (0 Bft) N 0 0 min 0,0 UV-I 0 W/m 3,3 C 4,3 C 0,0 km/h (0 Bft)
26.05.2020 03:23 4,3 C 1,7 C 93 % 1035,8 hPa 0,0 l/m 0,0 km/h (0 Bft) N 0 0 min 0,0 UV-I 0 W/m 3,3 C 4,3 C 0,0 km/h (0 Bft)
26.05.2020 03:24 4,3 C 1,1 C 93 % 1035,7 hPa 0,0 l/m 0,0 km/h (0 Bft) N 0 0 min 0,0 UV-I 0 W/m 3,3 C 4,3 C 0,0 km/h (0 Bft)
26.05.2020 03:25 4,3 C 1,7 C 94 % 1035,8 hPa 0,0 l/m 0,0 km/h (0 Bft) N 0 0 min 0,0 UV-I 0 W/m 3,4 C 4,3 C 0,0 km/h (0 Bft)
26.05.2020 03:26 4,3 C 1,7 C 93 % 1035,8 hPa 0,0 l/m 0,0 km/h (0 Bft) N 0 0 min 0,0 UV-I 0 W/m 3,3 C 4,3 C 0,0 km/h (0 Bft)
26.05.2020 03:27 4,2 C 1,1 C 94 % 1035,8 hPa 0,0 l/m 0,0 km/h (0 Bft) N 0 0 min 0,0 UV-I 0 W/m 3,3 C 4,2 C 0,0 km/h (0 Bft)
26.05.2020 03:28 4,3 C 1,1 C 94 % 1035,8 hPa 0,0 l/m 0,0 km/h (0 Bft) N 0 0 min 0,0 UV-I 0 W/m 3,4 C 4,3 C 0,0 km/h (0 Bft)
26.05.2020 03:29 4,3 C 1,1 C 94 % 1035,8 hPa 0,0 l/m 0,0 km/h (0 Bft) N 0 0 min 0,0 UV-I 0 W/m 3,4 C 4,3 C 0,0 km/h (0 Bft)
26.05.2020 03:30 4,3 C 1,7 C 94 % 1035,8 hPa 0,0 l/m 0,0 km/h (0 Bft) N 0 0 min 0,0 UV-I 0 W/m 3,4 C 4,3 C 0,0 km/h (0 Bft)
26.05.2020 03:31 4,3 C 1,1 C 94 % 1035,8 hPa 0,0 l/m 0,0 km/h (0 Bft) N 0 0 min 0,0 UV-I 0 W/m 3,4 C 4,3 C 0,0 km/h (0 Bft)
26.05.2020 03:32 4,3 C 1,1 C 94 % 1035,8 hPa 0,0 l/m 0,0 km/h (0 Bft) N 0 0 min 0,0 UV-I 0 W/m 3,4 C 4,3 C 0,0 km/h (0 Bft)
26.05.2020 03:33 4,3 C 1,1 C 94 % 1035,8 hPa 0,0 l/m 0,0 km/h (0 Bft) N 0 0 min 0,0 UV-I 0 W/m 3,4 C 4,3 C 0,0 km/h (0 Bft)
26.05.2020 03:34 4,3 C 1,1 C 94 % 1035,8 hPa 0,0 l/m 0,0 km/h (0 Bft) N 0 0 min 0,0 UV-I 0 W/m 3,4 C 4,3 C 0,0 km/h (0 Bft)
26.05.2020 03:35 4,3 C 1,1 C 94 % 1035,8 hPa 0,0 l/m 0,0 km/h (0 Bft) N 0 0 min 0,0 UV-I 0 W/m 3,4 C 4,3 C 0,0 km/h (0 Bft)
26.05.2020 03:36 4,3 C 1,1 C 94 % 1035,8 hPa 0,0 l/m 0,0 km/h (0 Bft) N 0 0 min 0,0 UV-I 0 W/m 3,4 C 4,3 C 0,0 km/h (0 Bft)
26.05.2020 03:37 4,3 C 1,1 C 94 % 1035,8 hPa 0,0 l/m 0,0 km/h (0 Bft) N 0 0 min 0,0 UV-I 0 W/m 3,4 C 4,3 C 0,0 km/h (0 Bft)
26.05.2020 03:38 4,4 C 1,1 C 94 % 1035,8 hPa 0,0 l/m 0,0 km/h (0 Bft) N 0 0 min 0,0 UV-I 0 W/m 3,5 C 4,4 C 0,0 km/h (0 Bft)
26.05.2020 03:39 4,4 C 1,7 C 94 % 1035,9 hPa 0,0 l/m 0,0 km/h (0 Bft) N 0 0 min 0,0 UV-I 0 W/m 3,5 C 4,4 C 0,0 km/h (0 Bft)
26.05.2020 03:40 4,4 C 1,7 C 94 % 1035,8 hPa 0,0 l/m 0,0 km/h (0 Bft) N 0 0 min 0,0 UV-I 0 W/m 3,5 C 4,4 C 0,0 km/h (0 Bft)
26.05.2020 03:41 4,4 C 1,7 C 94 % 1035,8 hPa 0,0 l/m 0,0 km/h (0 Bft) N 0 0 min 0,0 UV-I 0 W/m 3,5 C 4,4 C 0,0 km/h (0 Bft)
26.05.2020 03:42 4,4 C 1,7 C 94 % 1035,7 hPa 0,0 l/m 0,0 km/h (0 Bft) N-NW 337 0 min 0,0 UV-I 0 W/m 3,5 C 4,4 C 1,6 km/h (1 Bft)
26.05.2020 03:43 4,5 C 1,7 C 94 % 1035,7 hPa 0,0 l/m 0,0 km/h (0 Bft) N-NW 337 0 min 0,0 UV-I 0 W/m 3,6 C 4,5 C 1,6 km/h (1 Bft)
26.05.2020 03:44 4,6 C 1,7 C 94 % 1035,7 hPa 0,0 l/m 0,0 km/h (0 Bft) N-NW 337 0 min 0,0 UV-I 0 W/m 3,7 C 4,6 C 1,6 km/h (1 Bft)
26.05.2020 03:45 4,6 C 1,7 C 94 % 1035,7 hPa 0,0 l/m 1,6 km/h (1 Bft) N-NW 337 0 min 0,0 UV-I 0 W/m 3,7 C 4,6 C 3,2 km/h (1 Bft)
26.05.2020 03:46 4,7 C 1,7 C 94 % 1035,7 hPa 0,0 l/m 1,6 km/h (1 Bft) N-NW 337 0 min 0,0 UV-I 0 W/m 3,8 C 4,7 C 3,2 km/h (1 Bft)
26.05.2020 03:47 4,7 C 1,7 C 94 % 1035,8 hPa 0,0 l/m 1,6 km/h (1 Bft) N-NW 337 0 min 0,0 UV-I 0 W/m 3,8 C 4,7 C 3,2 km/h (1 Bft)
26.05.2020 03:48 4,7 C 1,7 C 94 % 1035,7 hPa 0,0 l/m 1,6 km/h (1 Bft) N-NW 337 0 min 0,0 UV-I 0 W/m 3,8 C 4,7 C 3,2 km/h (1 Bft)
26.05.2020 03:49 4,7 C 2,2 C 94 % 1035,7 hPa 0,0 l/m 1,6 km/h (1 Bft) N-NW 337 0 min 0,0 UV-I 0 W/m 3,8 C 4,7 C 3,2 km/h (1 Bft)
26.05.2020 03:50 4,7 C 1,7 C 94 % 1035,7 hPa 0,0 l/m 0,0 km/h (0 Bft) N-NW 337 0 min 0,0 UV-I 0 W/m 3,8 C 4,7 C 1,6 km/h (1 Bft)
26.05.2020 03:51 4,6 C 1,7 C 94 % 1035,8 hPa 0,0 l/m 0,0 km/h (0 Bft) N 0 0 min 0,0 UV-I 0 W/m 3,7 C 4,6 C 0,0 km/h (0 Bft)
26.05.2020 03:52 4,3 C 1,7 C 93 % 1035,7 hPa 0,0 l/m 0,0 km/h (0 Bft) N 0 0 min 0,0 UV-I 0 W/m 3,3 C 4,3 C 0,0 km/h (0 Bft)
26.05.2020 03:53 4,2 C 1,7 C 93 % 1035,7 hPa 0,0 l/m 0,0 km/h (0 Bft) N 0 0 min 0,0 UV-I 0 W/m 3,2 C 4,2 C 0,0 km/h (0 Bft)
26.05.2020 03:54 4,0 C 1,1 C 93 % 1035,7 hPa 0,0 l/m 0,0 km/h (0 Bft) N 0 0 min 0,0 UV-I 0 W/m 3,0 C 4,0 C 0,0 km/h (0 Bft)
26.05.2020 03:55 3,9 C 1,1 C 93 % 1035,7 hPa 0,0 l/m 0,0 km/h (0 Bft) N 0 0 min 0,0 UV-I 0 W/m 2,9 C 3,9 C 0,0 km/h (0 Bft)
26.05.2020 03:56 3,8 C 1,1 C 93 % 1035,7 hPa 0,0 l/m 0,0 km/h (0 Bft) N 0 0 min 0,0 UV-I 0 W/m 2,8 C 3,8 C 0,0 km/h (0 Bft)
26.05.2020 03:57 3,7 C 1,1 C 93 % 1035,6 hPa 0,0 l/m 0,0 km/h (0 Bft) N 0 0 min 0,0 UV-I 0 W/m 2,7 C 3,7 C 0,0 km/h (0 Bft)
26.05.2020 03:58 3,7 C 1,1 C 93 % 1035,7 hPa 0,0 l/m 0,0 km/h (0 Bft) N 0 0 min 0,0 UV-I 0 W/m 2,7 C 3,7 C 0,0 km/h (0 Bft)
26.05.2020 03:59 3,7 C 1,1 C 93 % 1035,7 hPa 0,0 l/m 0,0 km/h (0 Bft) N 0 0 min 0,0 UV-I 0 W/m 2,7 C 3,7 C 0,0 km/h (0 Bft)
26.05.2020 04:00 3,6 C 1,1 C 93 % 1035,8 hPa 0,0 l/m 0,0 km/h (0 Bft) N 0 0 min 0,0 UV-I 0 W/m 2,6 C 3,6 C 0,0 km/h (0 Bft)
26.05.2020 04:01 3,7 C 1,1 C 94 % 1035,7 hPa 0,0 l/m 0,0 km/h (0 Bft) N 0 0 min 0,0 UV-I 0 W/m 2,8 C 3,7 C 0,0 km/h (0 Bft)
26.05.2020 04:02 3,6 C 1,1 C 94 % 1035,7 hPa 0,0 l/m 0,0 km/h (0 Bft) N 0 0 min 0,0 UV-I 0 W/m 2,7 C 3,6 C 0,0 km/h (0 Bft)
26.05.2020 04:03 3,6 C 1,1 C 94 % 1035,8 hPa 0,0 l/m 0,0 km/h (0 Bft) N 0 0 min 0,0 UV-I 0 W/m 2,7 C 3,6 C 0,0 km/h (0 Bft)
26.05.2020 04:04 3,6 C 1,1 C 94 % 1035,7 hPa 0,0 l/m 0,0 km/h (0 Bft) N 0 0 min 0,0 UV-I 0 W/m 2,7 C 3,6 C 0,0 km/h (0 Bft)
26.05.2020 04:05 3,6 C 1,1 C 94 % 1035,8 hPa 0,0 l/m 0,0 km/h (0 Bft) N 0 0 min 0,0 UV-I 0 W/m 2,7 C 3,6 C 0,0 km/h (0 Bft)
26.05.2020 04:06 3,6 C 1,1 C 94 % 1035,8 hPa 0,0 l/m 0,0 km/h (0 Bft) N 0 0 min 0,0 UV-I 0 W/m 2,7 C 3,6 C 0,0 km/h (0 Bft)
26.05.2020 04:07 3,6 C 1,1 C 94 % 1035,7 hPa 0,0 l/m 0,0 km/h (0 Bft) N 0 0 min 0,0 UV-I 0 W/m 2,7 C 3,6 C 0,0 km/h (0 Bft)
26.05.2020 04:08 3,7 C 1,1 C 94 % 1035,6 hPa 0,0 l/m 0,0 km/h (0 Bft) N 0 0 min 0,0 UV-I 0 W/m 2,8 C 3,7 C 0,0 km/h (0 Bft)
26.05.2020 04:09 3,7 C 1,1 C 94 % 1035,7 hPa 0,0 l/m 0,0 km/h (0 Bft) N 0 0 min 0,0 UV-I 0 W/m 2,8 C 3,7 C 0,0 km/h (0 Bft)
26.05.2020 04:10 3,7 C 1,1 C 94 % 1035,7 hPa 0,0 l/m 0,0 km/h (0 Bft) N 0 0 min 0,0 UV-I 0 W/m 2,8 C 3,7 C 0,0 km/h (0 Bft)
26.05.2020 04:11 3,7 C 1,1 C 94 % 1035,7 hPa 0,0 l/m 0,0 km/h (0 Bft) N 0 0 min 0,0 UV-I 0 W/m 2,8 C 3,7 C 0,0 km/h (0 Bft)
26.05.2020 04:12 3,7 C 1,1 C 94 % 1035,7 hPa 0,0 l/m 0,0 km/h (0 Bft) N 0 0 min 0,0 UV-I 0 W/m 2,8 C 3,7 C 0,0 km/h (0 Bft)
26.05.2020 04:13 3,8 C 1,1 C 94 % 1035,7 hPa 0,0 l/m 0,0 km/h (0 Bft) N 0 0 min 0,0 UV-I 0 W/m 2,9 C 3,8 C 0,0 km/h (0 Bft)
26.05.2020 04:14 3,8 C 1,1 C 94 % 1035,7 hPa 0,0 l/m 0,0 km/h (0 Bft) N 0 0 min 0,0 UV-I 0 W/m 2,9 C 3,8 C 0,0 km/h (0 Bft)
26.05.2020 04:15 3,9 C 1,1 C 94 % 1035,7 hPa 0,0 l/m 0,0 km/h (0 Bft) N 0 0 min 0,0 UV-I 0 W/m 3,0 C 3,9 C 0,0 km/h (0 Bft)
26.05.2020 04:16 3,8 C 1,1 C 94 % 1035,7 hPa 0,0 l/m 0,0 km/h (0 Bft) N 0 0 min 0,0 UV-I 0 W/m 2,9 C 3,8 C 0,0 km/h (0 Bft)
26.05.2020 04:17 3,8 C 1,1 C 94 % 1035,8 hPa 0,0 l/m 0,0 km/h (0 Bft) N 0 0 min 0,0 UV-I 0 W/m 2,9 C 3,8 C 0,0 km/h (0 Bft)
26.05.2020 04:18 3,8 C 1,1 C 94 % 1035,7 hPa 0,0 l/m 0,0 km/h (0 Bft) N 0 0 min 0,0 UV-I 0 W/m 2,9 C 3,8 C 0,0 km/h (0 Bft)
26.05.2020 04:19 3,8 C 0,6 C 94 % 1035,7 hPa 0,0 l/m 0,0 km/h (0 Bft) N 0 0 min 0,0 UV-I 0 W/m 2,9 C 3,8 C 0,0 km/h (0 Bft)
26.05.2020 04:20 3,7 C 0,6 C 94 % 1035,8 hPa 0,0 l/m 0,0 km/h (0 Bft) N 0 0 min 0,0 UV-I 0 W/m 2,8 C 3,7 C 0,0 km/h (0 Bft)
26.05.2020 04:21 3,7 C 0,6 C 94 % 1035,8 hPa 0,0 l/m 0,0 km/h (0 Bft) N 0 0 min 0,0 UV-I 0 W/m 2,8 C 3,7 C 0,0 km/h (0 Bft)
26.05.2020 04:22 3,7 C 0,6 C 94 % 1035,8 hPa 0,0 l/m 0,0 km/h (0 Bft) N 0 0 min 0,0 UV-I 0 W/m 2,8 C 3,7 C 0,0 km/h (0 Bft)
26.05.2020 04:23 3,6 C 0,6 C 94 % 1035,7 hPa 0,0 l/m 0,0 km/h (0 Bft) N 0 0 min 0,0 UV-I 0 W/m 2,7 C 3,6 C 0,0 km/h (0 Bft)
26.05.2020 04:24 3,6 C 0,6 C 94 % 1035,7 hPa 0,0 l/m 0,0 km/h (0 Bft) N 0 0 min 0,0 UV-I 0 W/m 2,7 C 3,6 C 0,0 km/h (0 Bft)
26.05.2020 04:25 3,6 C 0,6 C 94 % 1035,8 hPa 0,0 l/m 0,0 km/h (0 Bft) N 0 0 min 0,0 UV-I 0 W/m 2,7 C 3,6 C 0,0 km/h (0 Bft)
26.05.2020 04:26 3,6 C 0,6 C 94 % 1035,8 hPa 0,0 l/m 0,0 km/h (0 Bft) N 0 0 min 0,0 UV-I 0 W/m 2,7 C 3,6 C 0,0 km/h (0 Bft)
26.05.2020 04:27 3,6 C 0,6 C 94 % 1035,8 hPa 0,0 l/m 0,0 km/h (0 Bft) N 0 0 min 0,0 UV-I 0 W/m 2,7 C 3,6 C 0,0 km/h (0 Bft)
26.05.2020 04:28 3,6 C 0,6 C 94 % 1035,7 hPa 0,0 l/m 0,0 km/h (0 Bft) N 0 0 min 0,0 UV-I 0 W/m 2,7 C 3,6 C 0,0 km/h (0 Bft)
26.05.2020 04:29 3,6 C 0,6 C 94 % 1035,7 hPa 0,0 l/m 0,0 km/h (0 Bft) N 0 0 min 0,0 UV-I 0 W/m 2,7 C 3,6 C 0,0 km/h (0 Bft)
26.05.2020 04:30 3,7 C 1,1 C 94 % 1035,7 hPa 0,0 l/m 0,0 km/h (0 Bft) N 0 0 min 0,0 UV-I 0 W/m 2,8 C 3,7 C 0,0 km/h (0 Bft)
26.05.2020 04:31 3,7 C 1,1 C 94 % 1035,7 hPa 0,0 l/m 0,0 km/h (0 Bft) N-NW 337 0 min 0,0 UV-I 0 W/m 2,8 C 3,7 C 1,6 km/h (1 Bft)
26.05.2020 04:32 3,7 C 1,1 C 94 % 1035,8 hPa 0,0 l/m 0,0 km/h (0 Bft) N-NW 337 0 min 0,0 UV-I 0 W/m 2,8 C 3,7 C 1,6 km/h (1 Bft)
26.05.2020 04:33 3,7 C 1,1 C 94 % 1035,8 hPa 0,0 l/m 1,6 km/h (1 Bft) N-NW 337 0 min 0,0 UV-I 0 W/m 2,8 C 3,7 C 3,2 km/h (1 Bft)
26.05.2020 04:34 3,7 C 1,7 C 94 % 1035,8 hPa 0,0 l/m 1,6 km/h (1 Bft) N-NW 337 0 min 0,0 UV-I 0 W/m 2,8 C 3,7 C 1,6 km/h (1 Bft)
26.05.2020 04:35 3,8 C 1,7 C 94 % 1035,7 hPa 0,0 l/m 1,6 km/h (1 Bft) N-NW 337 0 min 0,0 UV-I 0 W/m 2,9 C 3,8 C 1,6 km/h (1 Bft)
26.05.2020 04:36 3,9 C 1,7 C 94 % 1035,8 hPa 0,0 l/m 0,0 km/h (0 Bft) N-NW 337 0 min 0,0 UV-I 0 W/m 3,0 C 3,9 C 1,6 km/h (1 Bft)
26.05.2020 04:37 3,9 C 1,7 C 94 % 1035,8 hPa 0,0 l/m 0,0 km/h (0 Bft) N-NW 337 0 min 0,0 UV-I 0 W/m 3,0 C 3,9 C 1,6 km/h (1 Bft)
26.05.2020 04:38 4,0 C 1,7 C 94 % 1035,8 hPa 0,0 l/m 0,0 km/h (0 Bft) N 0 0 min 0,0 UV-I 0 W/m 3,1 C 4,0 C 0,0 km/h (0 Bft)
26.05.2020 04:39 4,0 C 1,7 C 94 % 1035,8 hPa 0,0 l/m 0,0 km/h (0 Bft) N 0 0 min 0,0 UV-I 0 W/m 3,1 C 4,0 C 0,0 km/h (0 Bft)
26.05.2020 04:40 3,8 C 1,1 C 94 % 1035,8 hPa 0,0 l/m 0,0 km/h (0 Bft) N 0 0 min 0,0 UV-I 0 W/m 2,9 C 3,8 C 0,0 km/h (0 Bft)
26.05.2020 04:41 3,6 C 1,1 C 93 % 1035,8 hPa 0,0 l/m 0,0 km/h (0 Bft) N 0 0 min 0,0 UV-I 0 W/m 2,6 C 3,6 C 0,0 km/h (0 Bft)
26.05.2020 04:42 3,4 C 1,1 C 93 % 1035,8 hPa 0,0 l/m 0,0 km/h (0 Bft) N 0 0 min 0,0 UV-I 0 W/m 2,4 C 3,4 C 0,0 km/h (0 Bft)
26.05.2020 04:43 3,3 C 1,1 C 93 % 1035,9 hPa 0,0 l/m 0,0 km/h (0 Bft) N 0 0 min 0,0 UV-I 0 W/m 2,3 C 3,3 C 0,0 km/h (0 Bft)
26.05.2020 04:44 3,2 C 1,1 C 93 % 1035,8 hPa 0,0 l/m 0,0 km/h (0 Bft) N 0 0 min 0,0 UV-I 0 W/m 2,2 C 3,2 C 0,0 km/h (0 Bft)
26.05.2020 04:45 3,2 C 1,1 C 93 % 1035,8 hPa 0,0 l/m 0,0 km/h (0 Bft) N 0 0 min 0,0 UV-I 0 W/m 2,2 C 3,2 C 0,0 km/h (0 Bft)
26.05.2020 04:46 3,1 C 1,1 C 93 % 1035,8 hPa 0,0 l/m 0,0 km/h (0 Bft) N 0 0 min 0,0 UV-I 0 W/m 2,1 C 3,1 C 0,0 km/h (0 Bft)
26.05.2020 04:47 3,1 C 1,1 C 94 % 1035,8 hPa 0,0 l/m 0,0 km/h (0 Bft) N 0 0 min 0,0 UV-I 0 W/m 2,2 C 3,1 C 0,0 km/h (0 Bft)
26.05.2020 04:48 3,2 C 1,1 C 94 % 1035,9 hPa 0,0 l/m 0,0 km/h (0 Bft) N 0 0 min 0,0 UV-I 0 W/m 2,3 C 3,2 C 0,0 km/h (0 Bft)
26.05.2020 04:49 3,2 C 1,1 C 94 % 1035,8 hPa 0,0 l/m 0,0 km/h (0 Bft) N 0 0 min 0,0 UV-I 0 W/m 2,3 C 3,2 C 0,0 km/h (0 Bft)
26.05.2020 04:50 3,3 C 1,1 C 94 % 1035,9 hPa 0,0 l/m 0,0 km/h (0 Bft) N 0 0 min 0,0 UV-I 0 W/m 2,4 C 3,3 C 0,0 km/h (0 Bft)
26.05.2020 04:51 3,4 C 1,1 C 94 % 1035,9 hPa 0,0 l/m 0,0 km/h (0 Bft) N 0 0 min 0,0 UV-I 0 W/m 2,5 C 3,4 C 0,0 km/h (0 Bft)
26.05.2020 04:52 3,5 C 1,1 C 94 % 1035,8 hPa 0,0 l/m 0,0 km/h (0 Bft) N 0 0 min 0,0 UV-I 0 W/m 2,6 C 3,5 C 0,0 km/h (0 Bft)
26.05.2020 04:53 3,6 C 1,1 C 95 % 1035,8 hPa 0,0 l/m 0,0 km/h (0 Bft) N 0 0 min 0,0 UV-I 0 W/m 2,9 C 3,6 C 0,0 km/h (0 Bft)
26.05.2020 04:54 3,6 C 0,6 C 94 % 1035,9 hPa 0,0 l/m 0,0 km/h (0 Bft) N 0 0 min 0,0 UV-I 0 W/m 2,7 C 3,6 C 0,0 km/h (0 Bft)
26.05.2020 04:55 3,5 C 0,6 C 94 % 1035,9 hPa 0,0 l/m 0,0 km/h (0 Bft) N 0 0 min 0,0 UV-I 0 W/m 2,6 C 3,5 C 0,0 km/h (0 Bft)
26.05.2020 04:56 3,4 C 0,6 C 94 % 1035,9 hPa 0,0 l/m 0,0 km/h (0 Bft) N 0 0 min 0,0 UV-I 0 W/m 2,5 C 3,4 C 0,0 km/h (0 Bft)
26.05.2020 04:57 3,3 C 1,1 C 94 % 1035,8 hPa 0,0 l/m 0,0 km/h (0 Bft) N 0 0 min 0,0 UV-I 0 W/m 2,4 C 3,3 C 0,0 km/h (0 Bft)
26.05.2020 04:58 3,2 C 1,1 C 94 % 1035,9 hPa 0,0 l/m 0,0 km/h (0 Bft) N 0 0 min 0,0 UV-I 0 W/m 2,3 C 3,2 C 0,0 km/h (0 Bft)
26.05.2020 04:59 3,1 C 0,6 C 93 % 1035,9 hPa 0,0 l/m 0,0 km/h (0 Bft) N 0 0 min 0,0 UV-I 0 W/m 2,1 C 3,1 C 0,0 km/h (0 Bft)
26.05.2020 05:00 3,2 C 0,6 C 94 % 1036,0 hPa 0,0 l/m 0,0 km/h (0 Bft) N 0 0 min 0,0 UV-I 0 W/m 2,3 C 3,2 C 0,0 km/h (0 Bft)
26.05.2020 05:01 3,2 C 1,1 C 94 % 1035,9 hPa 0,0 l/m 0,0 km/h (0 Bft) N 0 0 min 0,0 UV-I 0 W/m 2,3 C 3,2 C 0,0 km/h (0 Bft)
26.05.2020 05:02 3,2 C 1,1 C 94 % 1035,9 hPa 0,0 l/m 0,0 km/h (0 Bft) N 0 0 min 0,0 UV-I 0 W/m 2,3 C 3,2 C 0,0 km/h (0 Bft)
26.05.2020 05:03 3,3 C 1,1 C 94 % 1035,9 hPa 0,0 l/m 0,0 km/h (0 Bft) N 0 0 min 0,0 UV-I 0 W/m 2,4 C 3,3 C 0,0 km/h (0 Bft)
26.05.2020 05:04 3,3 C 1,1 C 94 % 1035,9 hPa 0,0 l/m 0,0 km/h (0 Bft) N 0 0 min 0,0 UV-I 0 W/m 2,4 C 3,3 C 0,0 km/h (0 Bft)
26.05.2020 05:05 3,3 C 1,1 C 94 % 1035,9 hPa 0,0 l/m 0,0 km/h (0 Bft) N 0 0 min 0,0 UV-I 0 W/m 2,4 C 3,3 C 0,0 km/h (0 Bft)
26.05.2020 05:06 3,3 C 1,7 C 94 % 1035,9 hPa 0,0 l/m 0,0 km/h (0 Bft) N 0 0 min 0,0 UV-I 0 W/m 2,4 C 3,3 C 0,0 km/h (0 Bft)
26.05.2020 05:07 3,3 C 1,7 C 94 % 1036,0 hPa 0,0 l/m 0,0 km/h (0 Bft) N-NW 337 0 min 0,0 UV-I 0 W/m 2,4 C 3,3 C 1,6 km/h (1 Bft)
26.05.2020 05:08 3,3 C 1,7 C 94 % 1036,0 hPa 0,0 l/m 1,6 km/h (1 Bft) N-NW 337 0 min 0,0 UV-I 0 W/m 2,4 C 3,3 C 1,6 km/h (1 Bft)
26.05.2020 05:09 3,3 C 1,7 C 94 % 1036,0 hPa 0,0 l/m 0,0 km/h (0 Bft) N-NW 337 0 min 0,0 UV-I 0 W/m 2,4 C 3,3 C 1,6 km/h (1 Bft)
26.05.2020 05:10 3,4 C 1,7 C 94 % 1035,9 hPa 0,0 l/m 0,0 km/h (0 Bft) N-NW 337 0 min 0,0 UV-I 0 W/m 2,5 C 3,4 C 1,6 km/h (1 Bft)
26.05.2020 05:11 3,4 C 1,7 C 94 % 1036,0 hPa 0,0 l/m 0,0 km/h (0 Bft) N-NW 337 0 min 0,0 UV-I 0 W/m 2,5 C 3,4 C 1,6 km/h (1 Bft)
26.05.2020 05:12 3,4 C 1,7 C 94 % 1035,9 hPa 0,0 l/m 0,0 km/h (0 Bft) N 0 0 min 0,0 UV-I 0 W/m 2,5 C 3,4 C 0,0 km/h (0 Bft)
26.05.2020 05:13 3,6 C 2,2 C 95 % 1035,9 hPa 0,0 l/m 0,0 km/h (0 Bft) N 0 0 min 0,0 UV-I 0 W/m 2,9 C 3,6 C 0,0 km/h (0 Bft)
26.05.2020 05:14 3,7 C 1,7 C 95 % 1036,0 hPa 0,0 l/m 0,0 km/h (0 Bft) N 0 0 min 0,0 UV-I 0 W/m 3,0 C 3,7 C 0,0 km/h (0 Bft)
26.05.2020 05:15 3,7 C 1,7 C 95 % 1036,0 hPa 0,0 l/m 0,0 km/h (0 Bft) N 0 0 min 0,0 UV-I 0 W/m 3,0 C 3,7 C 0,0 km/h (0 Bft)
26.05.2020 05:16 3,6 C 1,7 C 94 % 1036,0 hPa 0,0 l/m 0,0 km/h (0 Bft) N 0 0 min 0,0 UV-I 0 W/m 2,7 C 3,6 C 0,0 km/h (0 Bft)
26.05.2020 05:17 3,5 C 1,1 C 94 % 1036,0 hPa 0,0 l/m 0,0 km/h (0 Bft) N 0 0 min 0,0 UV-I 0 W/m 2,6 C 3,5 C 0,0 km/h (0 Bft)
26.05.2020 05:18 3,4 C 1,1 C 94 % 1036,0 hPa 0,0 l/m 0,0 km/h (0 Bft) N 0 0 min 0,0 UV-I 0 W/m 2,5 C 3,4 C 0,0 km/h (0 Bft)
26.05.2020 05:19 3,3 C 1,1 C 94 % 1036,0 hPa 0,0 l/m 0,0 km/h (0 Bft) N 0 0 min 0,0 UV-I 0 W/m 2,4 C 3,3 C 0,0 km/h (0 Bft)
26.05.2020 05:20 3,1 C 1,1 C 94 % 1036,0 hPa 0,0 l/m 0,0 km/h (0 Bft) N 0 0 min 0,0 UV-I 0 W/m 2,2 C 3,1 C 0,0 km/h (0 Bft)
26.05.2020 05:21 3,0 C 1,1 C 94 % 1036,0 hPa 0,0 l/m 0,0 km/h (0 Bft) N 0 0 min 0,0 UV-I 0 W/m 2,1 C 3,0 C 0,0 km/h (0 Bft)
26.05.2020 05:22 2,9 C 1,1 C 94 % 1036,0 hPa 0,0 l/m 0,0 km/h (0 Bft) N 0 0 min 0,0 UV-I 0 W/m 2,0 C 2,9 C 0,0 km/h (0 Bft)
26.05.2020 05:23 2,8 C 1,1 C 94 % 1036,0 hPa 0,0 l/m 0,0 km/h (0 Bft) N 0 0 min 0,0 UV-I 0 W/m 1,9 C 2,8 C 0,0 km/h (0 Bft)
26.05.2020 05:24 2,8 C 1,1 C 94 % 1036,0 hPa 0,0 l/m 0,0 km/h (0 Bft) N 0 0 min 0,0 UV-I 0 W/m 1,9 C 2,8 C 0,0 km/h (0 Bft)
26.05.2020 05:25 2,8 C 0,6 C 94 % 1036,0 hPa 0,0 l/m 0,0 km/h (0 Bft) N 0 0 min 0,0 UV-I 0 W/m 1,9 C 2,8 C 0,0 km/h (0 Bft)
26.05.2020 05:26 2,8 C 1,1 C 94 % 1036,1 hPa 0,0 l/m 0,0 km/h (0 Bft) N 0 0 min 0,0 UV-I 0 W/m 1,9 C 2,8 C 0,0 km/h (0 Bft)
26.05.2020 05:27 2,8 C 1,1 C 94 % 1036,1 hPa 0,0 l/m 0,0 km/h (0 Bft) N 0 0 min 0,0 UV-I 0 W/m 1,9 C 2,8 C 0,0 km/h (0 Bft)
26.05.2020 05:28 2,8 C 1,1 C 94 % 1036,2 hPa 0,0 l/m 0,0 km/h (0 Bft) N 0 0 min 0,0 UV-I 0 W/m 1,9 C 2,8 C 0,0 km/h (0 Bft)
26.05.2020 05:29 2,8 C 1,1 C 94 % 1036,1 hPa 0,0 l/m 0,0 km/h (0 Bft) N 0 0 min 0,0 UV-I 0 W/m 1,9 C 2,8 C 0,0 km/h (0 Bft)
26.05.2020 05:30 2,8 C 1,1 C 94 % 1036,1 hPa 0,0 l/m 0,0 km/h (0 Bft) N 0 0 min 0,0 UV-I 0 W/m 1,9 C 2,8 C 0,0 km/h (0 Bft)
26.05.2020 05:31 2,8 C 1,1 C 94 % 1036,1 hPa 0,0 l/m 0,0 km/h (0 Bft) N 0 0 min 0,0 UV-I 0 W/m 1,9 C 2,8 C 0,0 km/h (0 Bft)
26.05.2020 05:32 2,8 C 1,1 C 94 % 1036,1 hPa 0,0 l/m 0,0 km/h (0 Bft) N 0 0 min 0,0 UV-I 0 W/m 1,9 C 2,8 C 0,0 km/h (0 Bft)
26.05.2020 05:33 2,8 C 1,1 C 94 % 1036,1 hPa 0,0 l/m 0,0 km/h (0 Bft) N 0 0 min 0,0 UV-I 0 W/m 1,9 C 2,8 C 0,0 km/h (0 Bft)
26.05.2020 05:34 2,8 C 1,1 C 94 % 1036,1 hPa 0,0 l/m 0,0 km/h (0 Bft) N 0 0 min 0,0 UV-I 0 W/m 1,9 C 2,8 C 0,0 km/h (0 Bft)
26.05.2020 05:35 2,9 C 1,1 C 94 % 1036,2 hPa 0,0 l/m 0,0 km/h (0 Bft) N 0 0 min 0,0 UV-I 5 W/m 2,0 C 2,9 C 0,0 km/h (0 Bft)
26.05.2020 05:36 2,9 C 1,7 C 94 % 1036,2 hPa 0,0 l/m 0,0 km/h (0 Bft) N 0 0 min 0,0 UV-I 5 W/m 2,0 C 2,9 C 0,0 km/h (0 Bft)
26.05.2020 05:37 2,9 C 1,1 C 94 % 1036,2 hPa 0,0 l/m 0,0 km/h (0 Bft) N 0 0 min 0,0 UV-I 5 W/m 2,0 C 2,9 C 0,0 km/h (0 Bft)
26.05.2020 05:38 3,1 C 1,1 C 95 % 1036,2 hPa 0,0 l/m 0,0 km/h (0 Bft) N 0 0 min 0,0 UV-I 5 W/m 2,4 C 3,1 C 0,0 km/h (0 Bft)
26.05.2020 05:39 3,1 C 1,1 C 94 % 1036,2 hPa 0,0 l/m 0,0 km/h (0 Bft) N 0 0 min 0,0 UV-I 5 W/m 2,2 C 3,1 C 0,0 km/h (0 Bft)
26.05.2020 05:40 3,1 C 1,1 C 94 % 1036,2 hPa 0,0 l/m 0,0 km/h (0 Bft) N-NW 337 0 min 0,0 UV-I 7 W/m 2,2 C 3,1 C 1,6 km/h (1 Bft)
26.05.2020 05:41 3,1 C 1,7 C 94 % 1036,2 hPa 0,0 l/m 0,0 km/h (0 Bft) N 0 0 min 0,0 UV-I 7 W/m 2,2 C 3,1 C 0,0 km/h (0 Bft)
26.05.2020 05:42 3,0 C 1,7 C 94 % 1036,2 hPa 0,0 l/m 0,0 km/h (0 Bft) N 0 0 min 0,0 UV-I 7 W/m 2,1 C 3,0 C 0,0 km/h (0 Bft)
26.05.2020 05:43 3,0 C 1,1 C 94 % 1036,1 hPa 0,0 l/m 0,0 km/h (0 Bft) N 0 0 min 0,0 UV-I 7 W/m 2,1 C 3,0 C 0,0 km/h (0 Bft)
26.05.2020 05:44 2,9 C 1,1 C 94 % 1036,1 hPa 0,0 l/m 0,0 km/h (0 Bft) N 0 0 min 0,0 UV-I 7 W/m 2,0 C 2,9 C 0,0 km/h (0 Bft)
26.05.2020 05:45 2,9 C 1,1 C 94 % 1036,2 hPa 0,0 l/m 0,0 km/h (0 Bft) N 0 0 min 0,0 UV-I 9 W/m 2,0 C 2,9 C 0,0 km/h (0 Bft)
26.05.2020 05:46 2,8 C 1,1 C 94 % 1036,2 hPa 0,0 l/m 0,0 km/h (0 Bft) N 0 0 min 0,0 UV-I 9 W/m 1,9 C 2,8 C 0,0 km/h (0 Bft)
26.05.2020 05:47 2,7 C 1,1 C 94 % 1036,2 hPa 0,0 l/m 0,0 km/h (0 Bft) N 0 0 min 0,0 UV-I 9 W/m 1,8 C 2,7 C 0,0 km/h (0 Bft)
26.05.2020 05:48 2,7 C 1,1 C 94 % 1036,1 hPa 0,0 l/m 0,0 km/h (0 Bft) N 0 0 min 0,0 UV-I 11 W/m 1,8 C 2,7 C 0,0 km/h (0 Bft)
26.05.2020 05:49 2,6 C 0,6 C 94 % 1036,1 hPa 0,0 l/m 0,0 km/h (0 Bft) N 0 0 min 0,0 UV-I 11 W/m 1,7 C 2,6 C 0,0 km/h (0 Bft)
26.05.2020 05:50 2,4 C 0,6 C 94 % 1036,1 hPa 0,0 l/m 0,0 km/h (0 Bft) N 0 0 min 0,0 UV-I 11 W/m 1,5 C 2,4 C 0,0 km/h (0 Bft)
26.05.2020 05:51 2,3 C 0,6 C 94 % 1036,1 hPa 0,0 l/m 0,0 km/h (0 Bft) N 0 0 min 0,0 UV-I 12 W/m 1,4 C 2,3 C 0,0 km/h (0 Bft)
26.05.2020 05:52 2,3 C 0,6 C 94 % 1036,2 hPa 0,0 l/m 0,0 km/h (0 Bft) N 0 0 min 0,0 UV-I 12 W/m 1,4 C 2,3 C 0,0 km/h (0 Bft)
26.05.2020 05:53 2,2 C 0,6 C 94 % 1036,2 hPa 0,0 l/m 0,0 km/h (0 Bft) N 0 0 min 0,0 UV-I 12 W/m 1,3 C 2,2 C 0,0 km/h (0 Bft)
26.05.2020 05:54 2,2 C 0,6 C 94 % 1036,2 hPa 0,0 l/m 0,0 km/h (0 Bft) N 0 0 min 0,0 UV-I 14 W/m 1,3 C 2,2 C 0,0 km/h (0 Bft)
26.05.2020 05:55 2,3 C 0,6 C 94 % 1036,3 hPa 0,0 l/m 0,0 km/h (0 Bft) N 0 0 min 0,0 UV-I 14 W/m 1,4 C 2,3 C 0,0 km/h (0 Bft)
26.05.2020 05:56 2,2 C 0,6 C 94 % 1036,3 hPa 0,0 l/m 0,0 km/h (0 Bft) N 0 0 min 0,0 UV-I 14 W/m 1,3 C 2,2 C 0,0 km/h (0 Bft)
26.05.2020 05:57 2,2 C 0,6 C 94 % 1036,2 hPa 0,0 l/m 0,0 km/h (0 Bft) N 0 0 min 0,0 UV-I 16 W/m 1,3 C 2,2 C 0,0 km/h (0 Bft)
26.05.2020 05:58 2,2 C 0,6 C 94 % 1036,3 hPa 0,0 l/m 0,0 km/h (0 Bft) N 0 0 min 0,0 UV-I 16 W/m 1,3 C 2,2 C 0,0 km/h (0 Bft)
26.05.2020 05:59 2,3 C 0,6 C 94 % 1036,3 hPa 0,0 l/m 0,0 km/h (0 Bft) N 0 0 min 0,0 UV-I 18 W/m 1,4 C 2,3 C 0,0 km/h (0 Bft)
26.05.2020 06:00 2,3 C 0,6 C 94 % 1036,3 hPa 0,0 l/m 0,0 km/h (0 Bft) N 0 0 min 0,0 UV-I 18 W/m 1,4 C 2,3 C 0,0 km/h (0 Bft)
26.05.2020 06:01 2,3 C 0,6 C 94 % 1036,2 hPa 0,0 l/m 0,0 km/h (0 Bft) N 0 0 min 0,0 UV-I 19 W/m 1,4 C 2,3 C 0,0 km/h (0 Bft)
26.05.2020 06:02 2,3 C 0,6 C 94 % 1036,2 hPa 0,0 l/m 0,0 km/h (0 Bft) N 0 0 min 0,0 UV-I 20 W/m 1,4 C 2,3 C 0,0 km/h (0 Bft)
26.05.2020 06:03 2,3 C 0,6 C 94 % 1036,2 hPa 0,0 l/m 0,0 km/h (0 Bft) N 0 0 min 0,0 UV-I 21 W/m 1,4 C 2,3 C 0,0 km/h (0 Bft)
26.05.2020 06:04 2,3 C 1,1 C 94 % 1036,3 hPa 0,0 l/m 0,0 km/h (0 Bft) N 0 0 min 0,0 UV-I 21 W/m 1,4 C 2,3 C 0,0 km/h (0 Bft)
26.05.2020 06:05 2,4 C 1,1 C 94 % 1036,3 hPa 0,0 l/m 0,0 km/h (0 Bft) N 0 0 min 0,0 UV-I 23 W/m 1,5 C 2,4 C 0,0 km/h (0 Bft)
26.05.2020 06:06 2,4 C 1,1 C 95 % 1036,3 hPa 0,0 l/m 0,0 km/h (0 Bft) N 0 0 min 0,0 UV-I 25 W/m 1,7 C 2,4 C 0,0 km/h (0 Bft)
26.05.2020 06:07 2,6 C 1,1 C 95 % 1036,2 hPa 0,0 l/m 0,0 km/h (0 Bft) N 0 0 min 0,0 UV-I 25 W/m 1,9 C 2,6 C 0,0 km/h (0 Bft)
26.05.2020 06:08 2,6 C 1,1 C 95 % 1036,2 hPa 0,0 l/m 0,0 km/h (0 Bft) N 0 0 min 0,0 UV-I 26 W/m 1,9 C 2,6 C 0,0 km/h (0 Bft)
26.05.2020 06:09 2,6 C 1,1 C 95 % 1036,2 hPa 0,0 l/m 0,0 km/h (0 Bft) N 0 0 min 0,0 UV-I 26 W/m 1,9 C 2,6 C 0,0 km/h (0 Bft)
26.05.2020 06:10 2,7 C 1,1 C 95 % 1036,2 hPa 0,0 l/m 0,0 km/h (0 Bft) N 0 0 min 0,0 UV-I 26 W/m 2,0 C 2,7 C 0,0 km/h (0 Bft)
26.05.2020 06:11 2,7 C 1,7 C 95 % 1036,2 hPa 0,0 l/m 0,0 km/h (0 Bft) N 0 0 min 0,0 UV-I 28 W/m 2,0 C 2,7 C 0,0 km/h (0 Bft)
26.05.2020 06:12 2,7 C 1,7 C 95 % 1036,2 hPa 0,0 l/m 0,0 km/h (0 Bft) N 0 0 min 0,0 UV-I 28 W/m 2,0 C 2,7 C 0,0 km/h (0 Bft)
26.05.2020 06:13 2,7 C 1,7 C 95 % 1036,2 hPa 0,0 l/m 0,0 km/h (0 Bft) N 0 0 min 0,0 UV-I 30 W/m 2,0 C 2,7 C 0,0 km/h (0 Bft)
26.05.2020 06:14 2,6 C 1,7 C 95 % 1036,2 hPa 0,0 l/m 0,0 km/h (0 Bft) N 0 0 min 0,0 UV-I 30 W/m 1,9 C 2,6 C 0,0 km/h (0 Bft)
26.05.2020 06:15 2,6 C 1,7 C 95 % 1036,3 hPa 0,0 l/m 0,0 km/h (0 Bft) N 0 0 min 0,0 UV-I 32 W/m 1,9 C 2,6 C 0,0 km/h (0 Bft)
26.05.2020 06:16 2,6 C 1,7 C 95 % 1036,2 hPa 0,0 l/m 0,0 km/h (0 Bft) N 0 0 min 0,0 UV-I 32 W/m 1,9 C 2,6 C 0,0 km/h (0 Bft)
26.05.2020 06:17 2,7 C 1,7 C 95 % 1036,2 hPa 0,0 l/m 0,0 km/h (0 Bft) N 0 0 min 0,0 UV-I 33 W/m 2,0 C 2,7 C 0,0 km/h (0 Bft)
26.05.2020 06:18 2,7 C 1,7 C 95 % 1036,2 hPa 0,0 l/m 0,0 km/h (0 Bft) N 0 0 min 0,0 UV-I 33 W/m 2,0 C 2,7 C 0,0 km/h (0 Bft)
26.05.2020 06:19 2,7 C 1,7 C 95 % 1036,2 hPa 0,0 l/m 0,0 km/h (0 Bft) N-NW 337 0 min 0,0 UV-I 33 W/m 2,0 C 2,7 C 1,6 km/h (1 Bft)
26.05.2020 06:20 2,8 C 1,7 C 95 % 1036,3 hPa 0,0 l/m 0,0 km/h (0 Bft) N 0 0 min 0,0 UV-I 35 W/m 2,1 C 2,8 C 0,0 km/h (0 Bft)
26.05.2020 06:21 2,8 C 1,7 C 95 % 1036,2 hPa 0,0 l/m 0,0 km/h (0 Bft) N 0 0 min 0,0 UV-I 37 W/m 2,1 C 2,8 C 0,0 km/h (0 Bft)
26.05.2020 06:22 2,8 C 1,7 C 95 % 1036,3 hPa 0,0 l/m 0,0 km/h (0 Bft) N 0 0 min 0,0 UV-I 37 W/m 2,1 C 2,8 C 0,0 km/h (0 Bft)
26.05.2020 06:23 2,9 C 1,7 C 95 % 1036,2 hPa 0,0 l/m 0,0 km/h (0 Bft) N 0 0 min 0,0 UV-I 39 W/m 2,2 C 2,9 C 0,0 km/h (0 Bft)
26.05.2020 06:24 2,9 C 1,7 C 95 % 1036,2 hPa 0,0 l/m 0,0 km/h (0 Bft) N 0 0 min 0,0 UV-I 40 W/m 2,2 C 2,9 C 0,0 km/h (0 Bft)
26.05.2020 06:25 2,9 C 1,7 C 95 % 1036,2 hPa 0,0 l/m 0,0 km/h (0 Bft) N 0 0 min 0,0 UV-I 42 W/m 2,2 C 2,9 C 0,0 km/h (0 Bft)
26.05.2020 06:26 2,9 C 1,7 C 95 % 1036,2 hPa 0,0 l/m 0,0 km/h (0 Bft) N 0 0 min 0,0 UV-I 44 W/m 2,2 C 2,9 C 0,0 km/h (0 Bft)
26.05.2020 06:27 2,9 C 2,2 C 95 % 1036,2 hPa 0,0 l/m 0,0 km/h (0 Bft) N 0 0 min 0,0 UV-I 46 W/m 2,2 C 2,9 C 0,0 km/h (0 Bft)
26.05.2020 06:28 2,9 C 2,2 C 95 % 1036,2 hPa 0,0 l/m 0,0 km/h (0 Bft) N 0 0 min 0,0 UV-I 47 W/m 2,2 C 2,9 C 0,0 km/h (0 Bft)
26.05.2020 06:29 2,9 C 2,2 C 95 % 1036,2 hPa 0,0 l/m 0,0 km/h (0 Bft) N 0 0 min 0,0 UV-I 49 W/m 2,2 C 2,9 C 0,0 km/h (0 Bft)
26.05.2020 06:30 2,9 C 2,2 C 95 % 1036,1 hPa 0,0 l/m 0,0 km/h (0 Bft) N 0 0 min 0,0 UV-I 51 W/m 2,2 C 2,9 C 0,0 km/h (0 Bft)
26.05.2020 06:31 2,9 C 2,2 C 95 % 1036,3 hPa 0,0 l/m 0,0 km/h (0 Bft) N 0 0 min 0,0 UV-I 53 W/m 2,2 C 2,9 C 0,0 km/h (0 Bft)
26.05.2020 06:32 2,8 C 2,8 C 94 % 1036,2 hPa 0,0 l/m 0,0 km/h (0 Bft) N 0 0 min 0,0 UV-I 54 W/m 1,9 C 2,8 C 0,0 km/h (0 Bft)
26.05.2020 06:33 2,8 C 2,8 C 94 % 1036,2 hPa 0,0 l/m 0,0 km/h (0 Bft) N 0 0 min 0,0 UV-I 56 W/m 1,9 C 2,8 C 0,0 km/h (0 Bft)
26.05.2020 06:34 2,8 C 2,8 C 94 % 1036,3 hPa 0,0 l/m 0,0 km/h (0 Bft) N 0 0 min 0,0 UV-I 54 W/m 1,9 C 2,8 C 0,0 km/h (0 Bft)
26.05.2020 06:35 2,8 C 2,8 C 94 % 1036,3 hPa 0,0 l/m 0,0 km/h (0 Bft) N 0 0 min 0,0 UV-I 58 W/m 1,9 C 2,8 C 0,0 km/h (0 Bft)
26.05.2020 06:36 2,8 C 2,8 C 94 % 1036,3 hPa 0,0 l/m 0,0 km/h (0 Bft) N 0 0 min 0,0 UV-I 62 W/m 1,9 C 2,8 C 0,0 km/h (0 Bft)
26.05.2020 06:37 2,8 C 2,8 C 95 % 1036,2 hPa 0,0 l/m 0,0 km/h (0 Bft) N 0 0 min 0,0 UV-I 63 W/m 2,1 C 2,8 C 0,0 km/h (0 Bft)
26.05.2020 06:38 2,9 C 2,8 C 95 % 1036,3 hPa 0,0 l/m 0,0 km/h (0 Bft) N 0 0 min 0,0 UV-I 65 W/m 2,2 C 2,9 C 0,0 km/h (0 Bft)
26.05.2020 06:39 2,9 C 2,8 C 95 % 1036,3 hPa 0,0 l/m 0,0 km/h (0 Bft) N 0 0 min 0,0 UV-I 67 W/m 2,2 C 2,9 C 0,0 km/h (0 Bft)
26.05.2020 06:40 3,0 C 2,8 C 95 % 1036,3 hPa 0,0 l/m 0,0 km/h (0 Bft) N 0 0 min 0,0 UV-I 70 W/m 2,3 C 3,0 C 0,0 km/h (0 Bft)
26.05.2020 06:41 3,1 C 2,8 C 95 % 1036,2 hPa 0,0 l/m 0,0 km/h (0 Bft) N 0 0 min 0,0 UV-I 70 W/m 2,4 C 3,1 C 0,0 km/h (0 Bft)
26.05.2020 06:42 3,1 C 2,8 C 95 % 1036,3 hPa 0,0 l/m 0,0 km/h (0 Bft) N 0 0 min 0,0 UV-I 70 W/m 2,4 C 3,1 C 0,0 km/h (0 Bft)
26.05.2020 06:43 3,1 C 2,8 C 95 % 1036,2 hPa 0,0 l/m 0,0 km/h (0 Bft) N 0 0 min 0,0 UV-I 69 W/m 2,4 C 3,1 C 0,0 km/h (0 Bft)
26.05.2020 06:44 3,2 C 3,3 C 95 % 1036,3 hPa 0,0 l/m 0,0 km/h (0 Bft) N 0 0 min 0,0 UV-I 70 W/m 2,5 C 3,2 C 0,0 km/h (0 Bft)
26.05.2020 06:45 3,2 C 3,3 C 95 % 1036,3 hPa 0,0 l/m 0,0 km/h (0 Bft) N 0 0 min 0,0 UV-I 74 W/m 2,5 C 3,2 C 0,0 km/h (0 Bft)
26.05.2020 06:46 3,2 C 3,3 C 95 % 1036,2 hPa 0,0 l/m 0,0 km/h (0 Bft) N 0 0 min 0,0 UV-I 74 W/m 2,5 C 3,2 C 0,0 km/h (0 Bft)
26.05.2020 06:47 3,3 C 3,3 C 95 % 1036,2 hPa 0,0 l/m 0,0 km/h (0 Bft) N 0 0 min 0,0 UV-I 76 W/m 2,6 C 3,3 C 0,0 km/h (0 Bft)
26.05.2020 06:48 3,3 C 3,3 C 95 % 1036,3 hPa 0,0 l/m 0,0 km/h (0 Bft) N 0 0 min 0,0 UV-I 76 W/m 2,6 C 3,3 C 0,0 km/h (0 Bft)
26.05.2020 06:49 3,4 C 3,3 C 95 % 1036,4 hPa 0,0 l/m 0,0 km/h (0 Bft) N 0 0 min 0,0 UV-I 80 W/m 2,7 C 3,4 C 0,0 km/h (0 Bft)
26.05.2020 06:50 3,4 C 3,3 C 95 % 1036,3 hPa 0,0 l/m 0,0 km/h (0 Bft) N 0 0 min 0,0 UV-I 84 W/m 2,7 C 3,4 C 0,0 km/h (0 Bft)
26.05.2020 06:51 3,5 C 3,3 C 95 % 1036,3 hPa 0,0 l/m 0,0 km/h (0 Bft) N 0 0 min 0,0 UV-I 84 W/m 2,8 C 3,5 C 0,0 km/h (0 Bft)
26.05.2020 06:52 3,6 C 3,3 C 95 % 1036,3 hPa 0,0 l/m 0,0 km/h (0 Bft) N 0 0 min 0,0 UV-I 86 W/m 2,9 C 3,6 C 0,0 km/h (0 Bft)
26.05.2020 06:53 3,7 C 3,3 C 95 % 1036,3 hPa 0,0 l/m 0,0 km/h (0 Bft) N 0 0 min 0,0 UV-I 90 W/m 3,0 C 3,7 C 0,0 km/h (0 Bft)
26.05.2020 06:54 3,8 C 3,3 C 95 % 1036,3 hPa 0,0 l/m 0,0 km/h (0 Bft) N 0 0 min 0,0 UV-I 91 W/m 3,1 C 3,8 C 0,0 km/h (0 Bft)
26.05.2020 06:55 3,8 C 3,9 C 95 % 1036,4 hPa 0,0 l/m 0,0 km/h (0 Bft) N 0 0 min 0,0 UV-I 95 W/m 3,1 C 3,8 C 0,0 km/h (0 Bft)
26.05.2020 06:56 3,8 C 3,9 C 95 % 1036,4 hPa 0,0 l/m 0,0 km/h (0 Bft) N 0 0 min 0,0 UV-I 97 W/m 3,1 C 3,8 C 0,0 km/h (0 Bft)
26.05.2020 06:57 3,9 C 3,9 C 95 % 1036,4 hPa 0,0 l/m 0,0 km/h (0 Bft) N 0 0 min 0,0 UV-I 98 W/m 3,2 C 3,9 C 0,0 km/h (0 Bft)
26.05.2020 06:58 3,9 C 3,9 C 95 % 1036,4 hPa 0,0 l/m 0,0 km/h (0 Bft) N 0 0 min 0,0 UV-I 100 W/m 3,2 C 3,9 C 0,0 km/h (0 Bft)
26.05.2020 06:59 4,0 C 3,9 C 95 % 1036,3 hPa 0,0 l/m 0,0 km/h (0 Bft) N 0 0 min 0,0 UV-I 100 W/m 3,3 C 4,0 C 0,0 km/h (0 Bft)
26.05.2020 07:00 4,1 C 3,9 C 95 % 1036,5 hPa 0,0 l/m 0,0 km/h (0 Bft) N 0 0 min 0,0 UV-I 102 W/m 3,4 C 4,1 C 0,0 km/h (0 Bft)
26.05.2020 07:01 4,2 C 3,9 C 95 % 1036,5 hPa 0,0 l/m 0,0 km/h (0 Bft) N 0 0 min 0,0 UV-I 103 W/m 3,5 C 4,2 C 0,0 km/h (0 Bft)
26.05.2020 07:02 4,2 C 3,9 C 95 % 1036,4 hPa 0,0 l/m 0,0 km/h (0 Bft) N 0 0 min 0,3 UV-I 104 W/m 3,5 C 4,2 C 0,0 km/h (0 Bft)
26.05.2020 07:03 4,3 C 4,4 C 95 % 1036,5 hPa 0,0 l/m 0,0 km/h (0 Bft) N 0 0 min 0,5 UV-I 104 W/m 3,6 C 4,3 C 0,0 km/h (0 Bft)
26.05.2020 07:04 4,4 C 4,4 C 95 % 1036,5 hPa 0,0 l/m 0,0 km/h (0 Bft) N 0 0 min 0,5 UV-I 105 W/m 3,7 C 4,4 C 0,0 km/h (0 Bft)
26.05.2020 07:05 4,4 C 5,0 C 95 % 1036,4 hPa 0,0 l/m 0,0 km/h (0 Bft) N-NW 337 0 min 0,5 UV-I 107 W/m 3,7 C 4,4 C 1,6 km/h (1 Bft)
26.05.2020 07:06 4,4 C 5,0 C 95 % 1036,5 hPa 0,0 l/m 0,0 km/h (0 Bft) N 0 0 min 0,5 UV-I 107 W/m 3,7 C 4,4 C 0,0 km/h (0 Bft)
26.05.2020 07:07 4,6 C 5,0 C 95 % 1036,6 hPa 0,0 l/m 0,0 km/h (0 Bft) N 0 0 min 0,5 UV-I 108 W/m 3,9 C 4,6 C 0,0 km/h (0 Bft)
26.05.2020 07:08 4,6 C 5,6 C 95 % 1036,5 hPa 0,0 l/m 0,0 km/h (0 Bft) N 0 0 min 0,5 UV-I 111 W/m 3,9 C 4,6 C 0,0 km/h (0 Bft)
26.05.2020 07:09 4,6 C 5,6 C 95 % 1036,4 hPa 0,0 l/m 0,0 km/h (0 Bft) N 0 0 min 0,5 UV-I 111 W/m 3,9 C 4,6 C 0,0 km/h (0 Bft)
26.05.2020 07:10 4,6 C 5,6 C 95 % 1036,5 hPa 0,0 l/m 0,0 km/h (0 Bft) N 0 0 min 0,5 UV-I 114 W/m 3,9 C 4,6 C 0,0 km/h (0 Bft)
26.05.2020 07:11 4,7 C 5,6 C 95 % 1036,5 hPa 0,0 l/m 0,0 km/h (0 Bft) N 0 0 min 0,5 UV-I 116 W/m 4,0 C 4,7 C 0,0 km/h (0 Bft)
26.05.2020 07:12 4,7 C 5,6 C 95 % 1036,4 hPa 0,0 l/m 0,0 km/h (0 Bft) N 0 0 min 0,5 UV-I 120 W/m 4,0 C 4,7 C 0,0 km/h (0 Bft)
26.05.2020 07:13 4,8 C 5,6 C 95 % 1036,5 hPa 0,0 l/m 0,0 km/h (0 Bft) N 0 0 min 0,6 UV-I 125 W/m 4,1 C 4,8 C 0,0 km/h (0 Bft)
26.05.2020 07:14 4,9 C 6,1 C 95 % 1036,4 hPa 0,0 l/m 0,0 km/h (0 Bft) N 0 0 min 0,6 UV-I 130 W/m 4,2 C 4,9 C 0,0 km/h (0 Bft)
26.05.2020 07:15 5,0 C 6,1 C 95 % 1036,5 hPa 0,0 l/m 0,0 km/h (0 Bft) N 0 0 min 0,6 UV-I 134 W/m 4,3 C 5,0 C 0,0 km/h (0 Bft)
26.05.2020 07:16 5,0 C 6,1 C 95 % 1036,4 hPa 0,0 l/m 0,0 km/h (0 Bft) N 0 0 min 0,6 UV-I 137 W/m 4,3 C 5,0 C 0,0 km/h (0 Bft)
26.05.2020 07:17 5,1 C 6,1 C 95 % 1036,4 hPa 0,0 l/m 0,0 km/h (0 Bft) N 0 0 min 0,6 UV-I 142 W/m 4,4 C 5,1 C 0,0 km/h (0 Bft)
26.05.2020 07:18 5,1 C 6,1 C 95 % 1036,4 hPa 0,0 l/m 0,0 km/h (0 Bft) N 0 0 min 0,6 UV-I 146 W/m 4,4 C 5,1 C 0,0 km/h (0 Bft)
26.05.2020 07:20 5,3 C 6,1 C 95 % 1036,5 hPa 0,0 l/m 0,0 km/h (0 Bft) N-NW 340 0 min 0,6 UV-I 152 W/m 4,6 C 5,3 C 0,0 km/h (0 Bft)
26.05.2020 07:22 5,5 C 6,7 C 95 % 1036,5 hPa 0,0 l/m 0,0 km/h (0 Bft) N-NW 340 0 min 0,6 UV-I 154 W/m 4,8 C 5,5 C 0,0 km/h (0 Bft)
26.05.2020 07:24 5,7 C 6,7 C 95 % 1036,5 hPa 0,0 l/m 0,0 km/h (0 Bft) N-NW 340 0 min 0,7 UV-I 160 W/m 5,0 C 5,7 C 0,0 km/h (0 Bft)
26.05.2020 07:26 5,8 C 6,7 C 95 % 1036,4 hPa 0,0 l/m 0,0 km/h (0 Bft) N-NW 340 0 min 0,7 UV-I 167 W/m 5,1 C 5,8 C 0,0 km/h (0 Bft)
26.05.2020 07:28 6,0 C 7,2 C 95 % 1036,4 hPa 0,0 l/m 0,0 km/h (0 Bft) N-NW 340 0 min 0,7 UV-I 171 W/m 5,3 C 6,0 C 0,0 km/h (0 Bft)
26.05.2020 07:30 6,2 C 7,2 C 95 % 1036,4 hPa 0,0 l/m 0,0 km/h (0 Bft) N-NW 340 0 min 0,7 UV-I 179 W/m 5,5 C 6,2 C 0,0 km/h (0 Bft)
26.05.2020 07:32 6,3 C 7,2 C 95 % 1036,4 hPa 0,0 l/m 0,1 km/h (0 Bft) N-NW 340 0 min 0,8 UV-I 187 W/m 5,6 C 6,3 C 1,6 km/h (1 Bft)
26.05.2020 07:34 6,5 C 7,8 C 95 % 1036,4 hPa 0,0 l/m 0,0 km/h (0 Bft) N-NW 340 0 min 0,8 UV-I 194 W/m 5,8 C 6,5 C 1,6 km/h (1 Bft)
26.05.2020 07:36 6,7 C 7,8 C 94 % 1036,4 hPa 0,0 l/m 0,0 km/h (0 Bft) N-NW 340 0 min 0,8 UV-I 200 W/m 5,8 C 6,7 C 1,6 km/h (1 Bft)
26.05.2020 07:38 6,8 C 7,8 C 94 % 1036,4 hPa 0,0 l/m 0,0 km/h (0 Bft) N-NW 340 0 min 0,9 UV-I 204 W/m 5,9 C 6,8 C 0,0 km/h (0 Bft)
26.05.2020 07:40 7,1 C 7,8 C 94 % 1036,5 hPa 0,0 l/m 0,0 km/h (0 Bft) N-NW 340 0 min 0,9 UV-I 207 W/m 6,2 C 7,1 C 0,0 km/h (0 Bft)
26.05.2020 07:42 7,4 C 8,3 C 94 % 1036,4 hPa 0,0 l/m 0,0 km/h (0 Bft) N-NW 340 0 min 0,9 UV-I 214 W/m 6,5 C 7,4 C 0,0 km/h (0 Bft)
26.05.2020 07:44 7,7 C 8,9 C 94 % 1036,5 hPa 0,0 l/m 0,0 km/h (0 Bft) N-NW 340 0 min 0,9 UV-I 217 W/m 6,8 C 7,7 C 1,6 km/h (1 Bft)
26.05.2020 07:46 7,9 C 8,9 C 93 % 1036,3 hPa 0,0 l/m 1,0 km/h (0 Bft) N-NW 340 0 min 0,9 UV-I 212 W/m 6,8 C 7,9 C 1,6 km/h (1 Bft)
26.05.2020 07:48 8,0 C 8,9 C 92 % 1036,4 hPa 0,0 l/m 0,7 km/h (0 Bft) N-NW 340 0 min 1,0 UV-I 221 W/m 6,8 C 8,0 C 1,6 km/h (1 Bft)
26.05.2020 07:50 8,1 C 9,4 C 91 % 1036,3 hPa 0,0 l/m 0,2 km/h (0 Bft) N-NW 340 0 min 1,0 UV-I 232 W/m 6,7 C 8,1 C 1,6 km/h (1 Bft)
26.05.2020 07:52 8,3 C 9,4 C 91 % 1036,4 hPa 0,0 l/m 0,0 km/h (0 Bft) N-NW 340 0 min 1,0 UV-I 237 W/m 6,9 C 8,3 C 0,0 km/h (0 Bft)
26.05.2020 07:54 8,4 C 10,0 C 91 % 1036,4 hPa 0,0 l/m 0,0 km/h (0 Bft) N-NW 340 0 min 1,1 UV-I 245 W/m 7,0 C 8,4 C 0,0 km/h (0 Bft)
26.05.2020 07:56 8,8 C 10,6 C 91 % 1036,3 hPa 0,0 l/m 0,1 km/h (0 Bft) N-NW 340 0 min 1,1 UV-I 248 W/m 7,4 C 8,8 C 1,6 km/h (1 Bft)
26.05.2020 07:58 8,9 C 10,6 C 90 % 1036,3 hPa 0,0 l/m 1,0 km/h (0 Bft) N-NW 340 0 min 1,2 UV-I 251 W/m 7,4 C 8,9 C 1,6 km/h (1 Bft)
26.05.2020 08:00 9,1 C 10,6 C 90 % 1036,2 hPa 0,0 l/m 1,7 km/h (1 Bft) N-NW 340 0 min 1,2 UV-I 258 W/m 7,5 C 9,1 C 3,2 km/h (1 Bft)
26.05.2020 08:02 9,3 C 11,1 C 90 % 1036,2 hPa 0,0 l/m 1,4 km/h (1 Bft) N-NW 340 0 min 1,2 UV-I 262 W/m 7,7 C 9,3 C 3,2 km/h (1 Bft)
26.05.2020 08:04 9,6 C 11,1 C 90 % 1036,2 hPa 0,0 l/m 2,0 km/h (1 Bft) N-NW 340 0 min 1,3 UV-I 266 W/m 8,0 C 9,6 C 3,2 km/h (1 Bft)
26.05.2020 08:06 9,7 C 11,7 C 89 % 1036,3 hPa 0,0 l/m 1,2 km/h (1 Bft) N-NW 340 0 min 1,3 UV-I 270 W/m 8,0 C 9,7 C 1,6 km/h (1 Bft)
26.05.2020 08:08 9,9 C 12,2 C 90 % 1036,2 hPa 0,0 l/m 1,3 km/h (1 Bft) N-NW 340 0 min 1,3 UV-I 277 W/m 8,3 C 9,9 C 3,2 km/h (1 Bft)
26.05.2020 08:10 10,1 C 12,2 C 89 % 1036,2 hPa 0,0 l/m 1,3 km/h (1 Bft) N-NW 340 0 min 1,3 UV-I 282 W/m 8,4 C 10,1 C 3,2 km/h (1 Bft)
26.05.2020 08:12 10,3 C 12,2 C 89 % 1036,2 hPa 0,0 l/m 0,5 km/h (0 Bft) N-NW 340 0 min 1,4 UV-I 287 W/m 8,6 C 10,3 C 1,6 km/h (1 Bft)
26.05.2020 08:14 10,4 C 12,2 C 88 % 1036,2 hPa 0,0 l/m 1,2 km/h (1 Bft) N-NW 340 0 min 1,4 UV-I 296 W/m 8,5 C 10,4 C 3,2 km/h (1 Bft)
26.05.2020 08:16 10,7 C 12,8 C 89 % 1036,2 hPa 0,0 l/m 2,3 km/h (1 Bft) N-NW 340 0 min 1,5 UV-I 302 W/m 9,0 C 10,7 C 4,8 km/h (1 Bft)
26.05.2020 08:18 11,0 C 12,8 C 88 % 1036,2 hPa 0,0 l/m 2,3 km/h (1 Bft) N 355 0 min 1,5 UV-I 313 W/m 9,1 C 11,0 C 4,8 km/h (1 Bft)
26.05.2020 08:20 11,3 C 13,3 C 86 % 1036,2 hPa 0,0 l/m 3,5 km/h (1 Bft) N-NW 342 0 min 1,6 UV-I 321 W/m 9,0 C 11,3 C 6,4 km/h (2 Bft)
26.05.2020 08:22 11,6 C 13,3 C 86 % 1036,2 hPa 0,0 l/m 5,1 km/h (1 Bft) N-NO 15 0 min 1,6 UV-I 322 W/m 9,3 C 11,6 C 8,0 km/h (2 Bft)
26.05.2020 08:24 11,7 C 13,3 C 84 % 1036,2 hPa 0,0 l/m 6,2 km/h (2 Bft) N 10 0 min 1,6 UV-I 321 W/m 9,1 C 11,7 C 8,0 km/h (2 Bft)
26.05.2020 08:26 11,8 C 13,3 C 84 % 1036,2 hPa 0,0 l/m 4,4 km/h (1 Bft) N-NO 30 0 min 1,5 UV-I 305 W/m 9,2 C 11,8 C 8,0 km/h (2 Bft)
26.05.2020 08:28 11,8 C 13,3 C 82 % 1036,2 hPa 0,0 l/m 6,4 km/h (2 Bft) N 5 0 min 1,5 UV-I 284 W/m 8,8 C 11,8 C 9,7 km/h (2 Bft)
26.05.2020 08:30 11,8 C 12,8 C 82 % 1036,1 hPa 0,0 l/m 5,5 km/h (1 Bft) N-NO 15 0 min 1,5 UV-I 265 W/m 8,8 C 11,8 C 9,7 km/h (2 Bft)
26.05.2020 08:32 11,8 C 12,8 C 82 % 1036,2 hPa 0,0 l/m 5,4 km/h (1 Bft) N 355 0 min 1,5 UV-I 248 W/m 8,8 C 11,8 C 8,0 km/h (2 Bft)
26.05.2020 08:34 11,9 C 12,8 C 82 % 1036,2 hPa 0,0 l/m 4,8 km/h (1 Bft) N 5 0 min 1,4 UV-I 234 W/m 8,9 C 11,9 C 6,4 km/h (2 Bft)
26.05.2020 08:36 11,9 C 12,8 C 82 % 1036,3 hPa 0,0 l/m 5,0 km/h (1 Bft) N 10 0 min 1,5 UV-I 245 W/m 8,9 C 11,9 C 8,0 km/h (2 Bft)
26.05.2020 08:38 12,1 C 12,8 C 82 % 1036,4 hPa 0,0 l/m 4,6 km/h (1 Bft) N 355 0 min 1,5 UV-I 261 W/m 9,1 C 12,1 C 6,4 km/h (2 Bft)
26.05.2020 08:40 12,1 C 12,8 C 81 % 1036,3 hPa 0,0 l/m 5,8 km/h (2 Bft) N-NO 12 0 min 1,5 UV-I 253 W/m 8,9 C 12,1 C 9,7 km/h (2 Bft)
26.05.2020 08:42 12,1 C 13,3 C 81 % 1036,4 hPa 0,0 l/m 6,1 km/h (2 Bft) N-NO 22 0 min 1,6 UV-I 264 W/m 8,9 C 12,1 C 8,0 km/h (2 Bft)
26.05.2020 08:44 12,2 C 13,3 C 80 % 1036,3 hPa 0,0 l/m 5,8 km/h (2 Bft) N-NW 348 0 min 1,7 UV-I 273 W/m 8,9 C 12,2 C 8,0 km/h (2 Bft)
26.05.2020 08:46 12,2 C 13,3 C 79 % 1036,4 hPa 0,0 l/m 7,1 km/h (2 Bft) N 5 0 min 1,7 UV-I 285 W/m 8,7 C 11,7 C 12,9 km/h (3 Bft)
26.05.2020 08:48 12,3 C 13,3 C 80 % 1036,3 hPa 0,0 l/m 7,0 km/h (2 Bft) N 355 0 min 1,8 UV-I 307 W/m 8,9 C 11,9 C 12,9 km/h (3 Bft)
26.05.2020 08:50 12,3 C 13,3 C 79 % 1036,3 hPa 0,0 l/m 7,8 km/h (2 Bft) N 350 0 min 1,9 UV-I 340 W/m 8,8 C 11,4 C 14,5 km/h (3 Bft)
26.05.2020 08:52 12,4 C 13,3 C 78 % 1036,3 hPa 0,0 l/m 10,3 km/h (2 Bft) N-NW 344 0 min 2,0 UV-I 356 W/m 8,7 C 10,1 C 16,1 km/h (3 Bft)
26.05.2020 08:54 12,4 C 13,3 C 78 % 1036,4 hPa 0,0 l/m 12,5 km/h (3 Bft) N 351 0 min 1,9 UV-I 323 W/m 8,7 C 9,1 C 17,7 km/h (3 Bft)
26.05.2020 08:56 12,4 C 13,9 C 79 % 1036,5 hPa 0,0 l/m 9,7 km/h (2 Bft) N-NW 329 0 min 2,1 UV-I 370 W/m 8,9 C 10,4 C 16,1 km/h (3 Bft)
26.05.2020 08:58 12,5 C 13,9 C 77 % 1036,4 hPa 0,0 l/m 13,0 km/h (3 Bft) N-NO 13 0 min 2,1 UV-I 405 W/m 8,6 C 9,0 C 17,7 km/h (3 Bft)
26.05.2020 09:00 12,6 C 13,9 C 78 % 1036,4 hPa 0,0 l/m 13,2 km/h (3 Bft) N-NW 343 0 min 2,2 UV-I 418 W/m 8,9 C 9,0 C 19,3 km/h (3 Bft)
26.05.2020 09:02 12,7 C 14,4 C 77 % 1036,4 hPa 0,0 l/m 15,4 km/h (3 Bft) N 5 0 min 2,2 UV-I 417 W/m 8,8 C 8,3 C 19,3 km/h (3 Bft)
26.05.2020 09:04 12,6 C 14,4 C 76 % 1036,4 hPa 0,0 l/m 14,7 km/h (3 Bft) N-NO 26 0 min 2,2 UV-I 409 W/m 8,5 C 8,4 C 19,3 km/h (3 Bft)
26.05.2020 09:06 12,7 C 14,4 C 77 % 1036,4 hPa 0,0 l/m 12,8 km/h (3 Bft) N 360 0 min 2,3 UV-I 421 W/m 8,8 C 9,3 C 19,3 km/h (3 Bft)
26.05.2020 09:08 12,7 C 14,4 C 77 % 1036,5 hPa 0,0 l/m 18,1 km/h (3 Bft) N-NW 348 0 min 2,3 UV-I 421 W/m 8,8 C 7,3 C 22,5 km/h (4 Bft)
26.05.2020 09:10 12,7 C 14,4 C 76 % 1036,4 hPa 0,0 l/m 19,1 km/h (3 Bft) N 360 0 min 2,3 UV-I 435 W/m 8,6 C 7,0 C 24,1 km/h (4 Bft)
26.05.2020 09:12 12,6 C 14,4 C 76 % 1036,5 hPa 0,0 l/m 17,7 km/h (3 Bft) N 349 0 min 2,4 UV-I 446 W/m 8,5 C 7,3 C 20,9 km/h (4 Bft)
26.05.2020 09:14 12,7 C 14,4 C 76 % 1036,4 hPa 0,0 l/m 17,2 km/h (3 Bft) N 5 0 min 2,5 UV-I 459 W/m 8,6 C 7,6 C 22,5 km/h (4 Bft)
26.05.2020 09:16 12,8 C 14,4 C 76 % 1036,5 hPa 0,0 l/m 13,3 km/h (3 Bft) N-NW 339 0 min 2,5 UV-I 458 W/m 8,7 C 9,2 C 19,3 km/h (3 Bft)
26.05.2020 09:18 12,9 C 15,0 C 74 % 1036,4 hPa 0,0 l/m 17,1 km/h (3 Bft) N 360 0 min 2,5 UV-I 452 W/m 8,4 C 7,9 C 22,5 km/h (4 Bft)
26.05.2020 09:20 13,0 C 15,0 C 75 % 1036,5 hPa 0,0 l/m 13,9 km/h (3 Bft) N 350 0 min 2,5 UV-I 443 W/m 8,7 C 9,2 C 20,9 km/h (4 Bft)
26.05.2020 09:22 13,0 C 15,0 C 74 % 1036,5 hPa 0,0 l/m 16,2 km/h (3 Bft) N 350 0 min 2,5 UV-I 428 W/m 8,5 C 8,3 C 19,3 km/h (3 Bft)
26.05.2020 09:24 13,1 C 15,0 C 74 % 1036,6 hPa 0,0 l/m 16,3 km/h (3 Bft) N-NW 342 0 min 2,6 UV-I 444 W/m 8,6 C 8,4 C 20,9 km/h (4 Bft)
26.05.2020 09:26 13,1 C 15,0 C 73 % 1036,5 hPa 0,0 l/m 15,1 km/h (3 Bft) N-NO 24 0 min 2,6 UV-I 434 W/m 8,4 C 8,9 C 19,3 km/h (3 Bft)
26.05.2020 09:28 13,2 C 15,0 C 75 % 1036,6 hPa 0,0 l/m 13,3 km/h (3 Bft) N 355 0 min 2,6 UV-I 443 W/m 8,9 C 9,7 C 17,7 km/h (3 Bft)
26.05.2020 09:30 13,3 C 15,0 C 73 % 1036,6 hPa 0,0 l/m 15,0 km/h (3 Bft) N-NW 345 0 min 2,7 UV-I 433 W/m 8,6 C 9,1 C 22,5 km/h (4 Bft)
26.05.2020 09:32 13,4 C 15,6 C 71 % 1036,6 hPa 0,0 l/m 14,0 km/h (3 Bft) N-NW 339 0 min 2,7 UV-I 449 W/m 8,3 C 9,6 C 19,3 km/h (3 Bft)
26.05.2020 09:34 13,4 C 15,6 C 72 % 1036,6 hPa 0,0 l/m 14,2 km/h (3 Bft) N 360 0 min 2,7 UV-I 428 W/m 8,5 C 9,5 C 17,7 km/h (3 Bft)
26.05.2020 09:36 13,6 C 15,0 C 73 % 1036,6 hPa 0,0 l/m 7,6 km/h (2 Bft) N 360 0 min 2,7 UV-I 431 W/m 8,9 C 12,9 C 16,1 km/h (3 Bft)
26.05.2020 09:38 13,7 C 15,6 C 71 % 1036,6 hPa 0,0 l/m 14,9 km/h (3 Bft) N 355 0 min 2,8 UV-I 446 W/m 8,5 C 9,7 C 20,9 km/h (4 Bft)
26.05.2020 09:40 13,7 C 15,6 C 70 % 1036,6 hPa 0,0 l/m 15,7 km/h (3 Bft) N 5 0 min 2,9 UV-I 463 W/m 8,3 C 9,4 C 20,9 km/h (4 Bft)
26.05.2020 09:42 13,7 C 15,6 C 69 % 1036,5 hPa 0,0 l/m 16,8 km/h (3 Bft) N-NW 344 0 min 3,0 UV-I 450 W/m 8,1 C 9,0 C 20,9 km/h (4 Bft)
26.05.2020 09:44 13,7 C 15,6 C 69 % 1036,6 hPa 0,0 l/m 13,5 km/h (3 Bft) N 355 0 min 3,0 UV-I 467 W/m 8,1 C 10,2 C 17,7 km/h (3 Bft)
26.05.2020 09:46 13,8 C 15,6 C 70 % 1036,7 hPa 0,0 l/m 14,7 km/h (3 Bft) N 355 0 min 3,1 UV-I 469 W/m 8,4 C 9,8 C 19,3 km/h (3 Bft)
26.05.2020 09:48 14,2 C 16,1 C 69 % 1036,6 hPa 0,0 l/m 10,5 km/h (2 Bft) N 360 0 min 3,1 UV-I 467 W/m 8,6 C 12,0 C 17,7 km/h (3 Bft)
26.05.2020 09:50 14,2 C 16,7 C 67 % 1036,6 hPa 0,0 l/m 12,8 km/h (3 Bft) N 5 0 min 3,2 UV-I 468 W/m 8,2 C 11,0 C 17,7 km/h (3 Bft)
26.05.2020 09:52 14,3 C 16,7 C 69 % 1036,6 hPa 0,0 l/m 10,8 km/h (2 Bft) N 11 0 min 3,3 UV-I 480 W/m 8,7 C 12,0 C 17,7 km/h (3 Bft)
26.05.2020 09:54 14,7 C 17,2 C 71 % 1036,6 hPa 0,0 l/m 8,3 km/h (2 Bft) N-NO 28 0 min 3,4 UV-I 486 W/m 9,5 C 13,6 C 17,7 km/h (3 Bft)
26.05.2020 09:56 14,8 C 17,2 C 65 % 1036,7 hPa 0,0 l/m 19,4 km/h (3 Bft) N-NO 22 0 min 3,5 UV-I 486 W/m 8,3 C 9,6 C 27,4 km/h (4 Bft)
26.05.2020 09:58 14,8 C 17,2 C 68 % 1036,7 hPa 0,0 l/m 11,4 km/h (2 Bft) N 5 0 min 3,5 UV-I 479 W/m 9,0 C 12,3 C 20,9 km/h (4 Bft)
26.05.2020 10:00 14,8 C 17,2 C 66 % 1036,6 hPa 0,0 l/m 12,7 km/h (3 Bft) NO 46 0 min 3,4 UV-I 459 W/m 8,5 C 11,8 C 17,7 km/h (3 Bft)
26.05.2020 10:02 14,8 C 17,2 C 63 % 1036,7 hPa 0,0 l/m 13,6 km/h (3 Bft) N-NO 32 0 min 3,5 UV-I 461 W/m 7,8 C 11,4 C 20,9 km/h (4 Bft)
26.05.2020 10:04 14,7 C 16,7 C 63 % 1036,6 hPa 0,0 l/m 16,1 km/h (3 Bft) N 355 0 min 3,4 UV-I 448 W/m 7,7 C 10,5 C 22,5 km/h (4 Bft)
26.05.2020 10:06 14,7 C 16,7 C 62 % 1036,6 hPa 0,0 l/m 16,6 km/h (3 Bft) N-NW 332 0 min 3,4 UV-I 436 W/m 7,5 C 10,3 C 22,5 km/h (4 Bft)
26.05.2020 10:08 14,8 C 16,7 C 65 % 1036,6 hPa 0,0 l/m 12,8 km/h (3 Bft) N-NO 22 0 min 3,2 UV-I 396 W/m 8,3 C 11,7 C 19,3 km/h (3 Bft)
26.05.2020 10:10 14,8 C 16,7 C 62 % 1036,7 hPa 0,0 l/m 13,2 km/h (3 Bft) N-NO 15 0 min 3,1 UV-I 355 W/m 7,6 C 11,6 C 20,9 km/h (4 Bft)
26.05.2020 10:12 14,7 C 16,7 C 60 % 1036,6 hPa 0,0 l/m 16,9 km/h (3 Bft) N 5 0 min 3,2 UV-I 402 W/m 7,0 C 10,2 C 22,5 km/h (4 Bft)
26.05.2020 10:14 14,7 C 16,7 C 59 % 1036,7 hPa 0,0 l/m 18,3 km/h (3 Bft) N 360 0 min 3,4 UV-I 440 W/m 6,8 C 9,8 C 25,7 km/h (4 Bft)
26.05.2020 10:16 14,8 C 17,2 C 62 % 1036,6 hPa 0,0 l/m 15,4 km/h (3 Bft) N-NW 342 0 min 3,7 UV-I 488 W/m 7,6 C 10,8 C 24,1 km/h (4 Bft)
26.05.2020 10:18 14,8 C 16,7 C 59 % 1036,7 hPa 0,0 l/m 19,2 km/h (3 Bft) N 355 0 min 3,8 UV-I 505 W/m 6,9 C 9,7 C 30,6 km/h (5 Bft)
26.05.2020 10:20 14,8 C 17,2 C 62 % 1036,7 hPa 0,0 l/m 17,9 km/h (3 Bft) NO 35 0 min 3,8 UV-I 513 W/m 7,6 C 10,1 C 24,1 km/h (4 Bft)
26.05.2020 10:22 15,0 C 17,2 C 61 % 1036,7 hPa 0,0 l/m 12,8 km/h (3 Bft) N-NO 12 0 min 4,0 UV-I 547 W/m 7,5 C 12,0 C 20,9 km/h (4 Bft)
26.05.2020 10:24 15,1 C 17,8 C 59 % 1036,6 hPa 0,0 l/m 18,4 km/h (3 Bft) N-NO 27 0 min 4,1 UV-I 576 W/m 7,1 C 10,3 C 27,4 km/h (4 Bft)
26.05.2020 10:26 15,2 C 17,8 C 60 % 1036,7 hPa 0,0 l/m 17,3 km/h (3 Bft) NO 40 2 min 4,1 UV-I 597 W/m 7,5 C 10,7 C 30,6 km/h (5 Bft)
26.05.2020 10:28 15,3 C 17,8 C 60 % 1036,7 hPa 0,0 l/m 16,0 km/h (3 Bft) N 360 2 min 4,2 UV-I 614 W/m 7,6 C 11,2 C 22,5 km/h (4 Bft)
26.05.2020 10:30 15,4 C 18,3 C 61 % 1036,7 hPa 0,0 l/m 12,6 km/h (3 Bft) N-NW 331 2 min 4,2 UV-I 627 W/m 7,9 C 12,5 C 24,1 km/h (4 Bft)
26.05.2020 10:32 15,4 C 18,3 C 58 % 1036,7 hPa 0,0 l/m 17,2 km/h (3 Bft) N-NW 339 2 min 4,2 UV-I 632 W/m 7,2 C 11,0 C 25,7 km/h (4 Bft)
26.05.2020 10:34 15,4 C 17,8 C 58 % 1036,7 hPa 0,0 l/m 9,7 km/h (2 Bft) N-NW 333 2 min 4,3 UV-I 648 W/m 7,2 C 13,7 C 17,7 km/h (3 Bft)
26.05.2020 10:36 15,6 C 18,3 C 58 % 1036,7 hPa 0,0 l/m 11,1 km/h (2 Bft) N-NW 343 2 min 4,4 UV-I 665 W/m 7,4 C 13,3 C 17,7 km/h (3 Bft)
26.05.2020 10:38 15,7 C 18,9 C 60 % 1036,7 hPa 0,0 l/m 10,8 km/h (2 Bft) N 350 2 min 4,4 UV-I 671 W/m 8,0 C 13,6 C 17,7 km/h (3 Bft)
26.05.2020 10:40 15,9 C 18,9 C 57 % 1036,7 hPa 0,0 l/m 16,2 km/h (3 Bft) N 349 2 min 4,5 UV-I 683 W/m 7,4 C 11,9 C 24,1 km/h (4 Bft)
26.05.2020 10:42 15,7 C 18,3 C 55 % 1036,7 hPa 0,0 l/m 15,7 km/h (3 Bft) N 355 2 min 4,6 UV-I 685 W/m 6,7 C 11,8 C 25,7 km/h (4 Bft)
26.05.2020 10:44 15,6 C 18,3 C 55 % 1036,7 hPa 0,0 l/m 20,9 km/h (4 Bft) N 355 2 min 4,6 UV-I 691 W/m 6,6 C 10,3 C 27,4 km/h (4 Bft)
26.05.2020 10:46 15,7 C 18,3 C 56 % 1036,7 hPa 0,0 l/m 16,2 km/h (3 Bft) N 360 2 min 4,7 UV-I 697 W/m 6,9 C 11,7 C 22,5 km/h (4 Bft)
26.05.2020 10:48 15,8 C 18,9 C 57 % 1036,7 hPa 0,0 l/m 12,1 km/h (2 Bft) N 360 2 min 4,7 UV-I 701 W/m 7,3 C 13,2 C 19,3 km/h (3 Bft)
26.05.2020 10:50 15,9 C 18,9 C 57 % 1036,7 hPa 0,0 l/m 17,3 km/h (3 Bft) N-NO 13 2 min 4,8 UV-I 705 W/m 7,4 C 11,6 C 25,7 km/h (4 Bft)
26.05.2020 10:52 15,9 C 18,9 C 56 % 1036,7 hPa 0,0 l/m 18,0 km/h (3 Bft) N-NW 340 2 min 4,8 UV-I 708 W/m 7,1 C 11,4 C 27,4 km/h (4 Bft)
26.05.2020 10:54 15,8 C 18,9 C 54 % 1036,7 hPa 0,0 l/m 18,5 km/h (3 Bft) N 355 2 min 4,8 UV-I 713 W/m 6,5 C 11,2 C 27,4 km/h (4 Bft)
26.05.2020 10:56 15,8 C 18,9 C 54 % 1036,7 hPa 0,0 l/m 15,8 km/h (3 Bft) N 5 2 min 4,9 UV-I 717 W/m 6,5 C 11,9 C 19,3 km/h (3 Bft)
26.05.2020 10:58 16,0 C 19,4 C 58 % 1036,6 hPa 0,0 l/m 13,4 km/h (3 Bft) N-NO 31 2 min 4,9 UV-I 722 W/m 7,7 C 12,9 C 20,9 km/h (4 Bft)
26.05.2020 11:00 15,9 C 19,4 C 57 % 1036,7 hPa 0,0 l/m 17,7 km/h (3 Bft) N-NO 12 2 min 5,0 UV-I 728 W/m 7,4 C 11,5 C 22,5 km/h (4 Bft)
26.05.2020 11:02 16,1 C 19,4 C 60 % 1036,7 hPa 0,0 l/m 11,7 km/h (2 Bft) N 5 2 min 5,0 UV-I 739 W/m 8,3 C 13,7 C 17,7 km/h (3 Bft)
26.05.2020 11:04 16,3 C 20,0 C 59 % 1036,7 hPa 0,0 l/m 13,1 km/h (3 Bft) N-NO 15 2 min 5,1 UV-I 741 W/m 8,3 C 13,4 C 20,9 km/h (4 Bft)
26.05.2020 11:06 16,4 C 19,4 C 55 % 1036,7 hPa 0,0 l/m 18,7 km/h (3 Bft) N-NO 22 2 min 5,0 UV-I 689 W/m 7,3 C 11,9 C 25,7 km/h (4 Bft)
26.05.2020 11:08 16,4 C 20,0 C 54 % 1036,6 hPa 0,0 l/m 18,3 km/h (3 Bft) N 5 2 min 5,3 UV-I 762 W/m 7,1 C 12,0 C 25,7 km/h (4 Bft)
26.05.2020 11:10 16,2 C 20,0 C 53 % 1036,7 hPa 0,0 l/m 22,8 km/h (4 Bft) N-NO 20 2 min 4,8 UV-I 682 W/m 6,6 C 10,7 C 32,2 km/h (5 Bft)
26.05.2020 11:12 15,9 C 19,4 C 53 % 1036,6 hPa 0,0 l/m 18,1 km/h (3 Bft) NO 54 0 min 4,5 UV-I 532 W/m 6,3 C 11,4 C 25,7 km/h (4 Bft)
26.05.2020 11:14 15,8 C 19,4 C 56 % 1036,7 hPa 0,0 l/m 16,2 km/h (3 Bft) NO 35 0 min 4,5 UV-I 562 W/m 7,0 C 11,8 C 22,5 km/h (4 Bft)
26.05.2020 11:16 15,8 C 18,9 C 57 % 1036,7 hPa 0,0 l/m 15,7 km/h (3 Bft) N-NO 28 0 min 4,3 UV-I 533 W/m 7,3 C 11,9 C 24,1 km/h (4 Bft)
26.05.2020 11:18 15,8 C 18,9 C 57 % 1036,7 hPa 0,0 l/m 14,4 km/h (3 Bft) N-NO 30 0 min 4,3 UV-I 534 W/m 7,3 C 12,4 C 20,9 km/h (4 Bft)
26.05.2020 11:20 15,7 C 18,9 C 54 % 1036,7 hPa 0,0 l/m 11,7 km/h (2 Bft) N 5 0 min 4,2 UV-I 492 W/m 6,4 C 13,2 C 20,9 km/h (4 Bft)
26.05.2020 11:22 15,7 C 19,4 C 57 % 1036,7 hPa 0,0 l/m 9,9 km/h (2 Bft) N-NW 348 0 min 4,0 UV-I 472 W/m 7,2 C 13,9 C 27,4 km/h (4 Bft)
26.05.2020 11:24 15,6 C 18,9 C 53 % 1036,7 hPa 0,0 l/m 19,7 km/h (3 Bft) N 360 0 min 4,2 UV-I 466 W/m 6,1 C 10,6 C 25,7 km/h (4 Bft)
26.05.2020 11:26 15,4 C 19,4 C 53 % 1036,6 hPa 0,0 l/m 17,9 km/h (3 Bft) N 5 2 min 5,0 UV-I 604 W/m 5,9 C 10,8 C 24,1 km/h (4 Bft)
26.05.2020 11:28 15,6 C 19,4 C 55 % 1036,7 hPa 0,0 l/m 18,0 km/h (3 Bft) N-NO 15 2 min 4,7 UV-I 660 W/m 6,6 C 11,0 C 24,1 km/h (4 Bft)
26.05.2020 11:30 15,7 C 20,6 C 54 % 1036,6 hPa 0,0 l/m 15,2 km/h (3 Bft) N-NW 340 0 min 4,5 UV-I 545 W/m 6,4 C 12,0 C 20,9 km/h (4 Bft)
26.05.2020 11:32 15,9 C 20,6 C 54 % 1036,6 hPa 0,0 l/m 10,9 km/h (2 Bft) N-NW 333 2 min 5,3 UV-I 639 W/m 6,6 C 13,7 C 14,5 km/h (3 Bft)
26.05.2020 11:34 16,2 C 21,7 C 56 % 1036,6 hPa 0,0 l/m 6,6 km/h (2 Bft) W-NW 297 2 min 5,4 UV-I 754 W/m 7,4 C 16,1 C 12,9 km/h (3 Bft)
26.05.2020 11:36 16,3 C 22,2 C 55 % 1036,5 hPa 0,0 l/m 7,5 km/h (2 Bft) N 350 2 min 5,2 UV-I 710 W/m 7,2 C 15,7 C 12,9 km/h (3 Bft)
26.05.2020 11:38 16,4 C 22,8 C 57 % 1036,5 hPa 0,0 l/m 10,6 km/h (2 Bft) N 5 2 min 5,3 UV-I 726 W/m 7,9 C 14,4 C 14,5 km/h (3 Bft)
26.05.2020 11:40 16,6 C 22,8 C 54 % 1036,5 hPa 0,0 l/m 13,3 km/h (3 Bft) N-NW 343 2 min 5,7 UV-I 762 W/m 7,3 C 13,7 C 17,7 km/h (3 Bft)
26.05.2020 11:42 16,7 C 22,8 C 55 % 1036,4 hPa 0,0 l/m 13,1 km/h (3 Bft) N-NW 347 2 min 6,1 UV-I 843 W/m 7,6 C 13,9 C 19,3 km/h (3 Bft)
26.05.2020 11:44 16,8 C 22,8 C 54 % 1036,4 hPa 0,0 l/m 13,0 km/h (3 Bft) N 355 2 min 5,5 UV-I 753 W/m 7,4 C 14,0 C 17,7 km/h (3 Bft)
26.05.2020 11:46 16,7 C 22,2 C 54 % 1036,4 hPa 0,0 l/m 9,0 km/h (2 Bft) W-NW 290 2 min 5,2 UV-I 676 W/m 7,3 C 15,4 C 17,7 km/h (3 Bft)
26.05.2020 11:48 16,7 C 22,2 C 55 % 1036,4 hPa 0,0 l/m 7,7 km/h (2 Bft) N-NW 348 2 min 5,2 UV-I 686 W/m 7,6 C 16,0 C 16,1 km/h (3 Bft)
26.05.2020 11:50 16,7 C 21,7 C 53 % 1036,4 hPa 0,0 l/m 8,8 km/h (2 Bft) N-NW 340 0 min 4,5 UV-I 560 W/m 7,1 C 15,5 C 16,1 km/h (3 Bft)
26.05.2020 11:52 16,6 C 21,1 C 55 % 1036,4 hPa 0,0 l/m 11,2 km/h (2 Bft) N-NW 346 0 min 5,0 UV-I 438 W/m 7,5 C 14,4 C 20,9 km/h (4 Bft)
26.05.2020 11:54 16,5 C 21,1 C 53 % 1036,4 hPa 0,0 l/m 14,2 km/h (3 Bft) N-NO 24 0 min 5,3 UV-I 438 W/m 6,9 C 13,3 C 22,5 km/h (4 Bft)
26.05.2020 11:56 16,6 C 21,1 C 53 % 1036,4 hPa 0,0 l/m 7,6 km/h (2 Bft) N-NW 331 0 min 5,4 UV-I 586 W/m 7,0 C 16,0 C 14,5 km/h (3 Bft)
26.05.2020 11:58 16,8 C 22,2 C 57 % 1036,4 hPa 0,0 l/m 4,7 km/h (1 Bft) N 351 2 min 5,9 UV-I 705 W/m 8,2 C 16,8 C 8,0 km/h (2 Bft)
26.05.2020 12:00 17,1 C 22,2 C 57 % 1036,3 hPa 0,0 l/m 7,7 km/h (2 Bft) N-NO 17 2 min 6,1 UV-I 810 W/m 8,5 C 16,5 C 14,5 km/h (3 Bft)
26.05.2020 12:02 17,4 C 22,8 C 57 % 1036,4 hPa 0,0 l/m 9,4 km/h (2 Bft) N 5 2 min 6,2 UV-I 810 W/m 8,8 C 16,0 C 17,7 km/h (3 Bft)
26.05.2020 12:04 17,4 C 22,8 C 52 % 1036,3 hPa 0,0 l/m 15,7 km/h (3 Bft) N-NW 346 2 min 6,3 UV-I 834 W/m 7,4 C 13,9 C 20,9 km/h (4 Bft)
26.05.2020 12:06 17,2 C 22,8 C 53 % 1036,4 hPa 0,0 l/m 11,5 km/h (2 Bft) N 11 2 min 6,1 UV-I 797 W/m 7,5 C 15,0 C 17,7 km/h (3 Bft)
26.05.2020 12:08 17,2 C 22,2 C 56 % 1036,3 hPa 0,0 l/m 13,3 km/h (3 Bft) N 360 2 min 6,4 UV-I 840 W/m 8,3 C 14,4 C 22,5 km/h (4 Bft)
26.05.2020 12:10 17,3 C 22,2 C 52 % 1036,3 hPa 0,0 l/m 12,6 km/h (3 Bft) N-NO 20 2 min 6,3 UV-I 831 W/m 7,3 C 14,7 C 20,9 km/h (4 Bft)
26.05.2020 12:12 17,5 C 22,8 C 57 % 1036,4 hPa 0,0 l/m 11,7 km/h (2 Bft) N-NO 20 2 min 6,1 UV-I 825 W/m 8,9 C 15,3 C 17,7 km/h (3 Bft)
26.05.2020 12:14 17,6 C 23,3 C 50 % 1036,4 hPa 0,0 l/m 14,0 km/h (3 Bft) N-NO 15 2 min 6,2 UV-I 803 W/m 7,1 C 14,6 C 19,3 km/h (3 Bft)
26.05.2020 12:16 17,4 C 22,8 C 57 % 1036,4 hPa 0,0 l/m 12,6 km/h (3 Bft) N 355 2 min 6,1 UV-I 773 W/m 8,8 C 14,8 C 22,5 km/h (4 Bft)
26.05.2020 12:18 17,6 C 23,3 C 55 % 1036,5 hPa 0,0 l/m 15,0 km/h (3 Bft) N-NW 344 2 min 6,2 UV-I 797 W/m 8,5 C 14,3 C 20,9 km/h (4 Bft)
26.05.2020 12:20 17,6 C 22,8 C 54 % 1036,4 hPa 0,0 l/m 13,3 km/h (3 Bft) N 9 2 min 6,6 UV-I 857 W/m 8,2 C 14,8 C 20,9 km/h (4 Bft)
26.05.2020 12:22 17,9 C 23,9 C 53 % 1036,5 hPa 0,0 l/m 13,9 km/h (3 Bft) N-NO 31 2 min 6,6 UV-I 862 W/m 8,2 C 15,0 C 20,9 km/h (4 Bft)
26.05.2020 12:24 17,9 C 23,9 C 54 % 1036,4 hPa 0,0 l/m 13,6 km/h (3 Bft) N 355 2 min 6,6 UV-I 862 W/m 8,5 C 15,1 C 19,3 km/h (3 Bft)
26.05.2020 12:26 17,9 C 24,4 C 54 % 1036,5 hPa 0,0 l/m 13,2 km/h (3 Bft) N 5 2 min 6,6 UV-I 861 W/m 8,5 C 15,2 C 22,5 km/h (4 Bft)
26.05.2020 12:28 17,8 C 23,9 C 52 % 1036,4 hPa 0,0 l/m 14,9 km/h (3 Bft) N-NO 13 2 min 6,7 UV-I 860 W/m 7,8 C 14,6 C 19,3 km/h (3 Bft)
26.05.2020 12:30 17,7 C 23,9 C 51 % 1036,4 hPa 0,0 l/m 13,8 km/h (3 Bft) N-NO 24 2 min 6,7 UV-I 861 W/m 7,4 C 14,8 C 19,3 km/h (3 Bft)
26.05.2020 12:32 17,8 C 23,9 C 51 % 1036,4 hPa 0,0 l/m 11,9 km/h (2 Bft) N-NO 23 2 min 6,7 UV-I 864 W/m 7,5 C 15,5 C 20,9 km/h (4 Bft)
26.05.2020 12:34 17,9 C 23,9 C 52 % 1036,4 hPa 0,0 l/m 11,7 km/h (2 Bft) N-NO 28 2 min 6,7 UV-I 866 W/m 7,9 C 15,7 C 19,3 km/h (3 Bft)
26.05.2020 12:36 17,8 C 23,9 C 51 % 1036,4 hPa 0,0 l/m 11,2 km/h (2 Bft) NO 36 2 min 6,7 UV-I 858 W/m 7,5 C 15,8 C 17,7 km/h (3 Bft)
26.05.2020 12:38 17,7 C 23,9 C 49 % 1036,4 hPa 0,0 l/m 13,1 km/h (3 Bft) NW 317 2 min 6,8 UV-I 870 W/m 6,9 C 15,0 C 17,7 km/h (3 Bft)
26.05.2020 12:40 17,8 C 23,3 C 53 % 1036,4 hPa 0,0 l/m 13,5 km/h (3 Bft) N-NO 28 2 min 6,8 UV-I 872 W/m 8,1 C 15,0 C 25,7 km/h (4 Bft)
26.05.2020 12:42 17,8 C 23,3 C 52 % 1036,4 hPa 0,0 l/m 7,2 km/h (2 Bft) NO 40 2 min 6,7 UV-I 869 W/m 7,8 C 17,4 C 11,3 km/h (2 Bft)
26.05.2020 12:44 18,2 C 24,4 C 53 % 1036,4 hPa 0,0 l/m 14,2 km/h (3 Bft) N-NO 32 2 min 6,5 UV-I 833 W/m 8,5 C 15,3 C 20,9 km/h (4 Bft)
26.05.2020 12:46 18,2 C 24,4 C 55 % 1036,4 hPa 0,0 l/m 14,0 km/h (3 Bft) N-NO 19 2 min 6,8 UV-I 863 W/m 9,0 C 15,3 C 20,9 km/h (4 Bft)
26.05.2020 12:48 18,1 C 23,9 C 54 % 1036,4 hPa 0,0 l/m 18,3 km/h (3 Bft) N-NO 28 2 min 6,8 UV-I 863 W/m 8,6 C 14,1 C 25,7 km/h (4 Bft)
26.05.2020 12:50 18,0 C 23,3 C 52 % 1036,4 hPa 0,0 l/m 19,0 km/h (3 Bft) N-NO 19 2 min 6,8 UV-I 875 W/m 8,0 C 13,8 C 25,7 km/h (4 Bft)
26.05.2020 12:52 18,2 C 23,9 C 54 % 1036,4 hPa 0,0 l/m 17,9 km/h (3 Bft) N-NW 347 2 min 6,8 UV-I 875 W/m 8,7 C 14,3 C 25,7 km/h (4 Bft)
26.05.2020 12:54 18,1 C 23,9 C 52 % 1036,5 hPa 0,0 l/m 17,7 km/h (3 Bft) N 355 2 min 6,9 UV-I 879 W/m 8,1 C 14,3 C 24,1 km/h (4 Bft)
26.05.2020 12:56 18,1 C 23,9 C 54 % 1036,4 hPa 0,0 l/m 18,1 km/h (3 Bft) N 360 2 min 6,9 UV-I 879 W/m 8,6 C 14,2 C 22,5 km/h (4 Bft)
26.05.2020 12:58 18,2 C 23,9 C 54 % 1036,4 hPa 0,0 l/m 16,2 km/h (3 Bft) N 355 2 min 6,9 UV-I 878 W/m 8,7 C 14,8 C 22,5 km/h (4 Bft)
26.05.2020 13:00 18,2 C 23,9 C 51 % 1036,4 hPa 0,0 l/m 16,1 km/h (3 Bft) N-NW 336 2 min 6,8 UV-I 867 W/m 7,9 C 14,8 C 24,1 km/h (4 Bft)
26.05.2020 13:02 18,2 C 24,4 C 54 % 1036,3 hPa 0,0 l/m 12,7 km/h (3 Bft) N 5 2 min 6,7 UV-I 828 W/m 8,7 C 15,7 C 24,1 km/h (4 Bft)
26.05.2020 13:04 18,1 C 23,9 C 50 % 1036,4 hPa 0,0 l/m 24,4 km/h (4 Bft) N 10 2 min 6,6 UV-I 803 W/m 7,5 C 12,9 C 29,0 km/h (5 Bft)
26.05.2020 13:06 17,8 C 23,9 C 53 % 1036,3 hPa 0,0 l/m 16,5 km/h (3 Bft) N-NW 336 2 min 6,8 UV-I 861 W/m 8,1 C 14,2 C 25,7 km/h (4 Bft)
26.05.2020 13:08 17,8 C 24,4 C 53 % 1036,3 hPa 0,0 l/m 16,3 km/h (3 Bft) N-NW 337 2 min 6,9 UV-I 880 W/m 8,1 C 14,2 C 22,5 km/h (4 Bft)
26.05.2020 13:10 17,9 C 24,4 C 53 % 1036,3 hPa 0,0 l/m 18,3 km/h (3 Bft) N-NO 16 2 min 6,6 UV-I 840 W/m 8,2 C 13,9 C 25,7 km/h (4 Bft)
26.05.2020 13:12 17,9 C 23,9 C 50 % 1036,3 hPa 0,0 l/m 17,1 km/h (3 Bft) N-NW 347 2 min 6,6 UV-I 803 W/m 7,3 C 14,2 C 25,7 km/h (4 Bft)
26.05.2020 13:14 17,8 C 24,4 C 49 % 1036,3 hPa 0,0 l/m 13,0 km/h (3 Bft) NW 318 2 min 6,8 UV-I 869 W/m 6,9 C 15,2 C 22,5 km/h (4 Bft)
26.05.2020 13:16 17,8 C 23,9 C 51 % 1036,2 hPa 0,0 l/m 15,7 km/h (3 Bft) W-NW 292 2 min 7,0 UV-I 888 W/m 7,5 C 14,4 C 22,5 km/h (4 Bft)
26.05.2020 13:18 18,1 C 24,4 C 50 % 1036,3 hPa 0,0 l/m 15,6 km/h (3 Bft) W-NW 297 2 min 7,0 UV-I 890 W/m 7,5 C 14,8 C 24,1 km/h (4 Bft)
26.05.2020 13:20 18,1 C 25,0 C 52 % 1036,3 hPa 0,0 l/m 8,9 km/h (2 Bft) N 5 2 min 7,1 UV-I 891 W/m 8,1 C 17,0 C 14,5 km/h (3 Bft)
26.05.2020 13:22 18,2 C 25,0 C 51 % 1036,3 hPa 0,0 l/m 18,2 km/h (3 Bft) N-NW 335 2 min 7,1 UV-I 889 W/m 7,9 C 14,3 C 25,7 km/h (4 Bft)
26.05.2020 13:24 18,2 C 25,6 C 50 % 1036,2 hPa 0,0 l/m 19,7 km/h (3 Bft) N-NW 338 2 min 7,0 UV-I 872 W/m 7,6 C 13,9 C 25,7 km/h (4 Bft)
26.05.2020 13:26 18,1 C 25,0 C 51 % 1036,2 hPa 0,0 l/m 14,1 km/h (3 Bft) N 5 2 min 7,0 UV-I 886 W/m 7,8 C 15,2 C 19,3 km/h (3 Bft)
26.05.2020 13:28 18,3 C 25,6 C 54 % 1036,1 hPa 0,0 l/m 13,9 km/h (3 Bft) NO 38 2 min 7,0 UV-I 880 W/m 8,8 C 15,5 C 19,3 km/h (3 Bft)
26.05.2020 13:30 18,7 C 26,1 C 52 % 1036,2 hPa 0,0 l/m 12,0 km/h (2 Bft) N 5 2 min 6,9 UV-I 872 W/m 8,6 C 16,5 C 16,1 km/h (3 Bft)
26.05.2020 13:32 18,7 C 25,6 C 48 % 1036,1 hPa 0,0 l/m 19,8 km/h (3 Bft) N 5 2 min 6,8 UV-I 861 W/m 7,5 C 14,6 C 25,7 km/h (4 Bft)
26.05.2020 13:34 18,5 C 25,6 C 46 % 1036,1 hPa 0,0 l/m 19,2 km/h (3 Bft) N 5 2 min 6,9 UV-I 868 W/m 6,7 C 14,4 C 25,7 km/h (4 Bft)
26.05.2020 13:36 18,2 C 25,6 C 50 % 1036,2 hPa 0,0 l/m 17,4 km/h (3 Bft) N-NW 333 2 min 6,9 UV-I 849 W/m 7,6 C 14,5 C 24,1 km/h (4 Bft)
26.05.2020 13:38 18,2 C 25,6 C 46 % 1036,1 hPa 0,0 l/m 18,9 km/h (3 Bft) N 355 2 min 7,0 UV-I 868 W/m 6,4 C 14,1 C 27,4 km/h (4 Bft)
26.05.2020 13:40 18,2 C 25,0 C 48 % 1036,1 hPa 0,0 l/m 21,6 km/h (4 Bft) N-NW 342 2 min 7,0 UV-I 890 W/m 7,0 C 13,6 C 29,0 km/h (5 Bft)
26.05.2020 13:42 18,2 C 25,0 C 47 % 1036,1 hPa 0,0 l/m 20,9 km/h (4 Bft) N 360 2 min 7,1 UV-I 897 W/m 6,7 C 13,7 C 27,4 km/h (4 Bft)
26.05.2020 13:44 18,3 C 25,0 C 50 % 1036,1 hPa 0,0 l/m 16,4 km/h (3 Bft) N-NW 339 2 min 7,1 UV-I 893 W/m 7,7 C 14,8 C 24,1 km/h (4 Bft)
26.05.2020 13:46 18,7 C 26,1 C 54 % 1036,1 hPa 0,0 l/m 11,2 km/h (2 Bft) N 360 2 min 7,0 UV-I 877 W/m 9,2 C 16,8 C 22,5 km/h (4 Bft)
26.05.2020 13:48 18,6 C 25,6 C 49 % 1036,0 hPa 0,0 l/m 19,1 km/h (3 Bft) N 360 2 min 6,9 UV-I 867 W/m 7,7 C 14,6 C 24,1 km/h (4 Bft)
26.05.2020 13:50 18,3 C 25,6 C 48 % 1036,1 hPa 0,0 l/m 20,5 km/h (4 Bft) N-NO 26 2 min 6,9 UV-I 869 W/m 7,1 C 13,9 C 25,7 km/h (4 Bft)
26.05.2020 13:52 18,4 C 26,1 C 52 % 1036,1 hPa 0,0 l/m 15,4 km/h (3 Bft) N 360 2 min 7,0 UV-I 888 W/m 8,4 C 15,2 C 22,5 km/h (4 Bft)
26.05.2020 13:54 18,7 C 26,1 C 47 % 1036,1 hPa 0,0 l/m 18,0 km/h (3 Bft) N-NW 330 2 min 7,1 UV-I 894 W/m 7,2 C 15,0 C 25,7 km/h (4 Bft)
26.05.2020 13:56 18,6 C 25,6 C 46 % 1036,1 hPa 0,0 l/m 16,9 km/h (3 Bft) N-NW 334 2 min 7,1 UV-I 897 W/m 6,8 C 15,1 C 29,0 km/h (5 Bft)
26.05.2020 13:58 18,6 C 26,1 C 47 % 1036,1 hPa 0,0 l/m 17,5 km/h (3 Bft) NW 325 2 min 7,0 UV-I 890 W/m 7,1 C 14,9 C 27,4 km/h (4 Bft)
26.05.2020 14:00 18,6 C 25,6 C 49 % 1036,1 hPa 0,0 l/m 17,7 km/h (3 Bft) N-NO 17 2 min 7,1 UV-I 895 W/m 7,7 C 14,9 C 27,4 km/h (4 Bft)
26.05.2020 14:02 18,7 C 25,6 C 47 % 1036,0 hPa 0,0 l/m 15,0 km/h (3 Bft) N 5 2 min 7,0 UV-I 892 W/m 7,2 C 15,7 C 24,1 km/h (4 Bft)
26.05.2020 14:04 18,8 C 26,7 C 48 % 1036,0 hPa 0,0 l/m 11,6 km/h (2 Bft) N 5 2 min 7,0 UV-I 891 W/m 7,6 C 16,8 C 22,5 km/h (4 Bft)
26.05.2020 14:06 18,8 C 26,1 C 48 % 1036,0 hPa 0,0 l/m 12,4 km/h (3 Bft) N 355 2 min 7,0 UV-I 885 W/m 7,6 C 16,5 C 20,9 km/h (4 Bft)
26.05.2020 14:08 18,8 C 26,7 C 46 % 1036,0 hPa 0,0 l/m 10,8 km/h (2 Bft) NO 37 2 min 7,0 UV-I 885 W/m 6,9 C 17,0 C 17,7 km/h (3 Bft)
26.05.2020 14:10 18,8 C 26,1 C 49 % 1036,0 hPa 0,0 l/m 21,0 km/h (4 Bft) N 5 2 min 7,0 UV-I 885 W/m 7,9 C 14,5 C 27,4 km/h (4 Bft)
26.05.2020 14:12 18,8 C 26,7 C 47 % 1036,1 hPa 0,0 l/m 15,7 km/h (3 Bft) N-NW 334 2 min 7,0 UV-I 888 W/m 7,2 C 15,6 C 24,1 km/h (4 Bft)
26.05.2020 14:14 18,6 C 26,1 C 46 % 1036,0 hPa 0,0 l/m 14,1 km/h (3 Bft) N-NW 341 2 min 6,9 UV-I 887 W/m 6,8 C 15,8 C 20,9 km/h (4 Bft)
26.05.2020 14:16 18,5 C 26,1 C 48 % 1036,0 hPa 0,0 l/m 16,0 km/h (3 Bft) N 360 2 min 6,9 UV-I 880 W/m 7,3 C 15,2 C 22,5 km/h (4 Bft)
26.05.2020 14:18 18,7 C 26,7 C 49 % 1036,0 hPa 0,0 l/m 14,0 km/h (3 Bft) N 5 2 min 6,9 UV-I 878 W/m 7,8 C 15,9 C 20,9 km/h (4 Bft)
26.05.2020 14:20 18,7 C 26,7 C 50 % 1035,9 hPa 0,0 l/m 11,2 km/h (2 Bft) N 355 2 min 6,9 UV-I 872 W/m 8,1 C 16,8 C 17,7 km/h (3 Bft)
26.05.2020 14:22 18,8 C 27,2 C 49 % 1035,9 hPa 0,0 l/m 15,4 km/h (3 Bft) N 355 2 min 6,8 UV-I 875 W/m 7,9 C 15,7 C 20,9 km/h (4 Bft)
26.05.2020 14:24 18,9 C 26,1 C 49 % 1035,9 hPa 0,0 l/m 13,2 km/h (3 Bft) N 5 2 min 6,8 UV-I 875 W/m 7,9 C 16,4 C 19,3 km/h (3 Bft)
26.05.2020 14:26 18,9 C 26,7 C 50 % 1036,0 hPa 0,0 l/m 13,4 km/h (3 Bft) N-NO 17 2 min 6,8 UV-I 876 W/m 8,2 C 16,3 C 24,1 km/h (4 Bft)
26.05.2020 14:28 18,8 C 25,6 C 48 % 1035,9 hPa 0,0 l/m 11,2 km/h (2 Bft) N-NO 32 2 min 6,8 UV-I 873 W/m 7,6 C 16,9 C 17,7 km/h (3 Bft)
26.05.2020 14:30 18,8 C 26,1 C 51 % 1035,9 hPa 0,0 l/m 11,7 km/h (2 Bft) N-NO 14 2 min 6,8 UV-I 879 W/m 8,4 C 16,7 C 17,7 km/h (3 Bft)
26.05.2020 14:32 19,2 C 26,1 C 51 % 1035,9 hPa 0,0 l/m 10,3 km/h (2 Bft) N-NO 22 2 min 6,8 UV-I 867 W/m 8,8 C 17,7 C 14,5 km/h (3 Bft)
26.05.2020 14:34 19,0 C 26,1 C 49 % 1036,0 hPa 0,0 l/m 8,8 km/h (2 Bft) NW 320 2 min 6,6 UV-I 822 W/m 8,0 C 18,0 C 19,3 km/h (3 Bft)
26.05.2020 14:36 19,2 C 26,7 C 49 % 1035,8 hPa 0,0 l/m 12,3 km/h (3 Bft) N-NW 348 2 min 6,6 UV-I 840 W/m 8,2 C 17,0 C 20,9 km/h (4 Bft)
26.05.2020 14:38 19,1 C 27,2 C 48 % 1035,9 hPa 0,0 l/m 12,8 km/h (3 Bft) N-NW 340 2 min 6,6 UV-I 871 W/m 7,8 C 16,8 C 24,1 km/h (4 Bft)
26.05.2020 14:40 19,0 C 26,7 C 47 % 1035,9 hPa 0,0 l/m 15,2 km/h (3 Bft) N 5 2 min 6,6 UV-I 857 W/m 7,4 C 16,0 C 24,1 km/h (4 Bft)
26.05.2020 14:42 18,9 C 26,7 C 51 % 1035,8 hPa 0,0 l/m 9,8 km/h (2 Bft) N 350 2 min 6,1 UV-I 787 W/m 8,5 C 17,5 C 24,1 km/h (4 Bft)
26.05.2020 14:44 18,9 C 26,1 C 51 % 1035,8 hPa 0,0 l/m 17,0 km/h (3 Bft) N-NO 14 2 min 6,0 UV-I 725 W/m 8,5 C 15,4 C 24,1 km/h (4 Bft)
26.05.2020 14:46 18,8 C 26,1 C 50 % 1035,9 hPa 0,0 l/m 13,2 km/h (3 Bft) N 5 2 min 6,2 UV-I 794 W/m 8,2 C 16,3 C 19,3 km/h (3 Bft)
26.05.2020 14:48 19,1 C 26,7 C 51 % 1035,9 hPa 0,0 l/m 15,2 km/h (3 Bft) N 355 2 min 6,3 UV-I 822 W/m 8,7 C 16,1 C 22,5 km/h (4 Bft)
26.05.2020 14:50 19,1 C 26,7 C 49 % 1036,0 hPa 0,0 l/m 17,5 km/h (3 Bft) NW 322 2 min 6,4 UV-I 838 W/m 8,1 C 15,6 C 25,7 km/h (4 Bft)
26.05.2020 14:52 18,9 C 26,7 C 47 % 1035,9 hPa 0,0 l/m 10,8 km/h (2 Bft) NO 48 2 min 6,3 UV-I 823 W/m 7,3 C 17,1 C 20,9 km/h (4 Bft)
26.05.2020 14:54 19,2 C 27,2 C 52 % 1035,9 hPa 0,0 l/m 11,4 km/h (2 Bft) NW 317 2 min 6,3 UV-I 804 W/m 9,1 C 17,3 C 17,7 km/h (3 Bft)
26.05.2020 14:56 19,2 C 26,7 C 49 % 1035,8 hPa 0,0 l/m 7,9 km/h (2 Bft) N 355 2 min 6,3 UV-I 812 W/m 8,2 C 18,6 C 14,5 km/h (3 Bft)
26.05.2020 14:58 19,3 C 26,7 C 50 % 1035,8 hPa 0,0 l/m 10,5 km/h (2 Bft) N-NW 346 2 min 6,2 UV-I 808 W/m 8,6 C 17,7 C 19,3 km/h (3 Bft)
26.05.2020 15:00 19,4 C 26,7 C 48 % 1035,8 hPa 0,0 l/m 16,5 km/h (3 Bft) N-NO 31 2 min 6,3 UV-I 837 W/m 8,1 C 16,2 C 24,1 km/h (4 Bft)
26.05.2020 15:02 19,6 C 27,2 C 49 % 1035,8 hPa 0,0 l/m 18,0 km/h (3 Bft) N 5 2 min 6,4 UV-I 850 W/m 8,6 C 16,1 C 27,4 km/h (4 Bft)
26.05.2020 15:04 19,5 C 27,2 C 48 % 1035,8 hPa 0,0 l/m 13,5 km/h (3 Bft) N-NO 15 2 min 6,4 UV-I 852 W/m 8,2 C 17,0 C 19,3 km/h (3 Bft)
26.05.2020 15:06 19,4 C 27,2 C 49 % 1035,9 hPa 0,0 l/m 12,4 km/h (3 Bft) N-NO 21 2 min 6,4 UV-I 844 W/m 8,4 C 17,2 C 22,5 km/h (4 Bft)
26.05.2020 15:08 19,6 C 27,2 C 49 % 1035,8 hPa 0,0 l/m 14,2 km/h (3 Bft) NO 41 2 min 6,3 UV-I 828 W/m 8,6 C 17,0 C 24,1 km/h (4 Bft)
26.05.2020 15:10 19,6 C 27,2 C 51 % 1035,8 hPa 0,0 l/m 13,8 km/h (3 Bft) N-NW 339 2 min 6,3 UV-I 837 W/m 9,2 C 17,1 C 24,1 km/h (4 Bft)
26.05.2020 15:12 19,6 C 27,2 C 47 % 1035,9 hPa 0,0 l/m 12,8 km/h (3 Bft) N-NO 12 2 min 6,2 UV-I 824 W/m 8,0 C 17,3 C 20,9 km/h (4 Bft)
26.05.2020 15:14 19,5 C 27,2 C 48 % 1035,8 hPa 0,0 l/m 7,9 km/h (2 Bft) N 355 2 min 6,2 UV-I 824 W/m 8,2 C 18,9 C 16,1 km/h (3 Bft)
26.05.2020 15:16 19,4 C 26,7 C 45 % 1035,8 hPa 0,0 l/m 15,4 km/h (3 Bft) N 360 2 min 6,2 UV-I 827 W/m 7,2 C 16,4 C 22,5 km/h (4 Bft)
26.05.2020 15:18 19,2 C 26,7 C 44 % 1035,8 hPa 0,0 l/m 12,6 km/h (3 Bft) N-NW 331 2 min 6,2 UV-I 826 W/m 6,7 C 16,9 C 19,3 km/h (3 Bft)
26.05.2020 15:20 19,3 C 27,2 C 46 % 1035,9 hPa 0,0 l/m 10,4 km/h (2 Bft) NW 324 2 min 6,1 UV-I 814 W/m 7,4 C 17,7 C 20,9 km/h (4 Bft)
26.05.2020 15:22 19,3 C 27,2 C 43 % 1035,9 hPa 0,0 l/m 12,4 km/h (3 Bft) N-NW 329 2 min 6,1 UV-I 826 W/m 6,4 C 17,1 C 24,1 km/h (4 Bft)
26.05.2020 15:24 19,2 C 26,7 C 44 % 1035,9 hPa 0,0 l/m 17,0 km/h (3 Bft) NW 320 2 min 6,1 UV-I 822 W/m 6,7 C 15,8 C 27,4 km/h (4 Bft)
26.05.2020 15:26 19,0 C 26,7 C 45 % 1035,9 hPa 0,0 l/m 21,0 km/h (4 Bft) N 355 2 min 6,0 UV-I 815 W/m 6,8 C 14,7 C 25,7 km/h (4 Bft)
26.05.2020 15:28 18,9 C 26,7 C 47 % 1035,8 hPa 0,0 l/m 16,3 km/h (3 Bft) N-NO 30 2 min 5,9 UV-I 804 W/m 7,3 C 15,6 C 22,5 km/h (4 Bft)
26.05.2020 15:30 19,0 C 26,7 C 45 % 1035,8 hPa 0,0 l/m 15,9 km/h (3 Bft) N-NW 336 2 min 5,9 UV-I 792 W/m 6,8 C 15,8 C 27,4 km/h (4 Bft)
26.05.2020 15:32 19,1 C 26,7 C 47 % 1035,8 hPa 0,0 l/m 16,6 km/h (3 Bft) N-NO 21 2 min 5,8 UV-I 786 W/m 7,5 C 15,8 C 29,0 km/h (5 Bft)
26.05.2020 15:34 19,2 C 27,2 C 46 % 1035,8 hPa 0,0 l/m 16,3 km/h (3 Bft) N-NO 31 2 min 5,8 UV-I 787 W/m 7,3 C 16,0 C 24,1 km/h (4 Bft)
26.05.2020 15:36 19,3 C 26,7 C 48 % 1035,8 hPa 0,0 l/m 14,5 km/h (3 Bft) N 5 2 min 5,8 UV-I 793 W/m 8,0 C 16,5 C 22,5 km/h (4 Bft)
26.05.2020 15:38 19,5 C 27,2 C 49 % 1035,8 hPa 0,0 l/m 19,2 km/h (3 Bft) N 360 2 min 5,8 UV-I 785 W/m 8,5 C 15,7 C 25,7 km/h (4 Bft)
26.05.2020 15:40 19,4 C 27,2 C 46 % 1035,7 hPa 0,0 l/m 16,2 km/h (3 Bft) NO 36 2 min 5,5 UV-I 755 W/m 7,5 C 16,2 C 22,5 km/h (4 Bft)
26.05.2020 15:42 19,2 C 27,2 C 48 % 1035,6 hPa 0,0 l/m 12,9 km/h (3 Bft) N 11 2 min 5,5 UV-I 757 W/m 7,9 C 16,8 C 19,3 km/h (3 Bft)
26.05.2020 15:44 19,3 C 27,2 C 46 % 1035,6 hPa 0,0 l/m 10,6 km/h (2 Bft) NO 55 2 min 5,5 UV-I 747 W/m 7,4 C 17,7 C 16,1 km/h (3 Bft)
26.05.2020 15:46 19,3 C 26,7 C 46 % 1035,7 hPa 0,0 l/m 20,2 km/h (4 Bft) NO 45 2 min 5,5 UV-I 757 W/m 7,4 C 15,3 C 29,0 km/h (5 Bft)
26.05.2020 15:48 19,0 C 25,0 C 44 % 1035,7 hPa 0,0 l/m 16,4 km/h (3 Bft) N-NO 16 2 min 5,6 UV-I 768 W/m 6,5 C 15,7 C 20,9 km/h (4 Bft)
26.05.2020 15:50 19,0 C 26,1 C 47 % 1035,6 hPa 0,0 l/m 8,1 km/h (2 Bft) N-NW 344 2 min 5,5 UV-I 769 W/m 7,4 C 18,3 C 16,1 km/h (3 Bft)
26.05.2020 15:52 19,1 C 27,2 C 48 % 1035,7 hPa 0,0 l/m 12,6 km/h (3 Bft) N 5 2 min 5,4 UV-I 759 W/m 7,8 C 16,8 C 20,9 km/h (4 Bft)
26.05.2020 15:54 19,3 C 27,2 C 46 % 1035,7 hPa 0,0 l/m 17,8 km/h (3 Bft) N 355 2 min 5,4 UV-I 752 W/m 7,4 C 15,8 C 24,1 km/h (4 Bft)
26.05.2020 15:56 19,2 C 27,2 C 43 % 1035,7 hPa 0,0 l/m 18,4 km/h (3 Bft) N-NW 345 2 min 5,4 UV-I 758 W/m 6,3 C 15,5 C 27,4 km/h (4 Bft)
26.05.2020 15:58 19,2 C 27,2 C 43 % 1035,7 hPa 0,0 l/m 14,8 km/h (3 Bft) N-NW 348 2 min 5,4 UV-I 760 W/m 6,3 C 16,3 C 22,5 km/h (4 Bft)
26.05.2020 16:00 19,1 C 27,2 C 45 % 1035,7 hPa 0,0 l/m 8,0 km/h (2 Bft) NO 35 2 min 5,3 UV-I 736 W/m 6,9 C 18,4 C 12,9 km/h (3 Bft)
26.05.2020 16:02 19,1 C 27,2 C 45 % 1035,6 hPa 0,0 l/m 12,4 km/h (3 Bft) N-NW 347 2 min 5,2 UV-I 728 W/m 6,9 C 16,9 C 17,7 km/h (3 Bft)
26.05.2020 16:04 19,3 C 27,2 C 47 % 1035,5 hPa 0,0 l/m 12,2 km/h (2 Bft) N 360 2 min 5,2 UV-I 752 W/m 7,7 C 17,2 C 19,3 km/h (3 Bft)
26.05.2020 16:06 19,6 C 27,8 C 49 % 1035,5 hPa 0,0 l/m 14,7 km/h (3 Bft) N 350 2 min 5,2 UV-I 738 W/m 8,6 C 16,8 C 24,1 km/h (4 Bft)
26.05.2020 16:08 19,5 C 27,8 C 46 % 1035,6 hPa 0,0 l/m 13,7 km/h (3 Bft) N 5 2 min 5,2 UV-I 738 W/m 7,6 C 17,0 C 20,9 km/h (4 Bft)
26.05.2020 16:10 19,4 C 27,8 C 46 % 1035,6 hPa 0,0 l/m 11,0 km/h (2 Bft) N-NO 21 2 min 5,1 UV-I 739 W/m 7,5 C 17,6 C 16,1 km/h (3 Bft)
26.05.2020 16:12 19,3 C 27,2 C 44 % 1035,5 hPa 0,0 l/m 10,0 km/h (2 Bft) N 355 2 min 5,1 UV-I 735 W/m 6,7 C 17,9 C 17,7 km/h (3 Bft)
26.05.2020 16:14 19,4 C 27,2 C 45 % 1035,6 hPa 0,0 l/m 14,5 km/h (3 Bft) N-NW 343 2 min 5,0 UV-I 734 W/m 7,2 C 16,6 C 22,5 km/h (4 Bft)
26.05.2020 16:16 19,4 C 27,2 C 43 % 1035,5 hPa 0,0 l/m 15,8 km/h (3 Bft) N-NW 337 2 min 5,0 UV-I 731 W/m 6,5 C 16,3 C 24,1 km/h (4 Bft)
26.05.2020 16:18 19,4 C 28,3 C 44 % 1035,5 hPa 0,0 l/m 10,9 km/h (2 Bft) N-NO 18 2 min 5,0 UV-I 725 W/m 6,8 C 17,7 C 16,1 km/h (3 Bft)
26.05.2020 16:20 19,6 C 28,3 C 48 % 1035,6 hPa 0,0 l/m 10,6 km/h (2 Bft) N-NW 338 2 min 4,9 UV-I 723 W/m 8,3 C 18,0 C 16,1 km/h (3 Bft)
26.05.2020 16:22 19,7 C 28,3 C 47 % 1035,5 hPa 0,0 l/m 15,9 km/h (3 Bft) N-NO 13 2 min 4,9 UV-I 725 W/m 8,1 C 16,7 C 22,5 km/h (4 Bft)
26.05.2020 16:24 19,6 C 27,8 C 44 % 1035,6 hPa 0,0 l/m 19,2 km/h (3 Bft) NO 34 2 min 4,9 UV-I 725 W/m 7,0 C 15,8 C 24,1 km/h (4 Bft)
26.05.2020 16:26 19,4 C 27,2 C 44 % 1035,6 hPa 0,0 l/m 15,3 km/h (3 Bft) N-NO 13 2 min 4,9 UV-I 724 W/m 6,8 C 16,4 C 29,0 km/h (5 Bft)
26.05.2020 16:28 19,3 C 26,7 C 45 % 1035,6 hPa 0,0 l/m 20,7 km/h (4 Bft) N-NW 347 2 min 4,8 UV-I 719 W/m 7,1 C 15,2 C 27,4 km/h (4 Bft)
26.05.2020 16:30 19,2 C 27,2 C 46 % 1035,6 hPa 0,0 l/m 18,2 km/h (3 Bft) N-NW 335 2 min 4,7 UV-I 714 W/m 7,3 C 15,5 C 25,7 km/h (4 Bft)
26.05.2020 16:32 19,3 C 27,2 C 44 % 1035,5 hPa 0,0 l/m 13,8 km/h (3 Bft) N 360 2 min 4,7 UV-I 710 W/m 6,7 C 16,7 C 19,3 km/h (3 Bft)
26.05.2020 16:34 19,3 C 27,2 C 47 % 1035,5 hPa 0,0 l/m 11,3 km/h (2 Bft) N 355 2 min 4,7 UV-I 714 W/m 7,7 C 17,4 C 17,7 km/h (3 Bft)
26.05.2020 16:36 19,3 C 27,8 C 46 % 1035,4 hPa 0,0 l/m 12,8 km/h (3 Bft) N-NO 13 2 min 4,6 UV-I 708 W/m 7,4 C 17,0 C 24,1 km/h (4 Bft)
26.05.2020 16:38 19,3 C 27,2 C 46 % 1035,5 hPa 0,0 l/m 14,5 km/h (3 Bft) N-NW 340 2 min 4,5 UV-I 697 W/m 7,4 C 16,5 C 19,3 km/h (3 Bft)
26.05.2020 16:40 19,4 C 27,8 C 44 % 1035,5 hPa 0,0 l/m 12,4 km/h (3 Bft) N-NW 343 2 min 4,5 UV-I 688 W/m 6,8 C 17,2 C 20,9 km/h (4 Bft)
26.05.2020 16:42 19,3 C 27,2 C 45 % 1035,5 hPa 0,0 l/m 15,7 km/h (3 Bft) N 355 2 min 4,4 UV-I 686 W/m 7,1 C 16,2 C 24,1 km/h (4 Bft)
26.05.2020 16:44 19,4 C 27,2 C 45 % 1035,5 hPa 0,0 l/m 15,1 km/h (3 Bft) N 11 2 min 4,4 UV-I 682 W/m 7,2 C 16,5 C 24,1 km/h (4 Bft)
26.05.2020 16:46 19,6 C 27,2 C 45 % 1035,5 hPa 0,0 l/m 17,2 km/h (3 Bft) N-NO 30 2 min 4,3 UV-I 680 W/m 7,3 C 16,3 C 25,7 km/h (4 Bft)
26.05.2020 16:48 19,6 C 27,2 C 44 % 1035,5 hPa 0,0 l/m 17,7 km/h (3 Bft) N-NO 28 2 min 4,3 UV-I 683 W/m 7,0 C 16,1 C 27,4 km/h (4 Bft)
26.05.2020 16:50 19,6 C 27,2 C 44 % 1035,6 hPa 0,0 l/m 15,4 km/h (3 Bft) NO 46 2 min 4,2 UV-I 677 W/m 7,0 C 16,7 C 24,1 km/h (4 Bft)
26.05.2020 16:52 19,3 C 27,2 C 44 % 1035,5 hPa 0,0 l/m 13,0 km/h (3 Bft) NO 46 2 min 4,2 UV-I 680 W/m 6,7 C 16,9 C 19,3 km/h (3 Bft)
26.05.2020 16:54 19,3 C 26,1 C 43 % 1035,5 hPa 0,0 l/m 17,1 km/h (3 Bft) N-NO 28 2 min 4,1 UV-I 667 W/m 6,4 C 15,9 C 22,5 km/h (4 Bft)
26.05.2020 16:56 19,4 C 27,2 C 46 % 1035,4 hPa 0,0 l/m 12,9 km/h (3 Bft) NO 40 2 min 4,1 UV-I 655 W/m 7,5 C 17,1 C 20,9 km/h (4 Bft)
26.05.2020 16:58 19,3 C 26,1 C 45 % 1035,4 hPa 0,0 l/m 16,3 km/h (3 Bft) N-NO 26 2 min 4,1 UV-I 662 W/m 7,1 C 16,1 C 20,9 km/h (4 Bft)
26.05.2020 17:00 19,3 C 26,1 C 46 % 1035,4 hPa 0,0 l/m 16,2 km/h (3 Bft) N-NO 16 2 min 4,0 UV-I 650 W/m 7,4 C 16,1 C 20,9 km/h (4 Bft)
26.05.2020 17:02 19,3 C 26,1 C 47 % 1035,3 hPa 0,0 l/m 9,3 km/h (2 Bft) N 5 2 min 3,9 UV-I 617 W/m 7,7 C 18,1 C 14,5 km/h (3 Bft)
26.05.2020 17:04 19,6 C 27,2 C 48 % 1035,4 hPa 0,0 l/m 16,0 km/h (3 Bft) N-NO 31 2 min 3,7 UV-I 612 W/m 8,3 C 16,5 C 22,5 km/h (4 Bft)
26.05.2020 17:06 19,6 C 27,2 C 47 % 1035,3 hPa 0,0 l/m 12,0 km/h (2 Bft) N-NO 16 2 min 3,7 UV-I 595 W/m 8,0 C 17,6 C 20,9 km/h (4 Bft)
26.05.2020 17:08 19,6 C 27,8 C 47 % 1035,3 hPa 0,0 l/m 9,2 km/h (2 Bft) NO 34 2 min 3,7 UV-I 588 W/m 8,0 C 18,5 C 20,9 km/h (4 Bft)
26.05.2020 17:10 19,6 C 27,2 C 47 % 1035,4 hPa 0,0 l/m 16,7 km/h (3 Bft) N-NO 24 0 min 3,6 UV-I 587 W/m 8,0 C 16,4 C 22,5 km/h (4 Bft)
26.05.2020 17:12 19,4 C 26,1 C 45 % 1035,3 hPa 0,0 l/m 14,2 km/h (3 Bft) NO 34 2 min 3,6 UV-I 597 W/m 7,2 C 16,7 C 19,3 km/h (3 Bft)
26.05.2020 17:14 19,3 C 26,7 C 45 % 1035,4 hPa 0,0 l/m 16,2 km/h (3 Bft) N 5 2 min 3,6 UV-I 598 W/m 7,1 C 16,1 C 20,9 km/h (4 Bft)
26.05.2020 17:16 19,4 C 27,2 C 47 % 1035,3 hPa 0,0 l/m 14,7 km/h (3 Bft) N-NO 30 2 min 3,6 UV-I 590 W/m 7,8 C 16,6 C 22,5 km/h (4 Bft)
26.05.2020 17:18 19,4 C 27,8 C 45 % 1035,4 hPa 0,0 l/m 13,3 km/h (3 Bft) N 350 2 min 3,6 UV-I 613 W/m 7,2 C 17,0 C 19,3 km/h (3 Bft)
26.05.2020 17:20 19,4 C 27,2 C 43 % 1035,5 hPa 0,0 l/m 14,8 km/h (3 Bft) NO 40 2 min 3,6 UV-I 611 W/m 6,5 C 16,6 C 19,3 km/h (3 Bft)
26.05.2020 17:22 19,3 C 27,8 C 45 % 1035,3 hPa 0,0 l/m 12,4 km/h (3 Bft) N-NW 348 2 min 3,5 UV-I 609 W/m 7,1 C 17,1 C 19,3 km/h (3 Bft)
26.05.2020 17:24 19,6 C 28,3 C 49 % 1035,4 hPa 0,0 l/m 8,6 km/h (2 Bft) N 355 2 min 3,4 UV-I 592 W/m 8,6 C 18,7 C 17,7 km/h (3 Bft)
26.05.2020 17:26 19,6 C 27,8 C 46 % 1035,3 hPa 0,0 l/m 16,3 km/h (3 Bft) NO 35 0 min 3,3 UV-I 564 W/m 7,7 C 16,5 C 22,5 km/h (4 Bft)
26.05.2020 17:28 19,3 C 27,2 C 47 % 1035,3 hPa 0,0 l/m 15,6 km/h (3 Bft) N-NO 13 0 min 3,0 UV-I 464 W/m 7,7 C 16,3 C 22,5 km/h (4 Bft)
26.05.2020 17:30 19,1 C 26,1 C 47 % 1035,4 hPa 0,0 l/m 16,5 km/h (3 Bft) N 350 0 min 3,0 UV-I 492 W/m 7,5 C 15,8 C 22,5 km/h (4 Bft)
26.05.2020 17:32 19,1 C 26,1 C 48 % 1035,4 hPa 0,0 l/m 13,8 km/h (3 Bft) N-NO 17 0 min 3,1 UV-I 533 W/m 7,8 C 16,5 C 20,9 km/h (4 Bft)
26.05.2020 17:34 19,1 C 26,7 C 47 % 1035,5 hPa 0,0 l/m 10,9 km/h (2 Bft) N-NO 24 0 min 3,2 UV-I 563 W/m 7,5 C 17,3 C 16,1 km/h (3 Bft)
26.05.2020 17:36 19,1 C 26,7 C 46 % 1035,4 hPa 0,0 l/m 8,8 km/h (2 Bft) N 350 0 min 3,2 UV-I 569 W/m 7,2 C 18,1 C 12,9 km/h (3 Bft)
26.05.2020 17:38 19,1 C 26,7 C 46 % 1035,4 hPa 0,0 l/m 10,2 km/h (2 Bft) N-NW 327 0 min 3,1 UV-I 528 W/m 7,2 C 17,6 C 19,3 km/h (3 Bft)
26.05.2020 17:40 18,9 C 26,1 C 45 % 1035,4 hPa 0,0 l/m 10,8 km/h (2 Bft) N-NO 16 0 min 2,9 UV-I 521 W/m 6,7 C 17,1 C 20,9 km/h (4 Bft)
26.05.2020 17:42 18,9 C 26,1 C 47 % 1035,5 hPa 0,0 l/m 14,1 km/h (3 Bft) N-NW 339 0 min 2,8 UV-I 470 W/m 7,3 C 16,2 C 20,9 km/h (4 Bft)
26.05.2020 17:44 18,8 C 25,6 C 45 % 1035,5 hPa 0,0 l/m 12,5 km/h (3 Bft) N 355 0 min 2,5 UV-I 379 W/m 6,6 C 16,5 C 17,7 km/h (3 Bft)
26.05.2020 17:46 18,8 C 25,0 C 47 % 1035,5 hPa 0,0 l/m 10,5 km/h (2 Bft) N-NW 348 0 min 2,6 UV-I 429 W/m 7,2 C 17,1 C 16,1 km/h (3 Bft)
26.05.2020 17:48 18,9 C 26,1 C 47 % 1035,4 hPa 0,0 l/m 14,3 km/h (3 Bft) N 5 0 min 2,9 UV-I 466 W/m 7,3 C 16,1 C 19,3 km/h (3 Bft)
26.05.2020 17:50 19,0 C 26,1 C 47 % 1035,4 hPa 0,0 l/m 14,9 km/h (3 Bft) N 5 0 min 2,9 UV-I 538 W/m 7,4 C 16,1 C 20,9 km/h (4 Bft)
26.05.2020 17:52 19,0 C 26,7 C 46 % 1035,4 hPa 0,0 l/m 10,3 km/h (2 Bft) N-NO 28 0 min 2,8 UV-I 500 W/m 7,1 C 17,4 C 19,3 km/h (3 Bft)
26.05.2020 17:54 19,1 C 26,7 C 46 % 1035,4 hPa 0,0 l/m 13,4 km/h (3 Bft) NO 42 0 min 2,8 UV-I 523 W/m 7,2 C 16,6 C 19,3 km/h (3 Bft)
26.05.2020 17:56 19,2 C 27,2 C 47 % 1035,5 hPa 0,0 l/m 9,0 km/h (2 Bft) N-NO 33 0 min 2,7 UV-I 509 W/m 7,6 C 18,1 C 16,1 km/h (3 Bft)
26.05.2020 17:58 19,1 C 26,7 C 45 % 1035,5 hPa 0,0 l/m 17,5 km/h (3 Bft) N 351 0 min 2,7 UV-I 508 W/m 6,9 C 15,6 C 25,7 km/h (4 Bft)
26.05.2020 18:00 18,9 C 26,7 C 45 % 1035,5 hPa 0,0 l/m 14,7 km/h (3 Bft) N-NW 334 0 min 2,6 UV-I 501 W/m 6,7 C 16,0 C 17,7 km/h (3 Bft)
26.05.2020 18:02 18,8 C 26,7 C 45 % 1035,5 hPa 0,0 l/m 10,6 km/h (2 Bft) N 5 0 min 2,6 UV-I 496 W/m 6,6 C 17,1 C 14,5 km/h (3 Bft)
26.05.2020 18:04 19,0 C 26,7 C 48 % 1035,5 hPa 0,0 l/m 13,3 km/h (3 Bft) N-NO 15 0 min 2,5 UV-I 487 W/m 7,7 C 16,5 C 20,9 km/h (4 Bft)
26.05.2020 18:06 18,9 C 26,1 C 46 % 1035,5 hPa 0,0 l/m 13,1 km/h (3 Bft) N-NO 21 0 min 2,5 UV-I 479 W/m 7,0 C 16,4 C 22,5 km/h (4 Bft)
26.05.2020 18:08 18,9 C 25,6 C 46 % 1035,4 hPa 0,0 l/m 10,4 km/h (2 Bft) NO 36 0 min 2,5 UV-I 480 W/m 7,0 C 17,3 C 17,7 km/h (3 Bft)
26.05.2020 18:10 18,8 C 25,6 C 46 % 1035,4 hPa 0,0 l/m 11,4 km/h (2 Bft) N 360 0 min 2,4 UV-I 474 W/m 6,9 C 16,8 C 16,1 km/h (3 Bft)
26.05.2020 18:12 18,9 C 26,1 C 48 % 1035,4 hPa 0,0 l/m 11,3 km/h (2 Bft) N-NO 24 0 min 2,4 UV-I 472 W/m 7,6 C 17,0 C 17,7 km/h (3 Bft)
26.05.2020 18:14 18,9 C 26,1 C 48 % 1035,5 hPa 0,0 l/m 8,8 km/h (2 Bft) N 5 0 min 2,3 UV-I 460 W/m 7,6 C 17,9 C 14,5 km/h (3 Bft)
26.05.2020 18:16 18,8 C 26,1 C 46 % 1035,4 hPa 0,0 l/m 10,4 km/h (2 Bft) N 355 0 min 2,2 UV-I 449 W/m 6,9 C 17,2 C 14,5 km/h (3 Bft)
26.05.2020 18:18 18,9 C 26,1 C 49 % 1035,4 hPa 0,0 l/m 8,7 km/h (2 Bft) NO 51 0 min 2,2 UV-I 437 W/m 7,9 C 17,9 C 16,1 km/h (3 Bft)
26.05.2020 18:20 18,8 C 24,4 C 46 % 1035,3 hPa 0,0 l/m 15,7 km/h (3 Bft) N-NO 26 0 min 2,2 UV-I 446 W/m 6,9 C 15,6 C 22,5 km/h (4 Bft)
26.05.2020 18:22 18,8 C 23,3 C 47 % 1035,3 hPa 0,0 l/m 11,9 km/h (2 Bft) N-NO 18 0 min 2,2 UV-I 438 W/m 7,2 C 16,7 C 25,7 km/h (4 Bft)
26.05.2020 18:24 18,7 C 22,2 C 46 % 1035,3 hPa 0,0 l/m 19,9 km/h (4 Bft) N-NO 18 0 min 2,1 UV-I 420 W/m 6,8 C 14,5 C 25,7 km/h (4 Bft)
26.05.2020 18:26 18,6 C 21,1 C 44 % 1035,4 hPa 0,0 l/m 14,7 km/h (3 Bft) N-NO 27 0 min 2,0 UV-I 416 W/m 6,1 C 15,6 C 20,9 km/h (4 Bft)
26.05.2020 18:28 18,5 C 21,1 C 45 % 1035,3 hPa 0,0 l/m 12,2 km/h (2 Bft) N 9 0 min 2,0 UV-I 419 W/m 6,3 C 16,2 C 17,7 km/h (3 Bft)
26.05.2020 18:30 18,6 C 21,1 C 46 % 1035,3 hPa 0,0 l/m 12,0 km/h (2 Bft) N-NO 15 0 min 2,0 UV-I 415 W/m 6,8 C 16,4 C 19,3 km/h (3 Bft)
26.05.2020 18:32 18,6 C 21,1 C 45 % 1035,4 hPa 0,0 l/m 15,9 km/h (3 Bft) N 5 0 min 2,0 UV-I 424 W/m 6,4 C 15,3 C 20,9 km/h (4 Bft)
26.05.2020 18:34 18,6 C 20,6 C 45 % 1035,2 hPa 0,0 l/m 9,8 km/h (2 Bft) N-NO 30 0 min 1,9 UV-I 413 W/m 6,4 C 17,2 C 12,9 km/h (3 Bft)
26.05.2020 18:36 18,6 C 20,6 C 46 % 1035,3 hPa 0,0 l/m 15,1 km/h (3 Bft) N-NW 346 0 min 1,9 UV-I 402 W/m 6,8 C 15,5 C 22,5 km/h (4 Bft)
26.05.2020 18:38 18,4 C 20,6 C 46 % 1035,3 hPa 0,0 l/m 16,3 km/h (3 Bft) N 355 0 min 1,8 UV-I 398 W/m 6,6 C 15,0 C 20,9 km/h (4 Bft)
26.05.2020 18:40 18,3 C 20,0 C 44 % 1035,3 hPa 0,0 l/m 15,5 km/h (3 Bft) N 355 0 min 1,8 UV-I 395 W/m 5,8 C 15,1 C 19,3 km/h (3 Bft)
26.05.2020 18:42 18,3 C 20,0 C 49 % 1035,3 hPa 0,0 l/m 7,4 km/h (2 Bft) N 5 0 min 1,8 UV-I 387 W/m 7,4 C 17,8 C 16,1 km/h (3 Bft)
26.05.2020 18:44 18,3 C 20,6 C 47 % 1035,3 hPa 0,0 l/m 6,9 km/h (2 Bft) N-NO 30 0 min 1,7 UV-I 378 W/m 6,8 C 18,1 C 9,7 km/h (2 Bft)
26.05.2020 18:46 18,4 C 20,6 C 49 % 1035,3 hPa 0,0 l/m 10,3 km/h (2 Bft) N 5 0 min 1,7 UV-I 369 W/m 7,5 C 16,8 C 16,1 km/h (3 Bft)
26.05.2020 18:48 18,4 C 20,6 C 47 % 1035,3 hPa 0,0 l/m 14,5 km/h (3 Bft) N-NO 26 0 min 1,6 UV-I 363 W/m 6,9 C 15,4 C 20,9 km/h (4 Bft)
26.05.2020 18:50 18,3 C 21,1 C 46 % 1035,3 hPa 0,0 l/m 14,3 km/h (3 Bft) NO 49 0 min 1,6 UV-I 358 W/m 6,5 C 15,4 C 22,5 km/h (4 Bft)
26.05.2020 18:52 18,3 C 21,1 C 46 % 1035,3 hPa 0,0 l/m 10,9 km/h (2 Bft) NO 42 0 min 1,5 UV-I 345 W/m 6,5 C 16,4 C 16,1 km/h (3 Bft)
26.05.2020 18:54 18,3 C 21,7 C 47 % 1035,3 hPa 0,0 l/m 10,0 km/h (2 Bft) N-NO 22 0 min 1,5 UV-I 332 W/m 6,8 C 16,8 C 16,1 km/h (3 Bft)
26.05.2020 18:56 18,2 C 22,8 C 48 % 1035,3 hPa 0,0 l/m 12,3 km/h (3 Bft) N-NO 28 0 min 1,5 UV-I 343 W/m 7,0 C 15,9 C 17,7 km/h (3 Bft)
26.05.2020 18:58 18,2 C 23,3 C 46 % 1035,4 hPa 0,0 l/m 14,8 km/h (3 Bft) N-NW 344 0 min 1,4 UV-I 341 W/m 6,4 C 15,1 C 22,5 km/h (4 Bft)
26.05.2020 19:00 18,1 C 23,3 C 46 % 1035,3 hPa 0,0 l/m 18,7 km/h (3 Bft) N-NO 13 0 min 1,4 UV-I 337 W/m 6,3 C 14,0 C 24,1 km/h (4 Bft)
26.05.2020 19:02 17,9 C 23,3 C 47 % 1035,4 hPa 0,0 l/m 11,4 km/h (2 Bft) NW 326 0 min 1,4 UV-I 327 W/m 6,4 C 15,8 C 17,7 km/h (3 Bft)
26.05.2020 19:04 17,9 C 23,3 C 47 % 1035,3 hPa 0,0 l/m 12,4 km/h (3 Bft) N-NO 28 0 min 1,3 UV-I 317 W/m 6,4 C 15,5 C 17,7 km/h (3 Bft)
26.05.2020 19:06 18,1 C 23,3 C 47 % 1035,4 hPa 0,0 l/m 12,4 km/h (3 Bft) N-NW 329 0 min 1,3 UV-I 311 W/m 6,6 C 15,7 C 19,3 km/h (3 Bft)
26.05.2020 19:08 18,0 C 23,3 C 48 % 1035,3 hPa 0,0 l/m 12,9 km/h (3 Bft) N-NO 25 0 min 1,3 UV-I 309 W/m 6,8 C 15,4 C 20,9 km/h (4 Bft)
26.05.2020 19:10 17,9 C 23,3 C 48 % 1035,4 hPa 0,0 l/m 9,4 km/h (2 Bft) N-NW 348 0 min 1,2 UV-I 286 W/m 6,7 C 16,6 C 14,5 km/h (3 Bft)
26.05.2020 19:12 17,8 C 23,3 C 48 % 1035,3 hPa 0,0 l/m 10,6 km/h (2 Bft) N-NO 20 0 min 1,1 UV-I 252 W/m 6,6 C 16,0 C 16,1 km/h (3 Bft)
26.05.2020 19:14 17,8 C 22,8 C 49 % 1035,3 hPa 0,0 l/m 8,3 km/h (2 Bft) NO 36 0 min 1,1 UV-I 243 W/m 6,9 C 16,9 C 16,1 km/h (3 Bft)
26.05.2020 19:16 17,7 C 22,8 C 49 % 1035,3 hPa 0,0 l/m 9,3 km/h (2 Bft) NO 39 0 min 1,1 UV-I 272 W/m 6,9 C 16,4 C 14,5 km/h (3 Bft)
26.05.2020 19:18 17,7 C 22,8 C 49 % 1035,2 hPa 0,0 l/m 11,9 km/h (2 Bft) NO 36 0 min 1,1 UV-I 277 W/m 6,9 C 15,4 C 16,1 km/h (3 Bft)
26.05.2020 19:20 17,7 C 17,2 C 48 % 1035,3 hPa 0,0 l/m 16,0 km/h (3 Bft) N-NO 18 0 min 1,1 UV-I 283 W/m 6,6 C 14,2 C 20,9 km/h (4 Bft)
26.05.2020 19:22 17,7 C 16,1 C 48 % 1035,2 hPa 0,0 l/m 12,5 km/h (3 Bft) NO 49 0 min 1,1 UV-I 279 W/m 6,6 C 15,2 C 19,3 km/h (3 Bft)
26.05.2020 19:24 17,6 C 16,1 C 49 % 1035,3 hPa 0,0 l/m 11,9 km/h (2 Bft) N 10 0 min 1,0 UV-I 276 W/m 6,8 C 15,3 C 22,5 km/h (4 Bft)
26.05.2020 19:26 17,6 C 16,7 C 49 % 1035,2 hPa 0,0 l/m 12,7 km/h (3 Bft) N-NO 13 0 min 1,0 UV-I 272 W/m 6,8 C 15,0 C 17,7 km/h (3 Bft)
26.05.2020 19:28 17,7 C 17,2 C 50 % 1035,2 hPa 0,0 l/m 8,2 km/h (2 Bft) N-NO 13 0 min 1,0 UV-I 263 W/m 7,1 C 16,8 C 16,1 km/h (3 Bft)
26.05.2020 19:30 17,6 C 17,2 C 50 % 1035,2 hPa 0,0 l/m 9,3 km/h (2 Bft) N-NO 13 0 min 1,0 UV-I 258 W/m 7,1 C 16,3 C 14,5 km/h (3 Bft)
26.05.2020 19:32 17,6 C 17,8 C 49 % 1035,1 hPa 0,0 l/m 14,1 km/h (3 Bft) N-NO 29 0 min 0,9 UV-I 254 W/m 6,8 C 14,6 C 20,9 km/h (4 Bft)
26.05.2020 19:34 17,4 C 17,2 C 50 % 1035,2 hPa 0,0 l/m 12,5 km/h (3 Bft) N 11 0 min 0,9 UV-I 250 W/m 6,9 C 14,9 C 17,7 km/h (3 Bft)
26.05.2020 19:36 17,4 C 17,8 C 50 % 1035,2 hPa 0,0 l/m 10,4 km/h (2 Bft) N-NO 17 0 min 0,9 UV-I 245 W/m 6,9 C 15,6 C 16,1 km/h (3 Bft)
26.05.2020 19:38 17,3 C 18,3 C 50 % 1035,3 hPa 0,0 l/m 11,8 km/h (2 Bft) N 355 0 min 0,8 UV-I 238 W/m 6,8 C 15,0 C 17,7 km/h (3 Bft)
26.05.2020 19:40 17,3 C 18,9 C 50 % 1035,2 hPa 0,0 l/m 8,0 km/h (2 Bft) N-NO 26 0 min 0,8 UV-I 230 W/m 6,8 C 16,5 C 16,1 km/h (3 Bft)
26.05.2020 19:42 17,2 C 20,0 C 50 % 1035,3 hPa 0,0 l/m 11,3 km/h (2 Bft) N-NO 22 0 min 0,8 UV-I 224 W/m 6,7 C 15,1 C 19,3 km/h (3 Bft)
26.05.2020 19:44 17,2 C 20,6 C 50 % 1035,2 hPa 0,0 l/m 10,8 km/h (2 Bft) N-NW 341 0 min 0,8 UV-I 217 W/m 6,7 C 15,2 C 16,1 km/h (3 Bft)
26.05.2020 19:46 17,2 C 20,6 C 50 % 1035,3 hPa 0,0 l/m 11,6 km/h (2 Bft) N 360 0 min 0,7 UV-I 209 W/m 6,7 C 14,9 C 17,7 km/h (3 Bft)
26.05.2020 19:48 17,1 C 20,0 C 49 % 1035,2 hPa 0,0 l/m 9,0 km/h (2 Bft) N-NO 12 0 min 0,7 UV-I 201 W/m 6,3 C 15,9 C 14,5 km/h (3 Bft)
26.05.2020 19:50 17,0 C 20,0 C 50 % 1035,2 hPa 0,0 l/m 8,5 km/h (2 Bft) N-NO 23 0 min 0,7 UV-I 194 W/m 6,5 C 16,0 C 14,5 km/h (3 Bft)
26.05.2020 19:52 16,9 C 20,0 C 51 % 1035,3 hPa 0,0 l/m 11,5 km/h (2 Bft) N-NO 19 0 min 0,7 UV-I 188 W/m 6,7 C 14,6 C 16,1 km/h (3 Bft)
26.05.2020 19:54 16,9 C 18,9 C 48 % 1035,2 hPa 0,0 l/m 13,8 km/h (3 Bft) N 360 0 min 0,6 UV-I 182 W/m 5,8 C 13,9 C 22,5 km/h (4 Bft)
26.05.2020 19:56 16,9 C 18,3 C 48 % 1035,2 hPa 0,0 l/m 17,2 km/h (3 Bft) N-NO 31 0 min 0,6 UV-I 175 W/m 5,8 C 12,9 C 22,5 km/h (4 Bft)
26.05.2020 19:58 16,8 C 18,3 C 49 % 1035,3 hPa 0,0 l/m 9,2 km/h (2 Bft) NO 42 0 min 0,6 UV-I 167 W/m 6,0 C 15,4 C 17,7 km/h (3 Bft)
26.05.2020 20:00 16,7 C 17,8 C 50 % 1035,4 hPa 0,0 l/m 12,0 km/h (2 Bft) NO 39 0 min 0,6 UV-I 160 W/m 6,2 C 14,2 C 24,1 km/h (4 Bft)
26.05.2020 20:02 16,7 C 16,7 C 49 % 1035,3 hPa 0,0 l/m 15,1 km/h (3 Bft) N-NO 13 0 min 0,5 UV-I 153 W/m 5,9 C 13,2 C 22,5 km/h (4 Bft)
26.05.2020 20:04 16,7 C 16,7 C 50 % 1035,3 hPa 0,0 l/m 11,9 km/h (2 Bft) N-NW 347 0 min 0,5 UV-I 148 W/m 6,2 C 14,3 C 17,7 km/h (3 Bft)
26.05.2020 20:06 16,6 C 16,1 C 50 % 1035,5 hPa 0,0 l/m 8,1 km/h (2 Bft) N-NO 20 0 min 0,5 UV-I 139 W/m 6,1 C 15,7 C 16,1 km/h (3 Bft)
26.05.2020 20:08 16,6 C 15,6 C 50 % 1035,4 hPa 0,0 l/m 10,9 km/h (2 Bft) N-NO 13 0 min 0,4 UV-I 132 W/m 6,1 C 14,5 C 19,3 km/h (3 Bft)
26.05.2020 20:10 16,4 C 15,6 C 50 % 1035,4 hPa 0,0 l/m 9,8 km/h (2 Bft) N-NO 15 0 min 0,0 UV-I 124 W/m 6,0 C 14,7 C 14,5 km/h (3 Bft)
26.05.2020 20:12 16,3 C 15,6 C 51 % 1035,4 hPa 0,0 l/m 6,6 km/h (2 Bft) N-NO 21 0 min 0,0 UV-I 92 W/m 6,1 C 16,2 C 11,3 km/h (2 Bft)
26.05.2020 20:14 16,3 C 15,0 C 51 % 1035,5 hPa 0,0 l/m 7,3 km/h (2 Bft) N 360 0 min 0,0 UV-I 94 W/m 6,1 C 15,8 C 14,5 km/h (3 Bft)
26.05.2020 20:16 16,3 C 15,0 C 52 % 1035,5 hPa 0,0 l/m 8,7 km/h (2 Bft) N-NO 13 0 min 0,0 UV-I 87 W/m 6,4 C 15,1 C 14,5 km/h (3 Bft)
26.05.2020 20:18 16,1 C 15,0 C 52 % 1035,5 hPa 0,0 l/m 9,0 km/h (2 Bft) N 360 0 min 0,0 UV-I 100 W/m 6,2 C 14,8 C 14,5 km/h (3 Bft)
26.05.2020 20:20 16,1 C 15,0 C 51 % 1035,5 hPa 0,0 l/m 11,6 km/h (2 Bft) NO 40 0 min 0,0 UV-I 97 W/m 6,0 C 13,7 C 16,1 km/h (3 Bft)
26.05.2020 20:22 16,1 C 15,0 C 51 % 1035,4 hPa 0,0 l/m 10,3 km/h (2 Bft) N-NO 21 0 min 0,0 UV-I 91 W/m 6,0 C 14,2 C 12,9 km/h (3 Bft)
26.05.2020 20:24 16,1 C 14,4 C 51 % 1035,5 hPa 0,0 l/m 9,2 km/h (2 Bft) N 5 0 min 0,0 UV-I 84 W/m 6,0 C 14,7 C 14,5 km/h (3 Bft)
26.05.2020 20:26 16,1 C 14,4 C 51 % 1035,5 hPa 0,0 l/m 6,8 km/h (2 Bft) N-NO 24 0 min 0,0 UV-I 60 W/m 6,0 C 15,9 C 14,5 km/h (3 Bft)
26.05.2020 20:28 15,9 C 14,4 C 52 % 1035,5 hPa 0,0 l/m 6,8 km/h (2 Bft) N 11 0 min 0,0 UV-I 42 W/m 6,1 C 15,7 C 11,3 km/h (2 Bft)
26.05.2020 20:30 15,7 C 13,9 C 53 % 1035,5 hPa 0,0 l/m 8,9 km/h (2 Bft) N 9 0 min 0,0 UV-I 39 W/m 6,1 C 14,4 C 14,5 km/h (3 Bft)
26.05.2020 20:32 15,6 C 13,9 C 54 % 1035,4 hPa 0,0 l/m 7,2 km/h (2 Bft) N 360 0 min 0,0 UV-I 36 W/m 6,3 C 15,2 C 11,3 km/h (2 Bft)
26.05.2020 20:34 15,4 C 13,9 C 54 % 1035,4 hPa 0,0 l/m 8,6 km/h (2 Bft) N 5 0 min 0,0 UV-I 33 W/m 6,1 C 14,2 C 16,1 km/h (3 Bft)
26.05.2020 20:36 15,3 C 13,3 C 54 % 1035,5 hPa 0,0 l/m 8,4 km/h (2 Bft) N-NO 26 0 min 0,0 UV-I 33 W/m 6,0 C 14,2 C 14,5 km/h (3 Bft)
26.05.2020 20:38 15,4 C 13,3 C 54 % 1035,5 hPa 0,0 l/m 6,4 km/h (2 Bft) N 11 0 min 0,0 UV-I 33 W/m 6,1 C 15,4 C 11,3 km/h (2 Bft)
26.05.2020 20:40 15,4 C 13,9 C 54 % 1035,4 hPa 0,0 l/m 8,2 km/h (2 Bft) N-NO 19 0 min 0,0 UV-I 33 W/m 6,1 C 14,4 C 14,5 km/h (3 Bft)
26.05.2020 20:42 15,4 C 13,3 C 54 % 1035,5 hPa 0,0 l/m 6,2 km/h (2 Bft) N 9 0 min 0,0 UV-I 32 W/m 6,1 C 15,4 C 9,7 km/h (2 Bft)
26.05.2020 20:44 15,2 C 13,3 C 55 % 1035,6 hPa 0,0 l/m 5,7 km/h (1 Bft) N-NO 13 0 min 0,0 UV-I 31 W/m 6,2 C 15,2 C 8,0 km/h (2 Bft)
26.05.2020 20:46 15,2 C 12,8 C 55 % 1035,5 hPa 0,0 l/m 5,2 km/h (1 Bft) N 5 0 min 0,0 UV-I 28 W/m 6,2 C 15,2 C 9,7 km/h (2 Bft)
26.05.2020 20:48 15,1 C 12,8 C 55 % 1035,5 hPa 0,0 l/m 7,2 km/h (2 Bft) N-NO 27 0 min 0,0 UV-I 26 W/m 6,1 C 14,6 C 12,9 km/h (3 Bft)
26.05.2020 20:50 14,9 C 12,2 C 56 % 1035,5 hPa 0,0 l/m 6,6 km/h (2 Bft) N-NO 13 0 min 0,0 UV-I 24 W/m 6,2 C 14,8 C 11,3 km/h (2 Bft)
26.05.2020 20:52 14,9 C 12,2 C 56 % 1035,6 hPa 0,0 l/m 6,0 km/h (2 Bft) N 5 0 min 0,0 UV-I 22 W/m 6,2 C 14,9 C 8,0 km/h (2 Bft)
26.05.2020 20:54 14,8 C 12,2 C 56 % 1035,6 hPa 0,0 l/m 5,2 km/h (1 Bft) N 9 0 min 0,0 UV-I 21 W/m 6,1 C 14,8 C 8,0 km/h (2 Bft)
26.05.2020 20:56 14,8 C 11,7 C 56 % 1035,6 hPa 0,0 l/m 5,3 km/h (1 Bft) N 11 0 min 0,0 UV-I 19 W/m 6,1 C 14,8 C 6,4 km/h (2 Bft)
26.05.2020 20:58 14,8 C 11,7 C 56 % 1035,5 hPa 0,0 l/m 5,0 km/h (1 Bft) N 5 0 min 0,0 UV-I 18 W/m 6,1 C 14,8 C 6,4 km/h (2 Bft)
26.05.2020 21:00 14,8 C 11,7 C 56 % 1035,5 hPa 0,0 l/m 4,7 km/h (1 Bft) N-NO 23 0 min 0,0 UV-I 16 W/m 6,1 C 14,8 C 6,4 km/h (2 Bft)
26.05.2020 21:02 14,8 C 11,7 C 56 % 1035,6 hPa 0,0 l/m 4,8 km/h (1 Bft) N 9 0 min 0,0 UV-I 14 W/m 6,1 C 14,8 C 6,4 km/h (2 Bft)
26.05.2020 21:04 14,7 C 11,1 C 56 % 1035,5 hPa 0,0 l/m 4,3 km/h (1 Bft) N 9 0 min 0,0 UV-I 14 W/m 6,0 C 14,7 C 4,8 km/h (1 Bft)
26.05.2020 21:06 14,6 C 11,1 C 57 % 1035,6 hPa 0,0 l/m 4,1 km/h (1 Bft) N 9 0 min 0,0 UV-I 13 W/m 6,2 C 14,6 C 6,4 km/h (2 Bft)
26.05.2020 21:08 14,6 C 11,1 C 57 % 1035,6 hPa 0,0 l/m 3,9 km/h (1 Bft) N 9 0 min 0,0 UV-I 12 W/m 6,2 C 14,6 C 6,4 km/h (2 Bft)
26.05.2020 21:10 14,6 C 11,1 C 56 % 1035,7 hPa 0,0 l/m 4,9 km/h (1 Bft) N 9 0 min 0,0 UV-I 12 W/m 5,9 C 14,6 C 6,4 km/h (2 Bft)
26.05.2020 21:12 14,6 C 10,6 C 57 % 1035,6 hPa 0,0 l/m 4,0 km/h (1 Bft) N 9 0 min 0,0 UV-I 11 W/m 6,2 C 14,6 C 4,8 km/h (1 Bft)
26.05.2020 21:14 14,6 C 10,6 C 57 % 1035,6 hPa 0,0 l/m 3,1 km/h (1 Bft) N 9 0 min 0,0 UV-I 11 W/m 6,2 C 14,6 C 3,2 km/h (1 Bft)
26.05.2020 21:16 14,5 C 10,6 C 57 % 1035,7 hPa 0,0 l/m 3,7 km/h (1 Bft) N 5 0 min 0,0 UV-I 11 W/m 6,1 C 14,5 C 4,8 km/h (1 Bft)
26.05.2020 21:18 14,5 C 10,0 C 57 % 1035,6 hPa 0,0 l/m 3,8 km/h (1 Bft) N 5 0 min 0,0 UV-I 11 W/m 6,1 C 14,5 C 4,8 km/h (1 Bft)
26.05.2020 21:20 14,6 C 10,0 C 57 % 1035,7 hPa 0,0 l/m 3,6 km/h (1 Bft) N 5 0 min 0,0 UV-I 9 W/m 6,2 C 14,6 C 4,8 km/h (1 Bft)
26.05.2020 21:22 14,4 C 10,0 C 57 % 1035,7 hPa 0,0 l/m 3,9 km/h (1 Bft) N 5 0 min 0,0 UV-I 8 W/m 6,0 C 14,4 C 4,8 km/h (1 Bft)
26.05.2020 21:24 14,3 C 10,0 C 58 % 1035,7 hPa 0,0 l/m 4,5 km/h (1 Bft) N 5 0 min 0,0 UV-I 7 W/m 6,2 C 14,3 C 6,4 km/h (2 Bft)
26.05.2020 21:26 14,2 C 9,4 C 58 % 1035,7 hPa 0,0 l/m 5,2 km/h (1 Bft) N 5 0 min 0,0 UV-I 5 W/m 6,1 C 14,2 C 6,4 km/h (2 Bft)
26.05.2020 21:28 14,1 C 9,4 C 59 % 1035,7 hPa 0,0 l/m 4,8 km/h (1 Bft) N 5 0 min 0,0 UV-I 5 W/m 6,2 C 14,1 C 6,4 km/h (2 Bft)
26.05.2020 21:30 13,9 C 9,4 C 59 % 1035,7 hPa 0,0 l/m 4,1 km/h (1 Bft) N 5 0 min 0,0 UV-I 2 W/m 6,0 C 13,9 C 4,8 km/h (1 Bft)
26.05.2020 21:32 13,9 C 9,4 C 59 % 1035,7 hPa 0,0 l/m 4,1 km/h (1 Bft) N 5 0 min 0,0 UV-I 0 W/m 6,0 C 13,9 C 6,4 km/h (2 Bft)
26.05.2020 21:34 13,8 C 9,4 C 60 % 1035,8 hPa 0,0 l/m 4,1 km/h (1 Bft) N 5 0 min 0,0 UV-I 0 W/m 6,2 C 13,8 C 4,8 km/h (1 Bft)
26.05.2020 21:36 13,7 C 8,9 C 60 % 1035,7 hPa 0,0 l/m 3,4 km/h (1 Bft) N 5 0 min 0,0 UV-I 0 W/m 6,1 C 13,7 C 4,8 km/h (1 Bft)
26.05.2020 21:38 13,5 C 8,9 C 61 % 1035,8 hPa 0,0 l/m 0,9 km/h (0 Bft) N 5 0 min 0,0 UV-I 0 W/m 6,1 C 13,5 C 3,2 km/h (1 Bft)
26.05.2020 21:40 13,2 C 8,9 C 62 % 1035,8 hPa 0,0 l/m 0,1 km/h (0 Bft) N 5 0 min 0,0 UV-I 0 W/m 6,1 C 13,2 C 1,6 km/h (1 Bft)
26.05.2020 21:42 13,0 C 8,9 C 63 % 1035,8 hPa 0,0 l/m 1,2 km/h (1 Bft) N 5 0 min 0,0 UV-I 0 W/m 6,1 C 13,0 C 3,2 km/h (1 Bft)
26.05.2020 21:44 13,1 C 8,9 C 63 % 1035,9 hPa 0,0 l/m 2,2 km/h (1 Bft) N 5 0 min 0,0 UV-I 0 W/m 6,2 C 13,1 C 3,2 km/h (1 Bft)
26.05.2020 21:46 13,1 C 8,9 C 63 % 1035,9 hPa 0,0 l/m 3,7 km/h (1 Bft) N 5 0 min 0,0 UV-I 0 W/m 6,2 C 13,1 C 6,4 km/h (2 Bft)
26.05.2020 21:48 13,3 C 9,4 C 61 % 1035,8 hPa 0,0 l/m 4,0 km/h (1 Bft) N 5 0 min 0,0 UV-I 0 W/m 5,9 C 13,3 C 4,8 km/h (1 Bft)
26.05.2020 21:50 13,4 C 8,9 C 61 % 1035,8 hPa 0,0 l/m 3,9 km/h (1 Bft) N 5 0 min 0,0 UV-I 0 W/m 6,0 C 13,4 C 6,4 km/h (2 Bft)
26.05.2020 21:52 13,5 C 8,9 C 61 % 1035,9 hPa 0,0 l/m 3,3 km/h (1 Bft) N 5 0 min 0,0 UV-I 0 W/m 6,1 C 13,5 C 6,4 km/h (2 Bft)
26.05.2020 21:54 13,2 C 8,9 C 63 % 1035,9 hPa 0,0 l/m 1,8 km/h (1 Bft) N 5 0 min 0,0 UV-I 0 W/m 6,3 C 13,2 C 3,2 km/h (1 Bft)
26.05.2020 21:56 12,6 C 8,3 C 65 % 1035,9 hPa 0,0 l/m 0,2 km/h (0 Bft) N 5 0 min 0,0 UV-I 0 W/m 6,2 C 12,6 C 1,6 km/h (1 Bft)
26.05.2020 21:58 12,4 C 8,3 C 65 % 1035,9 hPa 0,0 l/m 0,0 km/h (0 Bft) N 5 0 min 0,0 UV-I 0 W/m 6,0 C 12,4 C 0,0 km/h (0 Bft)
26.05.2020 22:00 12,4 C 7,8 C 66 % 1035,9 hPa 0,0 l/m 0,1 km/h (0 Bft) N 5 0 min 0,0 UV-I 0 W/m 6,2 C 12,4 C 1,6 km/h (1 Bft)
26.05.2020 22:02 12,3 C 7,8 C 65 % 1035,9 hPa 0,0 l/m 2,0 km/h (1 Bft) N 5 0 min 0,0 UV-I 0 W/m 5,9 C 12,3 C 3,2 km/h (1 Bft)
26.05.2020 22:04 12,2 C 8,3 C 66 % 1035,9 hPa 0,0 l/m 0,9 km/h (0 Bft) N 5 0 min 0,0 UV-I 0 W/m 6,0 C 12,2 C 1,6 km/h (1 Bft)
26.05.2020 22:06 11,9 C 7,8 C 68 % 1035,9 hPa 0,0 l/m 0,0 km/h (0 Bft) N 5 0 min 0,0 UV-I 0 W/m 6,2 C 11,9 C 0,0 km/h (0 Bft)
26.05.2020 22:08 11,6 C 7,8 C 69 % 1035,9 hPa 0,0 l/m 0,0 km/h (0 Bft) N 5 0 min 0,0 UV-I 0 W/m 6,1 C 11,6 C 0,0 km/h (0 Bft)
26.05.2020 22:10 11,4 C 7,2 C 70 % 1035,8 hPa 0,0 l/m 0,0 km/h (0 Bft) N 5 0 min 0,0 UV-I 0 W/m 6,1 C 11,4 C 0,0 km/h (0 Bft)
26.05.2020 22:12 11,4 C 7,2 C 70 % 1035,9 hPa 0,0 l/m 0,0 km/h (0 Bft) N 5 0 min 0,0 UV-I 0 W/m 6,1 C 11,4 C 0,0 km/h (0 Bft)
26.05.2020 22:14 11,4 C 7,2 C 69 % 1035,9 hPa 0,0 l/m 0,0 km/h (0 Bft) N 5 0 min 0,0 UV-I 0 W/m 5,9 C 11,4 C 0,0 km/h (0 Bft)
26.05.2020 22:16 11,4 C 7,2 C 69 % 1035,9 hPa 0,0 l/m 0,0 km/h (0 Bft) N 5 0 min 0,0 UV-I 0 W/m 5,9 C 11,4 C 0,0 km/h (0 Bft)
26.05.2020 22:18 11,4 C 7,2 C 70 % 1036,0 hPa 0,0 l/m 0,0 km/h (0 Bft) N 5 0 min 0,0 UV-I 0 W/m 6,1 C 11,4 C 0,0 km/h (0 Bft)
26.05.2020 22:20 11,3 C 7,2 C 70 % 1035,9 hPa 0,0 l/m 0,1 km/h (0 Bft) N 5 0 min 0,0 UV-I 0 W/m 6,0 C 11,3 C 1,6 km/h (1 Bft)
26.05.2020 22:22 11,2 C 7,2 C 71 % 1036,0 hPa 0,0 l/m 0,3 km/h (0 Bft) N 5 0 min 0,0 UV-I 0 W/m 6,1 C 11,2 C 1,6 km/h (1 Bft)
26.05.2020 22:24 11,0 C 6,7 C 71 % 1036,0 hPa 0,0 l/m 0,4 km/h (0 Bft) N 5 0 min 0,0 UV-I 0 W/m 5,9 C 11,0 C 1,6 km/h (1 Bft)
26.05.2020 22:26 10,9 C 6,7 C 71 % 1036,0 hPa 0,0 l/m 0,0 km/h (0 Bft) N 5 0 min 0,0 UV-I 0 W/m 5,9 C 10,9 C 0,0 km/h (0 Bft)
26.05.2020 22:28 11,0 C 6,7 C 71 % 1036,0 hPa 0,0 l/m 0,0 km/h (0 Bft) N 5 0 min 0,0 UV-I 0 W/m 5,9 C 11,0 C 0,0 km/h (0 Bft)
26.05.2020 22:30 10,9 C 7,2 C 72 % 1036,0 hPa 0,0 l/m 0,0 km/h (0 Bft) N 5 0 min 0,0 UV-I 0 W/m 6,1 C 10,9 C 1,6 km/h (1 Bft)
26.05.2020 22:32 10,7 C 7,2 C 72 % 1036,0 hPa 0,0 l/m 0,0 km/h (0 Bft) N 5 0 min 0,0 UV-I 0 W/m 5,9 C 10,7 C 1,6 km/h (1 Bft)
26.05.2020 22:34 10,6 C 7,2 C 73 % 1036,0 hPa 0,0 l/m 1,1 km/h (1 Bft) N 5 0 min 0,0 UV-I 0 W/m 6,0 C 10,6 C 1,6 km/h (1 Bft)
26.05.2020 22:36 10,6 C 7,8 C 73 % 1036,1 hPa 0,0 l/m 1,9 km/h (1 Bft) N 5 0 min 0,0 UV-I 0 W/m 6,0 C 10,6 C 3,2 km/h (1 Bft)
26.05.2020 22:38 10,6 C 7,8 C 73 % 1036,1 hPa 0,0 l/m 0,9 km/h (0 Bft) N 5 0 min 0,0 UV-I 0 W/m 6,0 C 10,6 C 1,6 km/h (1 Bft)
26.05.2020 22:40 10,6 C 7,8 C 73 % 1036,1 hPa 0,0 l/m 2,3 km/h (1 Bft) N 5 0 min 0,0 UV-I 0 W/m 6,0 C 10,6 C 3,2 km/h (1 Bft)
26.05.2020 22:42 10,7 C 7,2 C 73 % 1036,0 hPa 0,0 l/m 2,0 km/h (1 Bft) N 5 0 min 0,0 UV-I 0 W/m 6,1 C 10,7 C 3,2 km/h (1 Bft)
26.05.2020 22:44 10,4 C 7,2 C 74 % 1036,1 hPa 0,0 l/m 1,3 km/h (1 Bft) N 5 0 min 0,0 UV-I 0 W/m 6,0 C 10,4 C 3,2 km/h (1 Bft)
26.05.2020 22:46 10,2 C 6,7 C 74 % 1036,0 hPa 0,0 l/m 0,7 km/h (0 Bft) N 5 0 min 0,0 UV-I 0 W/m 5,8 C 10,2 C 1,6 km/h (1 Bft)
26.05.2020 22:48 10,1 C 6,7 C 75 % 1036,1 hPa 0,0 l/m 0,8 km/h (0 Bft) N 5 0 min 0,0 UV-I 0 W/m 5,9 C 10,1 C 1,6 km/h (1 Bft)
26.05.2020 22:50 10,1 C 6,7 C 75 % 1036,0 hPa 0,0 l/m 0,0 km/h (0 Bft) N 5 0 min 0,0 UV-I 0 W/m 5,9 C 10,1 C 0,0 km/h (0 Bft)
26.05.2020 22:52 10,1 C 6,7 C 75 % 1036,1 hPa 0,0 l/m 0,0 km/h (0 Bft) N 5 0 min 0,0 UV-I 0 W/m 5,9 C 10,1 C 0,0 km/h (0 Bft)
26.05.2020 22:54 10,2 C 6,7 C 75 % 1036,1 hPa 0,0 l/m 0,0 km/h (0 Bft) N 5 0 min 0,0 UV-I 0 W/m 6,0 C 10,2 C 0,0 km/h (0 Bft)
26.05.2020 22:56 10,2 C 6,7 C 75 % 1036,1 hPa 0,0 l/m 0,0 km/h (0 Bft) N 5 0 min 0,0 UV-I 0 W/m 6,0 C 10,2 C 1,6 km/h (1 Bft)
26.05.2020 22:58 10,3 C 6,7 C 74 % 1036,0 hPa 0,0 l/m 0,0 km/h (0 Bft) N 5 0 min 0,0 UV-I 0 W/m 5,9 C 10,3 C 0,0 km/h (0 Bft)
26.05.2020 23:00 10,3 C 6,7 C 74 % 1036,1 hPa 0,0 l/m 0,0 km/h (0 Bft) N 5 0 min 0,0 UV-I 0 W/m 5,9 C 10,3 C 0,0 km/h (0 Bft)
26.05.2020 23:02 10,2 C 6,7 C 74 % 1036,1 hPa 0,0 l/m 0,0 km/h (0 Bft) N 5 0 min 0,0 UV-I 0 W/m 5,8 C 10,2 C 0,0 km/h (0 Bft)
26.05.2020 23:04 10,2 C 6,7 C 75 % 1036,1 hPa 0,0 l/m 0,0 km/h (0 Bft) N 5 0 min 0,0 UV-I 0 W/m 6,0 C 10,2 C 0,0 km/h (0 Bft)
26.05.2020 23:06 10,2 C 6,7 C 75 % 1036,2 hPa 0,0 l/m 0,0 km/h (0 Bft) N 5 0 min 0,0 UV-I 0 W/m 6,0 C 10,2 C 0,0 km/h (0 Bft)
26.05.2020 23:08 10,2 C 6,7 C 75 % 1036,0 hPa 0,0 l/m 0,0 km/h (0 Bft) N 5 0 min 0,0 UV-I 0 W/m 6,0 C 10,2 C 0,0 km/h (0 Bft)
26.05.2020 23:10 10,0 C 6,1 C 76 % 1036,0 hPa 0,0 l/m 0,0 km/h (0 Bft) N 5 0 min 0,0 UV-I 0 W/m 6,0 C 10,0 C 0,0 km/h (0 Bft)
26.05.2020 23:12 9,8 C 6,1 C 76 % 1036,0 hPa 0,0 l/m 0,0 km/h (0 Bft) N 5 0 min 0,0 UV-I 0 W/m 5,8 C 9,8 C 0,0 km/h (0 Bft)
26.05.2020 23:14 9,6 C 6,1 C 77 % 1036,0 hPa 0,0 l/m 0,0 km/h (0 Bft) N 5 0 min 0,0 UV-I 0 W/m 5,8 C 9,6 C 0,0 km/h (0 Bft)
26.05.2020 23:16 9,4 C 6,1 C 78 % 1036,1 hPa 0,0 l/m 0,0 km/h (0 Bft) N 5 0 min 0,0 UV-I 0 W/m 5,8 C 9,4 C 0,0 km/h (0 Bft)
26.05.2020 23:18 9,3 C 6,1 C 78 % 1036,0 hPa 0,0 l/m 0,0 km/h (0 Bft) N 5 0 min 0,0 UV-I 0 W/m 5,7 C 9,3 C 0,0 km/h (0 Bft)
26.05.2020 23:20 9,2 C 6,7 C 79 % 1036,0 hPa 0,0 l/m 0,0 km/h (0 Bft) N 5 0 min 0,0 UV-I 0 W/m 5,8 C 9,2 C 0,0 km/h (0 Bft)
26.05.2020 23:22 9,2 C 6,1 C 79 % 1036,0 hPa 0,0 l/m 0,0 km/h (0 Bft) N 5 0 min 0,0 UV-I 0 W/m 5,8 C 9,2 C 0,0 km/h (0 Bft)
26.05.2020 23:24 9,3 C 6,7 C 79 % 1036,1 hPa 0,0 l/m 0,0 km/h (0 Bft) N 5 0 min 0,0 UV-I 0 W/m 5,8 C 9,3 C 0,0 km/h (0 Bft)
26.05.2020 23:26 9,3 C 6,7 C 79 % 1036,1 hPa 0,0 l/m 0,0 km/h (0 Bft) N 5 0 min 0,0 UV-I 0 W/m 5,8 C 9,3 C 0,0 km/h (0 Bft)
26.05.2020 23:28 9,3 C 6,7 C 79 % 1036,0 hPa 0,0 l/m 0,0 km/h (0 Bft) N 5 0 min 0,0 UV-I 0 W/m 5,8 C 9,3 C 0,0 km/h (0 Bft)
26.05.2020 23:30 9,4 C 6,7 C 79 % 1036,0 hPa 0,0 l/m 0,0 km/h (0 Bft) N 5 0 min 0,0 UV-I 0 W/m 5,9 C 9,4 C 0,0 km/h (0 Bft)
26.05.2020 23:32 9,4 C 6,7 C 79 % 1036,0 hPa 0,0 l/m 0,0 km/h (0 Bft) N 5 0 min 0,0 UV-I 0 W/m 5,9 C 9,4 C 0,0 km/h (0 Bft)
26.05.2020 23:34 9,4 C 6,1 C 79 % 1036,1 hPa 0,0 l/m 0,0 km/h (0 Bft) N 5 0 min 0,0 UV-I 0 W/m 5,9 C 9,4 C 0,0 km/h (0 Bft)
26.05.2020 23:36 9,3 C 6,1 C 79 % 1036,0 hPa 0,0 l/m 0,0 km/h (0 Bft) N 5 0 min 0,0 UV-I 0 W/m 5,8 C 9,3 C 0,0 km/h (0 Bft)
26.05.2020 23:38 9,3 C 6,1 C 79 % 1036,0 hPa 0,0 l/m 0,0 km/h (0 Bft) N 5 0 min 0,0 UV-I 0 W/m 5,8 C 9,3 C 0,0 km/h (0 Bft)
26.05.2020 23:40 9,2 C 6,1 C 79 % 1036,0 hPa 0,0 l/m 0,0 km/h (0 Bft) N 5 0 min 0,0 UV-I 0 W/m 5,8 C 9,2 C 0,0 km/h (0 Bft)
26.05.2020 23:42 9,3 C 6,1 C 79 % 1036,0 hPa 0,0 l/m 0,0 km/h (0 Bft) N 5 0 min 0,0 UV-I 0 W/m 5,8 C 9,3 C 0,0 km/h (0 Bft)
26.05.2020 23:44 9,3 C 6,1 C 79 % 1036,0 hPa 0,0 l/m 0,0 km/h (0 Bft) N 5 0 min 0,0 UV-I 0 W/m 5,8 C 9,3 C 0,0 km/h (0 Bft)
26.05.2020 23:46 9,2 C 5,6 C 79 % 1036,0 hPa 0,0 l/m 0,0 km/h (0 Bft) N 5 0 min 0,0 UV-I 0 W/m 5,8 C 9,2 C 0,0 km/h (0 Bft)
26.05.2020 23:48 9,2 C 5,6 C 79 % 1035,9 hPa 0,0 l/m 0,0 km/h (0 Bft) N 5 0 min 0,0 UV-I 0 W/m 5,8 C 9,2 C 0,0 km/h (0 Bft)
26.05.2020 23:50 9,1 C 5,6 C 79 % 1035,9 hPa 0,0 l/m 0,0 km/h (0 Bft) N 5 0 min 0,0 UV-I 0 W/m 5,7 C 9,1 C 0,0 km/h (0 Bft)
26.05.2020 23:52 8,9 C 5,0 C 80 % 1035,9 hPa 0,0 l/m 0,0 km/h (0 Bft) N 5 0 min 0,0 UV-I 0 W/m 5,6 C 8,9 C 0,0 km/h (0 Bft)
26.05.2020 23:54 8,9 C 5,0 C 80 % 1036,0 hPa 0,0 l/m 0,0 km/h (0 Bft) N 5 0 min 0,0 UV-I 0 W/m 5,6 C 8,9 C 0,0 km/h (0 Bft)
26.05.2020 23:56 8,9 C 5,0 C 80 % 1035,8 hPa 0,0 l/m 0,0 km/h (0 Bft) N 5 0 min 0,0 UV-I 0 W/m 5,6 C 8,9 C 0,0 km/h (0 Bft)
26.05.2020 23:58 8,8 C 5,0 C 80 % 1035,9 hPa 0,0 l/m 0,0 km/h (0 Bft) N 5 0 min 0,0 UV-I 0 W/m 5,5 C 8,8 C 0,0 km/h (0 Bft)
26.05.2020 23:59 8,8 C 5,0 C 80 % 1035,9 hPa 0,0 l/m 0,0 km/h (0 Bft) N 0 0 min 0,0 UV-I 0 W/m 5,5 C 8,8 C 0,0 km/h (0 Bft)
_ Min-Zeit 05:53 04:19 15:22 19:32 - 00:00 - - - - - 05:53 05:53 00:00
Minimum _ 2,2 C 0,6 C 43 % 1035,1 hPa - 0,0 km/h (0 Bft) - - - - - 1,3 C 2,2 C 0,0 km/h (0 Bft)
_ Max-Zeit 16:22 16:18 04:53 09:46 00:00 13:04 - - 10:26 13:20 13:42 09:54 15:14 11:10
Maximum _ 19,7 C 28,3 C 95 % 1036,7 hPa 0,0 l/m 24,4 km/h
N (4 Bft)
- - 2 min 7,1 UV-I 897 W/m 9,5 C 18,9 C 32,2 km/h
NO (5 Bft)
Durchschnitt _ 12,2 C 13,5 C 69 % 1035,9 hPa #0,0 l/m 7,1 km/h (2 Bft) N - #6:34 h 3,9 UV-I 474 W/m 6,1 C 10,9 C 10,9 km/h (2 Bft)